     2              OBSERVATION DATA    GPS                 RINEX VERSION / TYPE
teqc 2000Feb29 Duncan Agnew 20000707 21:03:04UTC            PGM / RUN BY / DATE
                                                            COMMENT
L2: 1 -> 1; 5 -> 5; 60 -> 9                                 COMMENT
L2: 1 -> 1; 5 -> 5; 60 -> 9                                 COMMENT
L2: 1 -> 1; 5 -> 5; 60 -> 9                                 COMMENT
L2: 1 -> 1; 5 -> 5; 60 -> 9                                 COMMENT
L2: 1 -> 1; 5 -> 5; 60 -> 9                                 COMMENT
Original Marker Name: 6477                                  COMMENT
Campaign Name: USMC MCAGCC                                  COMMENT
4-Character Station Name: SARG                              COMMENT
6-Character Antenna Code: TRMSST                            COMMENT
Vertical Measurement Point: BGP                             COMMENT
Vertical Offset to Rinex Ref. Point: 0.0597                 COMMENT
Radial Measurement Point: NGP                               COMMENT
Radial Offset to Rinex Ref. Point: 0.2334                   COMMENT
Antenna Height from Field Measurement: 1.4200 m             COMMENT
Additional Antenna Identification Info.:                    COMMENT
Model 14532.00                                              COMMENT
Original XYZ: -2326219.3449 -4733450.3965 3575576.9540      COMMENT
New XYZ position is based on association with SCEC monument COMMENT
E1F2H1D3+0011. Position of that monument is believed to be  COMMENT
valid to within 1 m horizontally; vertical accuracy         COMMENT
should be no worse than 3-times this value.                 COMMENT
                                                            COMMENT
Revised Rinex header created by UCSD GPS archive for        COMMENT
GSAC on 18-Sep-2001 (2001:261) 21:03:13 GMT                 COMMENT
For assistance contact dagnew@ucsd.edu                      COMMENT
or anderson@python.ucsd.edu                                 COMMENT
                                                            COMMENT
DEC STA SARGEANT                                            MARKER NAME
____0001                                                    MARKER NUMBER
-Unknown- 11TH ARTILLERY US MARINE CORPS                    OBSERVER / AGENCY
16477 TRIMBLE MSGR NP 7.57; SP 3.53                         REC # / TYPE / VERS
S/N UNKNOWN TR 4000SST L1/L2 GEO                            ANT # / TYPE
 -2326216.6240 -4733447.6797  3575575.5378                  APPROX POSITION XYZ
        1.3410        0.0000        0.0000                  ANTENNA: DELTA H/E/N
     1     1     0                                          WAVELENGTH FACT L1/2
     6    L1    L2    P1    P2    S1    S2                  # / TYPES OF OBSERV
     0                                                      INTERVAL
  1999     3     3     0    45    0.000000                  TIME OF FIRST OBS
  1999     3     3     2    45    0.000000                  TIME OF LAST OBS
                                                            END OF HEADER
 99  3  3  0 45  0.0000000  0  6G 5G 6G 8G30G10G24
   1649236.32617   1246004.85716  20711559.289    20711566.242          22.000
        21.750
   -622154.69516   -483960.50216  22759697.906    22759705.539          13.250
        14.000
   2751670.68114   2144157.46215  23616988.188    23616998.129           6.250
         7.500
   -136065.21516    -99514.42116  21023395.727    21023402.211          19.500
        21.750
    111972.36316     87252.36616  21304551.930    21304559.676          17.000
        21.750
   2185978.59716   1703360.46416  21462821.227    21462829.164          18.000
        21.000
 99  3  3  0 45 15.0000000  4  1
1.420                                                       COMMENT
 99  3  3  0 45 15.0000000  0  6G 5G 6G 8G30G10G24
   1689259.185 7   1277191.494 6  20719175.359    20719182.398          22.000
        21.750
   -634935.016 6   -493919.170 6  22757265.828    22757273.371          13.250
        14.000
   2814329.713 4   2192982.639 5  23628911.984    23628921.977           6.250
         7.500
   -136148.401 6    -99579.237 6  21023379.992    21023386.328          19.750
        21.750
    118705.069 6     92498.656 6  21305833.133    21305840.824          17.250
        21.750
   2235648.314 6   1742064.142 6  21472272.992    21472280.820          18.000
        21.000
 99  3  3  0 45 30.0000000  0  6G 5G 6G 8G30G10G24
   1729425.683 7   1308490.059 6  20726818.680    20726825.637          21.750
        21.750
   -647674.822 6   -503846.271 6  22754841.797    22754849.180          13.250
        14.250
   2877044.324 4   2241851.123 5  23640846.070    23640856.215           6.250
         7.500
   -136080.626 7    -99526.413 6  21023392.883    21023399.215          20.000
        21.500
    125615.228 6     97883.208 6  21307148.102    21307155.750          17.000
        22.000
   2285406.001 6   1780836.361 6  21481741.688    21481749.703          18.250
        21.000
 99  3  3  0 45 45.0000000  0  6G 5G 6G 8G30G10G24
   1769710.304 7   1339880.664 6  20734484.672    20734491.598          22.000
        21.750
   -660404.613 6   -513765.562 6  22752419.242    22752426.867          13.250
        14.000
   2939785.603 3   2290740.395 5  23652785.250    23652795.508           6.000
         7.500
   -135889.217 7    -99377.253 6  21023429.320    21023435.676          20.000
        21.500
    132677.516 6    103386.322 6  21308491.961    21308499.586          17.000
        22.000
   2335228.387 6   1819659.002 6  21491222.586    21491230.578          18.250
        21.000
 99  3  3  0 46  0.0000000  0  6G 5G 6G 8G30G10G24
   1810124.028 7   1371371.878 6  20742175.164    20742182.207          21.750
        22.000
   -673116.953 6   -523671.260 6  22750000.086    22750007.715          13.000
        14.000
   3002559.107 3   2339654.774 5  23664730.555    23664741.113           6.000
         7.500
   -135569.488 7    -99128.108 6  21023490.188    21023496.473          20.000
        21.250
    139900.816 6    109014.883 6  21309866.508    21309874.141          17.500
        22.000
   2385123.661 6   1858538.437 6  21500717.219    21500725.059          18.250
        21.000
 99  3  3  0 46 15.0000000  0  6G 5G 6G 8G30G10G24
   1850678.420 7   1402972.694 6  20749892.383    20749899.273          21.750
        21.750
   -685805.266 6   -533558.234 6  22747585.633    22747593.141          13.000
        14.000
   3065369.679 3   2388598.022 5  23676683.531    23676693.480           6.000
         7.500
   -135114.298 7    -98773.404 6  21023576.727    21023583.023          20.250
        21.250
    147289.345 6    114772.198 6  21311272.547    21311280.035          17.250
        21.750
   2435095.130 6   1897477.241 6  21510226.586    21510234.410          18.250
        21.000
 99  3  3  0 46 30.0000000  0  6G 5G 6G 8G30G10G24
   1891372.650 7   1434682.478 6  20757636.211    20757643.121          21.750
        21.750
   -698470.704 6   -543427.386 6  22745175.297    22745182.895          13.000
        14.000
   3128219.659 3   2437571.983 5  23688642.898    23688653.363           6.000
         7.500
   -134521.619 7    -98311.564 6  21023689.523    21023695.848          20.000
        21.250
    154841.038 6    120656.659 6  21312709.430    21312717.059          17.250
        21.750
   2485135.277 6   1936469.566 6  21519748.734    21519756.656          18.250
        21.000
 99  3  3  0 46 45.0000000  0  6G 5G 6G 8G30G10G24
   1932208.893 7   1466502.922 6  20765407.063    20765414.031          21.750
        21.750
   -711113.129 6   -553278.601 6  22742769.727    22742777.102          13.250
        14.000
   3191114.525 3   2486580.931 5  23700611.828    23700622.242           5.750
         7.500
   -133789.400 7    -97740.993 6  21023828.797    21023835.117          20.000
        21.250
    162558.021 6    126669.916 6  21314178.016    21314185.582          17.500
        21.500
   2535244.761 6   1975515.920 6  21529284.461    21529292.301          18.250
        21.000
 99  3  3  0 47  0.0000000  0  6G 5G 6G 8G30G10G24
   1973190.835 7   1498436.894 6  20773205.625    20773212.699          21.750
        21.750
   -723730.396 6   -563110.221 6  22740368.539    22740376.176          13.000
        14.000
   3254056.319 3   2535626.448 5  23712589.086    23712599.727           5.750
         7.500
   -132912.223 7    -97057.469 6  21023995.789    21024001.969          20.250
        21.250
    170442.824 6    132813.941 6  21315678.414    21315685.996          17.250
        21.750
   2585425.045 6   2014617.432 6  21538833.258    21538841.277          18.250
        21.000
 99  3  3  0 47 15.0000000  0  6G 5G 6G 8G30G10G24
   2014321.216 7   1530486.535 6  20781032.578    20781039.637          21.500
        22.000
   -736321.496 6   -572921.444 6  22737972.469    22737980.117          12.750
        14.000
   3317047.446 3   2584710.397 5  23724576.023    23724586.422           5.750
         7.750
   -131887.244 7    -96258.776 6  21024190.781    21024197.043          20.250
        21.250
    178495.021 6    139088.401 6  21317210.547    21317218.246          17.250
        21.750
   2635672.481 6   2053771.280 6  21548395.164    21548403.016          18.500
        21.000
 99  3  3  0 47 30.0000000  0  6G 5G 6G 8G30G10G24
   2055598.060 7   1562650.301 6  20788887.180    20788894.230          21.500
        22.000
   -748888.472 6   -582713.874 6  22735581.070    22735588.703          12.750
        14.000
   3380086.214 3   2633831.458 5  23736571.852    23736582.352           5.750
         7.500
   -130716.305 7    -95346.341 6  21024413.563    21024419.926          20.250
        21.250
    186711.100 6    145490.564 6  21318774.070    21318781.660          17.000
        21.750
   2685980.296 6   2092972.176 6  21557968.469    21557976.289          18.500
        21.000
 99  3  3  0 47 45.0000000  0  6G 5G 6G 8G30G10G24
   2097019.121 7   1594926.445 6  20796769.305    20796776.363          21.500
        22.000
   -761432.475 6   -592488.385 6  22733193.805    22733201.695          12.750
        14.000
   3443169.602 3   2682987.301 5  23748576.055    23748586.891           5.500
         7.750
   -129399.539 7    -94320.284 6  21024663.945    21024670.215          20.250
        21.000
    195087.806 6    152017.886 6  21320367.984    21320375.535          17.250
        21.500
   2736343.483 6   2132216.217 6  21567552.398    21567560.273          18.500
        21.250
 99  3  3  0 48  0.0000000  0  6G 5G 6G 8G30G10G24
   2138579.948 7   1627311.502 6  20804678.125    20804685.133          21.500
        21.750
   -773956.684 6   -602247.485 6  22730810.555    22730818.195          12.750
        14.000
   3506296.090 3   2732176.728 5  23760588.500    23760599.203           5.500
         7.750
   -127939.904 7    -93182.890 6  21024941.719    21024947.965          20.000
        21.000
    203620.272 6    158666.588 6  21321991.742    21321999.332          17.500
        21.500
   2786754.713 6   2171497.696 6  21577145.313    21577153.215          18.750
        21.250
 99  3  3  0 48 15.0000000  0  6G 5G 6G 8G30G10G24
   2180282.382 7   1659806.902 6  20812613.977    20812620.953          21.500
        22.000
   -786456.326 6   -611987.433 6  22728431.828    22728439.605          12.500
        14.000
   3569468.445 3   2781401.893 5  23772610.047    23772620.828           5.500
         7.500
   -126332.907 7    -91930.668 6  21025247.461    21025253.703          20.000
        21.000
    212310.826 6    165438.467 6  21323645.500    21323653.020          17.500
        21.500
   2837212.704 6   2210815.605 6  21586747.063    21586754.977          18.750
        21.250
 99  3  3  0 48 30.0000000  0  6G 5G 6G 8G30G10G24
   2222121.256 7   1692408.616 6  20820575.641    20820582.699          21.500
        22.000
   -798932.124 6   -621708.812 6  22726057.719    22726065.547          12.500
        14.000
   3632685.067 3   2830661.552 5  23784639.844    23784650.383           5.500
         7.750
   -124578.916 7    -90563.911 6  21025581.469    21025587.691          20.000
        21.000
    221159.864 6    172333.846 6  21325329.352    21325336.859          17.500
        21.250
   2887717.452 6   2250169.953 6  21596357.859    21596365.777          18.750
        21.250
 99  3  3  0 48 45.0000000  0  6G 5G 6G 8G30G10G24
   2264093.552 7   1725114.300 6  20828562.688    20828569.727          21.500
        22.000
   -811382.410 6   -631410.309 6  22723688.609    22723696.340          12.750
        14.000
   3695947.321 3   2879956.769 5  23796678.422    23796688.945           5.250
         7.500
   -122681.598 7    -89085.473 6  21025942.547    21025948.797          20.000
        20.750
    230169.660 6    179354.483 6  21327043.969    21327051.340          17.500
        21.250
   2938274.505 6   2289565.053 6  21605978.641    21605986.559          18.750
        21.250
 99  3  3  0 49  0.0000000  0  6G 5G 6G 8G30G10G24
   2306195.634 7   1757921.116 6  20836574.508    20836581.504          21.250
        21.750
   -823810.540 6   -641094.534 6  22721323.570    22721331.293          12.750
        13.750
   3759247.660 3   2929281.665 5  23808724.063    23808734.629           5.250
         7.500
   -120646.710 7    -87499.829 6  21026329.688    21026335.875          20.000
        20.750
    239334.538 6    186495.973 6  21328787.797    21328795.242          17.500
        21.250
   2988879.825 6   2328997.771 6  21615608.539    21615616.289          19.250
        21.250
 99  3  3  0 49 15.0000000  0  6G 5G 6G 8G30G10G24
   2348432.572 7   1790833.008 6  20844611.703    20844618.715          21.250
        22.000
   -836212.658 6   -650758.503 6  22718963.508    22718971.098          12.750
        13.750
   3822590.435 3   2978639.612 5  23820777.711    23820788.270           5.000
         7.750
   -118468.500 7    -85802.509 6  21026744.188    21026750.383          20.000
        20.750
    248659.840 6    193762.456 6  21330562.453    21330569.852          17.500
        21.000
   3039536.831 6   2368470.758 6  21625248.266    21625256.016          19.250
        21.250
 99  3  3  0 49 30.0000000  0  6G 5G 6G 8G30G10G24
   2390802.903 7   1823848.848 6  20852674.547    20852681.621          21.250
        21.750
   -848594.190 6   -660406.414 6  22716607.320    22716615.035          12.750
        13.750
   3885972.827 3   3028028.445 5  23832839.016    23832849.672           5.000
         7.750
   -116150.133 7    -83995.976 6  21027185.359    21027191.629          20.000
        21.000
    258141.313 6    201150.643 6  21332366.539    21332373.961          17.250
        21.000
   3090244.131 6   2407982.939 6  21634897.492    21634905.211          19.250
        21.000
 99  3  3  0 49 45.0000000  0  6G 5G 6G 8G30G10G24
   2433309.141 7   1856970.587 6  20860763.258    20860770.297          21.250
        22.000
   -860954.816 6   -670038.044 6  22714255.219    22714262.793          13.000
        13.750
   3949392.989 3   3077446.710 5  23844907.469    23844918.238           5.000
         7.750
   -113689.611 7    -82078.668 6  21027653.555    21027659.840          20.000
        20.750
    267779.772 6    208661.155 6  21334200.813    21334208.180          17.500
        21.000
   3141005.281 6   2447537.083 6  21644557.117    21644565.055          18.750
        21.250
 99  3  3  0 50  0.0000000  0  6G 5G 6G 8G30G10G24
   2475952.643 7   1890199.279 6  20868878.125    20868885.156          21.000
        22.000
   -873299.013 6   -679656.878 6  22711906.133    22711913.688          13.000
        13.500
   4012848.150 2   3126892.235 5  23856982.805    23856993.367           4.750
         7.500
   -111089.352 7    -80052.477 6  21028148.336    21028154.621          20.000
        20.500
    277573.284 6    216292.482 6  21336064.352    21336071.816          17.250
        21.000
   3191820.947 6   2487133.704 6  21654226.953    21654234.680          18.750
        21.000
 99  3  3  0 50 15.0000000  0  6G 5G 6G 8G30G10G24
   2518735.571 7   1923536.621 6  20877019.422    20877026.484          21.000
        22.000
   -885626.396 6   -689262.603 6  22709560.328    22709567.902          13.000
        13.500
   4076338.816 2   3176365.438 5  23869064.516    23869075.281           4.750
         7.500
   -108348.798 6    -77916.971 6  21028669.625    21028675.859          19.750
        20.750
    287522.779 6    224045.354 6  21337957.625    21337965.137          17.250
        21.000
   3242692.383 6   2526773.783 6  21663907.461    21663915.230          18.750
        21.000
 99  3  3  0 50 30.0000000  0  6G 5G 6G 8G30G10G24
   2561661.039 7   1956985.033 6  20885187.828    20885194.984          21.000
        22.250
   -897932.678 6   -698851.888 6  22707218.563    22707225.965          13.250
        13.500
   4139866.764 2   3225867.692 5  23881153.680    23881164.391           4.500
         7.500
   -105465.197 6    -75669.993 6  21029218.484    21029224.707          19.750
        20.750
    297631.031 6    231921.931 6  21339881.219    21339888.703          17.000
        21.000
   3293626.216 6   2566462.486 6  21673599.633    21673607.512          18.750
        21.000
 99  3  3  0 50 45.0010000  0  6G 5G 6G 8G30G10G24
   2604727.661 7   1990543.434 6  20893383.177    20893390.274          21.000
        22.000
   -910220.476 6   -708426.769 6  22704880.255    22704887.661          13.250
        13.500
   4203436.849 2   3275402.770 5  23893250.341    23893261.415           4.500
         7.500
   -102440.911 6    -73313.394 6  21029794.013    21029800.165          19.750
        20.500
    307893.245 6    239918.481 6  21341833.981    21341841.438          17.250
        20.500
   3344625.769 6   2606202.391 6  21683304.724    21683312.493          18.750
        20.750
 99  3  3  0 51  0.0010000  0  6G 5G 6G 8G30G10G24
   2647933.969 7   2024210.687 6  20901604.974    20901612.204          21.000
        22.250
   -922487.375 6   -717985.358 6  22702545.981    22702553.384          13.500
        13.500
   4267040.308 2   3324963.860 5  23905353.810    23905364.845           4.500
         7.500
    -99273.148 6    -70844.994 6  21030396.747    21030403.056          19.750
        20.500
    318306.172 6    248032.470 6  21343815.466    21343822.872          17.000
        20.500
   3395682.776 6   2645987.083 6  21693020.450    21693028.313          18.500
        20.500
 99  3  3  0 51 15.0010000  0  6G 5G 6G 8G30G10G24
   2691280.200 7   2057986.968 6  20909853.466    20909860.579          21.000
        22.250
   -934736.864 6   -727530.381 6  22700214.958    22700222.384          13.500
        13.500
   4330676.240 2   3374550.244 5  23917463.466    23917474.313           4.500
         7.250
    -95960.587 6    -68263.766 6  21031027.231    21031033.403          19.750
        20.500
    328869.247 6    256263.457 6  21345825.489    21345832.903          17.250
        20.500
   3446796.591 6   2685816.027 6  21702747.146    21702754.935          18.500
        20.500
 99  3  3  0 51 30.0010000  0  6G 5G 6G 8G30G10G24
   2734765.012 7   2091871.224 6  20918128.372    20918135.509          21.000
        22.000
   -946966.653 6   -737060.071 6  22697887.677    22697895.153          13.500
        13.500
   4394345.233 2   3424162.405 5  23929579.591    23929590.192           4.500
         7.250
    -92502.570 6    -65569.189 6  21031685.099    21031691.353          19.750
        20.500
    339580.833 6    264610.163 6  21347863.771    21347871.228          17.000
        20.750
   3497969.901 6   2725691.327 6  21712485.083    21712492.954          18.500
        20.250
 99  3  3  0 51 45.0010000  0  6G 5G 6G 8G30G10G24
   2778387.854 7   2125863.049 6  20926429.513    20926436.646          21.000
        22.250
   -959172.698 6   -746571.253 6  22695564.935    22695572.396          13.750
        13.750
   4458047.332 2   3473800.348 5  23941701.271    23941712.368           4.250
         7.250
    -88899.695 6    -62761.743 6  21032370.716    21032376.993          19.500
        20.750
    350440.684 6    273072.406 6  21349930.388    21349937.778          17.000
        20.500
   3549201.726 6   2765612.230 6  21722234.153    21722241.962          18.250
        20.250
 99  3  3  0 52  0.0010000  0  6G 5G 6G 8G30G10G24
   2822147.270 7   2159961.290 6  20934756.763    20934763.845          21.000
        22.250
   -971350.939 6   -756060.759 6  22693247.489    22693254.860          13.750
        13.750
   4521784.897 2   3523465.944 5  23953830.247    23953841.188           4.250
         7.000
    -85150.791 6    -59840.512 6  21033084.224    21033090.403          19.500
        20.500
    361452.232 6    281652.847 6  21352025.692    21352033.239          16.750
        20.500
   3600492.299 6   2805578.910 6  21731994.411    21732002.110          18.500
        20.000
 99  3  3  0 52 15.0010000  0  6G 5G 6G 8G30G10G24
   2866034.908 7   2194159.446 6  20943108.294    20943115.446          21.000
        22.250
   -983505.309 6   -765531.682 6  22690934.575    22690941.915          13.500
        14.000
   4585556.902 2   3573158.355 5  23965965.864    23965976.360           4.250
         6.750
    -81261.046 6    -56809.526 6  21033824.341    21033830.638          19.500
        20.750
    372613.619 6    290350.052 6  21354149.606    21354157.005          16.750
        20.500
   3651838.481 6   2845588.923 6  21741765.161    21741772.931          18.000
        19.750
 99  3  3  0 52 30.0010000  0  6G 5G 6G 8G30G10G24
   2910050.916 7   2228457.630 6  20951484.247    20951491.423          20.750
        22.250
   -995629.985 6   -774979.446 6  22688627.208    22688634.614          14.000
        14.250
   4649365.632 2   3622879.414 5  23978108.474    23978119.134           4.250
         6.750
    -77225.094 6    -53664.614 6  21034592.325    21034598.560          19.500
        21.000
    383929.214 6    299167.417 6  21356302.927    21356310.384          16.750
        20.500
   3703243.013 6   2885644.401 6  21751547.146    21751554.841          18.000
        19.750
 99  3  3  0 52 45.0010000  0  6G 5G 6G 8G30G10G24
   2954190.138 7   2262851.821 6  20959883.778    20959890.845          21.000
        22.250
  -1007728.743 6   -784407.030 6  22686324.872    22686332.376          14.000
        14.500
   4713204.996 2   3672624.317 5  23990256.481    23990267.192           4.250
         6.750
    -73045.369 6    -50407.678 6  21035387.661    21035393.997          19.500
        20.750
    395395.778 6    308102.417 6  21358484.888    21358492.489          16.500
        20.500
   3754700.222 6   2925740.927 6  21761339.146    21761347.032          18.000
        19.750
 99  3  3  0 53  0.0010000  0  6G 5G 6G 8G30G10G24
   2998454.177 7   2297343.277 6  20968306.856    20968314.095          21.000
        22.500
  -1019803.234 6   -793815.700 6  22684027.114    22684034.665          14.000
        14.500
   4777073.253 2   3722391.752 5  24002410.067    24002421.028           4.000
         6.750
    -68718.626 6    -47036.178 6  21036211.044    21036217.317          19.500
        20.750
    407016.806 6    317157.781 6  21360696.286    21360703.806          16.500
        20.500
   3806207.356 6   2965876.359 6  21771140.442    21771148.274          18.000
        19.750
 99  3  3  0 53 15.0010000  0  6G 5G 6G 8G30G10G24
   3042846.125 7   2331934.406 6  20976754.349    20976761.563          21.000
        22.500
  -1031851.858 6   -803204.206 6  22681734.333    22681741.864          14.000
        14.750
   4840969.419 2   3772180.914 5  24014569.177    24014580.192           4.250
         6.500
    -64241.750 6    -43547.691 6  21037062.942    21037069.153          19.250
        20.750
    418799.459 6    326339.091 6  21362938.302    21362945.915          16.500
        20.500
   3857766.266 6   3006052.136 6  21780951.747    21780959.540          17.750
        19.500
 99  3  3  0 53 30.0010000  0  6G 5G 6G 8G30G10G24
   3087363.096 7   2366622.946 6  20985225.661    20985232.833          21.000
        22.250
  -1043874.463 6   -812572.452 6  22679446.411    22679454.048          14.000
        15.000
   4904895.048 2   3821993.047 5  24026733.919    24026744.966           4.250
         6.500
    -59615.352 6    -39942.701 6  21037943.356    21037949.536          19.500
        20.750
    430744.181 6    335646.680 6  21365211.403    21365218.989          16.500
        20.250
   3909376.860 6   3046268.182 6  21790772.966    21790780.720          17.750
        19.250
 99  3  3  0 53 45.0010000  0  6G 5G 6G 8G30G10G24
   3132006.936 7   2401410.351 6  20993721.122    20993728.282          21.000
        22.500
  -1055870.663 6   -821920.111 6  22677163.653    22677171.204          14.000
        15.000
   4968851.303 2   3871829.034 5  24038904.622    24038915.415           4.250
         6.250
    -54839.215 6    -36221.019 6  21038852.216    21038858.431          19.250
        21.000
    442851.177 6    345080.727 6  21367515.263    21367522.938          16.500
        20.500
   3961036.992 6   3086522.835 6  21800603.481    21800611.321          17.500
        19.250
 99  3  3  0 54  0.0010000  0  6G 5G 6G 8G30G10G24
   3176777.612 7   2436296.588 6  21002240.747    21002247.778          21.000
        22.500
  -1067842.952 6   -831249.143 6  22674885.442    22674893.056          14.000
        15.250
   5032836.563 2   3921687.623 5  24051080.966    24051091.204           4.250
         6.250
    -49915.388 6    -32384.257 6  21039789.075    21039795.399          19.500
        21.000
    455122.349 6    354642.694 6  21369850.255    21369857.872          16.500
        20.500
   4012744.163 6   3126814.136 6  21810443.067    21810450.825          17.500
        19.250
 99  3  3  0 54 15.0010000  0  6G 5G 6G 8G30G10G24
   3221673.784 7   2471280.615 6  21010784.286    21010791.384          21.000
        22.500
  -1079793.245 6   -840561.040 6  22672611.521    22672619.126          14.000
        15.500
   5096847.514 2   3971566.246 5  24063261.286    24063272.329           4.000
         6.250
    -44845.493 6    -28433.688 6  21040753.888    21040760.181          19.250
        21.000
    467555.803 6    364331.122 6  21372216.388    21372223.981          16.500
        20.500
   4064500.295 6   3167143.590 6  21820292.013    21820299.884          17.500
        19.250
 99  3  3  0 54 30.0010000  0  6G 5G 6G 8G30G10G24
   3266697.958 7   2506364.385 6  21019352.091    21019359.196          21.000
        22.750
  -1091721.503 6   -849855.762 6  22670341.536    22670349.259          14.000
        15.750
   5160881.477 2   4021462.782 5  24075446.974    24075457.958           4.000
         6.000
    -39628.996 6    -24368.874 6  21041746.638    21041752.888          19.250
        21.250
    480149.388 6    374144.326 6  21374612.724    21374620.384          16.500
        20.500
   4116303.741 6   3207509.916 6  21830149.950    21830157.735          17.500
        19.250
 99  3  3  0 54 45.0010000  0  6G 5G 6G 8G30G10G24
   3311859.316 7   2541555.054 6  21027945.927    21027953.021          21.000
        22.750
  -1103622.534 6   -859129.268 6  22668076.825    22668084.622          14.000
        15.750
   5224939.102 2   4071377.757 5  24087636.724    24087647.563           4.000
         6.000
    -34260.341 6    -20185.499 6  21042768.208    21042774.450          19.250
        21.250
    492906.519 6    384084.963 6  21377040.364    21377048.024          16.500
        20.500
   4168156.125 6   3247914.369 6  21840017.060    21840024.802          17.500
        19.250
 99  3  3  0 55  0.0010000  0  6G 5G 6G 8G30G10G24
   3357153.848 7   2576849.493 6  21036565.286    21036572.353          21.250
        22.750
  -1115502.164 6   -868386.102 6  22665816.333    22665823.942          14.000
        15.750
   5289017.237 2   4121308.712 5  24099830.372    24099841.165           4.250
         6.000
    -28743.016 6    -15886.275 6  21043818.052    21043824.329          19.250
        21.000
    505824.031 6    394150.581 6  21379498.505    21379506.134          16.500
        20.500
   4220054.044 6   3288354.307 6  21849892.919    21849900.567          17.500
        19.250
 99  3  3  0 55 15.0010000  0  6G 5G 6G 8G30G10G24
   3402578.854 7   2612245.600 6  21045209.255    21045216.368          21.000
        22.750
  -1127360.876 6   -877626.628 6  22663559.442    22663567.267          14.000
        16.000
   5353114.704 2   4171254.744 5  24112027.810    24112038.356           4.250
         5.750
    -23081.670 6    -11474.825 6  21044895.356    21044901.665          19.250
        21.000
    518901.007 6    404340.452 6  21381986.989    21381994.673          16.500
        20.500
   4271999.229 6   3328831.073 6  21859777.685    21859785.466          17.250
        19.000
 99  3  3  0 55 30.0010000  0  6G 5G 6G 8G30G10G24
   3448137.941 7   2647746.182 6  21053878.817    21053886.048          21.000
        22.750
  -1139195.066 6   -886848.056 6  22661307.661    22661315.446          14.000
        16.250
   5417235.826 2   4221219.210 5  24124229.583    24124240.290           4.250
         5.500
    -17274.900 6     -6950.065 6  21046000.310    21046006.614          19.000
        21.250
    532138.644 6    414655.515 6  21384505.997    21384513.630          16.500
        20.500
   4323994.728 6   3369347.045 6  21869672.239    21869680.021          17.250
        19.000
 99  3  3  0 55 45.0010000  0  6G 5G 6G 8G30G10G24
   3493832.578 7   2683352.391 6  21062574.310    21062581.466          21.250
        22.750
  -1151005.356 6   -896050.854 6  22659060.177    22659067.825          14.000
        16.250
   5481380.471 2   4271201.989 5  24136436.083    24136446.579           4.250
         5.500
    -11324.138 6     -2313.096 6  21047132.513    21047138.931          18.750
        21.250
    545534.528 6    425093.888 6  21387055.114    21387062.712          16.500
        20.500
   4376038.808 6   3409900.874 6  21879575.841    21879583.653          17.000
        18.750
 99  3  3  0 56  0.0010000  0  6G 5G 6G 8G30G10G24
   3539668.076 7   2719068.360 6  21071296.458    21071303.560          21.250
        22.750
  -1162789.357 6   -905233.163 6  22656817.724    22656825.513          14.250
        16.250
   5545552.820 2   4321206.364 5  24148647.747    24148658.231           4.250
         5.500
     -5226.418 6      2438.384 6  21048292.974    21048299.411          18.750
        21.250
    559092.952 6    435658.916 6  21389635.278    21389642.794          16.750
        20.500
   4428137.260 6   3450497.074 6  21889489.817    21889497.583          17.250
        18.750
 99  3  3  0 56 15.0010000  0  6G 5G 6G 8G30G10G24
   3585636.426 7   2754887.852 6  21080043.919    21080051.106          21.000
        22.750
  -1174553.970 6   -914400.378 6  22654578.919    22654586.649          14.250
        16.250
   5609745.745 2   4371226.766 5  24160863.646    24160873.954           4.250
         5.500
      1013.770 6      7300.878 6  21049480.489    21049486.856          18.750
        21.250
    572808.147 6    446346.103 6  21392245.146    21392252.712          16.750
        20.500
   4480287.369 6   3491133.520 6  21899413.739    21899421.427          17.250
        18.750
 99  3  3  0 56 30.0010000  0  6G 5G 6G 8G30G10G24
   3631738.609 7   2790811.626 6  21088816.856    21088824.063          21.000
        23.000
  -1186298.284 6   -923551.766 6  22652344.036    22652351.622          14.250
        16.250
   5673962.521 2   4421265.758 5  24173083.349    24173094.165           4.500
         5.500
      7398.688 6     12276.149 6  21050695.528    21050701.923          18.750
        21.250
    586682.028 6    457156.940 6  21394885.247    21394892.798          16.750
        20.750
   4532490.156 6   3531811.019 6  21909347.481    21909355.271          17.250
        18.500
 99  3  3  0 56 45.0010000  0  6G 5G 6G 8G30G10G24
   3677974.670 7   2826839.724 6  21097615.403    21097622.536          21.000
        23.000
  -1198024.438 6   -932689.006 6  22650112.489    22650120.063          14.250
        16.250
   5738201.826 2   4471322.321 5  24185307.888    24185318.497           4.500
         5.500
     13929.087 6     17364.784 6  21051938.146    21051944.540          18.750
        21.250
    600717.558 6    468093.745 6  21397556.130    21397563.743          16.750
        20.750
   4584742.805 6   3572527.372 6  21919290.927    21919298.599          17.000
        18.500
 99  3  3  0 57  0.0010000  0  6G 5G 6G 8G30G10G24
   3724339.344 7   2862968.039 6  21106438.411    21106445.536          21.000
        23.000
  -1209733.397 6   -941812.853 6  22647884.474    22647892.142          14.250
        16.250
   5802462.662 2   4521395.636 5  24197535.802    24197546.786           4.500
         5.500
     20602.815 6     22565.098 6  21053208.130    21053214.466          18.750
        21.500
    614914.224 6    479156.098 6  21400257.747    21400265.294          17.000
        20.750
   4637046.459 6   3613283.462 6  21929243.966    21929251.724          17.250
        18.500
 99  3  3  0 57 15.0010000  0  6G 5G 6G 8G30G10G24
   3770829.355 7   2899194.015 6  21115285.091    21115292.271          21.000
        23.000
  -1221425.697 6   -950923.705 6  22645659.435    22645667.056          14.250
        16.000
   5866746.035 2   4571486.522 5  24209768.794    24209779.454           4.500
         5.500
     27416.060 6     27874.129 6  21054504.677    21054510.919          18.750
        21.500
    629270.705 6    490342.988 6  21402989.450    21402997.032          17.000
        21.000
   4689401.511 6   3654079.596 6  21939206.786    21939214.618          17.000
        18.250
 99  3  3  0 57 30.0010000  0  6G 5G 6G 8G30G10G24
   3817443.024 7   2935516.354 6  21124155.325    21124162.657          20.500
        23.000
  -1233104.221 6   -960023.831 6  22643436.966    22643444.478          14.250
        16.250
   5931049.634 2   4621593.168 5  24222005.833    24222016.138           4.500
         5.500
     34364.475 6     33288.484 6  21055826.919    21055833.196          18.750
        21.500
    643782.128 6    501650.607 6  21405750.935    21405758.505          17.250
        21.000
   4741803.329 6   3694912.188 6  21949178.575    21949186.380          17.250
        18.500
 99  3  3  0 57 45.0010000  0  6G 5G 6G 8G30G10G24
   3864186.602 7   2971939.917 6  21133050.411    21133057.567          21.000
        23.000
  -1244763.446 6   -969108.927 6  22641218.411    22641225.856          14.250
        16.000
   5995379.964 2   4671720.637 5  24234247.497    24234258.048           4.500
         5.250
     41456.575 6     38814.809 6  21057176.356    21057182.696          19.000
        21.500
    658451.168 6    513081.047 6  21408542.450    21408549.884          17.500
        20.750
   4794254.816 6   3735783.468 6  21959159.810    21959167.626          17.250
        18.500
 99  3  3  0 58  0.0010000  0  6G 5G 6G 8G30G10G24
   3911056.672 7   3008462.050 6  21141969.505    21141976.786          20.500
        23.000
  -1256405.179 6   -978180.378 6  22639003.106    22639010.575          14.250
        16.000
   6059733.718 2   4721866.369 5  24246493.919    24246504.165           4.500
         5.500
     48688.898 6     44450.400 6  21058552.692    21058559.052          18.750
        21.500
    673274.327 6    524631.586 6  21411363.263    21411370.692          17.750
        21.000
   4846752.321 6   3776690.614 6  21969149.903    21969157.622          17.500
        18.250
 99  3  3  0 58 15.0010000  0  6G 5G 6G 8G30G10G24
   3958053.283 7   3045082.784 6  21150912.474    21150919.743          20.750
        23.000
  -1268025.850 6   -987235.430 6  22636791.677    22636799.181          14.500
        16.000
   6124111.837 2   4772031.090 5  24258744.278    24258754.817           4.500
         5.250
     56065.843 6     50198.671 6  21059956.544    21059962.806          18.750
        21.500
    688252.726 6    536303.086 6  21414213.614    21414221.052          17.750
        21.250
   4899298.357 6   3817635.577 6  21979148.942    21979156.673          17.250
        18.250
 99  3  3  0 58 30.0010000  0  6G 5G 6G 8G30G10G24
   4005178.547 7   3081803.761 6  21159880.138    21159887.345          20.750
        23.000
  -1279622.447 6   -996271.713 6  22634584.700    22634592.360          14.500
        16.000
   6188512.721 2   4822213.525 5  24270999.630    24271010.099           4.500
         5.000
     63587.720 6     56059.890 6  21061387.911    21061394.231          19.000
        21.500
    703389.374 6    548097.890 6  21417093.958    21417101.360          17.750
        21.250
   4951890.155 6   3858616.193 6  21989156.739    21989164.415          17.500
        18.250
 99  3  3  0 58 45.0010000  0  6G 5G 6G 8G30G10G24
   4052435.522 7   3118627.375 6  21168872.817    21168880.071          20.750
        23.000
  -1291196.317 6  -1005290.291 6  22632382.489    22632390.005          14.500
        16.000
   6252933.627 2   4872411.591 5  24283258.271    24283268.583           4.500
         5.000
     71253.607 6     62033.316 6  21062846.716    21062852.899          19.000
        21.750
    718682.918 6    560014.961 6  21420004.083    21420011.587          18.000
        21.250
   5004524.313 6   3899629.821 6  21999172.739    21999180.333          17.750
        18.250
 99  3  3  0 59  0.0010000  0  6G 5G 6G 8G30G10G24
   4099820.919 7   3155551.057 6  21177889.974    21177897.200          20.500
        23.000
  -1302747.214 6  -1014290.963 6  22630184.403    22630191.888          14.500
        16.000
   6317372.197 2   4922623.400 5  24295520.966    24295531.563           4.500
         5.000
     79062.965 6     68118.539 6  21064332.716    21064338.853          19.250
        21.750
    734129.025 6    572050.901 6  21422943.341    21422950.829          18.000
        21.250
   5057199.713 6   3940675.582 6  22009196.552    22009204.138          17.750
        18.250
 99  3  3  0 59 15.0010000  0  6G 5G 6G 8G30G10G24
   4147334.293 7   3192574.468 6  21186931.505    21186938.677          21.000
        22.750
  -1314275.260 6  -1023273.832 6  22627990.653    22627998.196          14.500
        16.250
   6381832.435 2   4972852.107 5  24307787.146    24307797.712           4.500
         5.000
     87015.735 6     74315.517 6  21065846.138    21065852.368          19.250
        21.500
    749725.980 6    584204.394 6  21425911.505    21425918.915          17.750
        21.250
   5109917.181 6   3981754.118 6  22019228.364    22019235.985          17.750
        18.250
 99  3  3  0 59 30.0010000  0  6G 5G 6G 8G30G10G24
   4194978.512 7   3229699.827 6  21195997.958    21196005.169          20.500
        22.750
  -1325781.102 6  -1032239.397 6  22625800.989    22625808.649          14.500
        16.000
   6446314.003 2   5023097.420 5  24320057.521    24320068.298           4.250
         5.000
     95113.301 6     80625.319 6  21067387.028    21067393.247          19.000
        21.500
    765474.733 6    596476.173 6  21428908.427    21428915.802          18.000
        21.250
   5162675.308 6   4022864.345 6  22029267.810    22029275.423          17.750
        18.000
 99  3  3  0 59 45.0010000  0  6G 5G 6G 8G30G10G24
   4242755.582 7   3266928.715 6  21205089.583    21205096.798          20.500
        22.750
  -1337262.627 6  -1041186.023 6  22623616.099    22623623.685          14.750
        16.000
   6510816.744 2   5073359.249 5  24332332.122    24332342.321           4.500
         5.000
    103360.121 6     87051.420 6  21068956.341    21068962.595          19.000
        21.750
    781377.693 6    608868.106 6  21431934.622    21431942.028          18.250
        21.500
   5215475.246 6   4064007.146 6  22039315.505    22039323.122          17.750
        18.250
 99  3  3  1  0  0.0010000  0  6G 5G 6G 8G30G10G24
   4290663.328 7   3304259.422 6  21214205.989    21214213.298          20.250
        22.750
  -1348721.742 6  -1050115.173 6  22621435.442    22621443.009          14.500
        16.000
   6575335.101 2   5123633.224 5  24344609.950    24344620.228           4.250
         4.750
    111754.047 6     93592.155 6  21070553.646    21070559.923          19.000
        21.750
    797434.792 6    621380.154 6  21434990.224    21434997.661          18.250
        21.250
   5268316.312 6   4105182.001 6  22049371.013    22049378.513          18.000
        18.000
 99  3  3  1  0 15.0010000  0  6G 5G 6G 8G30G10G24
   4338701.206 7   3341691.532 6  21223347.521    21223354.755          20.500
        22.750
  -1360155.063 6  -1059024.234 6  22619259.802    22619267.368          14.750
        16.000
   6639869.102 2   5173919.407 5  24356890.419    24356900.317           4.250
         4.750
    120299.020 6    100250.587 6  21072179.755    21072185.938          19.250
        21.500
    813653.249 6    634017.929 6  21438076.403    21438083.696          18.500
        21.250
   5321206.062 6   4146394.781 6  22059435.622    22059443.208          17.750
        18.250
 99  3  3  1  0 30.0010000  0  6G 5G 6G 8G30G10G24
   4386864.949 7   3379221.719 6  21232512.685    21232519.915          20.500
        22.750
  -1371566.560 6  -1067916.283 6  22617088.372    22617095.778          14.750
        16.000
   6704414.803 2   5224214.695 5  24369173.099    24369183.462           4.250
         4.750
    128992.222 6    107024.523 6  21073834.028    21073840.157          19.250
        21.500
    830031.735 6    646780.402 6  21441193.224    21441200.544          18.500
        21.250
   5374142.338 6   4187643.825 6  22069508.997    22069516.595          17.750
        18.000
 99  3  3  1  0 45.0010000  0  6G 5G 6G 8G30G10G24
   4435155.672 7   3416850.852 6  21241702.146    21241709.282          20.500
        22.750
  -1382953.270 6  -1076789.020 6  22614921.489    22614928.935          14.750
        16.000
   6768974.925 2   5274521.242 5  24381458.536    24381468.521           4.250
         4.750
    137834.919 6    113914.937 6  21075516.685    21075522.903          19.000
        21.500
    846572.205 6    659669.094 6  21444340.950    21444348.052          19.250
        21.500
   5427127.676 6   4228931.096 6  22079591.802    22079599.419          17.750
        17.750
 99  3  3  1  1  0.0010000  0  6G 5G 6G 8G30G10G24
   4483568.980 7   3454575.506 6  21250914.786    21250922.056          20.500
        22.750
  -1394314.851 6  -1085642.172 6  22612759.380    22612766.802          15.000
        15.750
   6833552.083 2   5324841.058 5  24393747.216    24393757.450           4.250
         4.750
    146828.807 6    120923.178 6  21077228.013    21077234.157          19.000
        21.500
    863272.822 6    672682.580 6  21447518.700    21447525.981          19.000
        21.750
   5480165.398 6   4270259.177 6  22089684.364    22089691.892          17.750
        18.000
 99  3  3  1  1 15.0010000  0  6G 5G 6G 8G30G10G24
   4532099.191 7   3492391.245 6  21260149.935    21260157.185          20.250
        22.750
  -1405651.913 6  -1094476.223 6  22610601.919    22610609.403          15.000
        15.750
   6898144.147 2   5375172.490 5  24406038.825    24406049.091           4.250
         4.750
    155969.839 6    128046.071 6  21078967.614    21078973.735          19.000
        21.500
    880133.225 6    685820.572 6  21450727.239    21450734.384          19.250
        21.500
   5533251.821 6   4311625.213 6  22099786.497    22099794.083          17.500
        18.000
 99  3  3  1  1 30.0010000  0  6G 5G 6G 8G30G10G24
   4580754.602 7   3530304.557 6  21269408.638    21269415.896          20.500
        22.750
  -1416959.073 6  -1103286.971 6  22608450.239    22608457.653          15.250
        15.750
   6962754.966 2   5425518.508 5  24418333.692    24418343.813           4.000
         4.750
    165265.624 6    135289.544 6  21080736.513    21080742.610          19.000
        21.500
    897161.190 6    699089.135 6  21453967.505    21453974.696          19.000
        21.500
   5586390.715 6   4353032.137 6  22109898.505    22109906.052          17.500
        18.000
 99  3  3  1  1 45.0010000  0  6G 5G 6G 8G30G10G24
   4629529.559 7   3568311.009 6  21278690.255    21278697.450          20.500
        22.750
  -1428239.172 6  -1112076.636 6  22606303.739    22606311.173          15.000
        15.750
   7027374.634 2   5475871.434 5  24430630.341    24430640.978           4.000
         4.750
    174713.626 6    142651.640 6  21082534.380    21082540.489          19.000
        21.250
    914351.378 6    712484.102 6  21457238.708    21457245.813          19.000
        21.500
   5639575.936 6   4394475.163 6  22120019.247    22120026.860          17.500
        17.750
 99  3  3  1  2  0.0010000  0  6G 5G 6G 8G30G10G24
   4678429.506 7   3606414.867 6  21287995.591    21288002.813          20.500
        22.250
  -1439483.499 6  -1120838.420 6  22604164.036    22604171.392          15.250
        15.750
   7092009.207 2   5526235.979 5  24442930.216    24442940.267           4.000
         4.750
    184322.774 6    150139.301 6  21084362.903    21084369.099          19.000
        21.250
    931708.183 6    726008.905 6  21460541.685    21460548.853          19.250
        21.500
   5692812.803 6   4435958.431 6  22130149.981    22130157.599          17.500
        17.750
 99  3  3  1  2 15.0010000  0  6G 5G 6G 8G30G10G24
   4727446.054 7   3644609.575 6  21297323.130    21297330.286          20.500
        22.500
  -1450696.994 6  -1129576.188 6  22602030.224    22602037.474          15.500
        15.750
   7156653.854 2   5576608.371 5  24455231.231    24455242.040           3.750
         5.000
    194087.637 6    157748.291 6  21086221.091    21086227.208          19.250
        21.250
    949224.675 6    739658.130 6  21463874.919    21463882.099          19.000
        21.500
   5746094.584 6   4477476.702 6  22140289.185    22140296.771          17.500
        17.750
 99  3  3  1  2 30.0010000  0  6G 5G 6G 8G30G10G24
   4776582.092 7   3682897.399 6  21306673.411    21306680.579          20.500
        22.250
  -1461878.666 6  -1138289.149 6  22599902.317    22599909.677          15.500
        15.500
   7221313.304 2   5626992.309 5  24467535.653    24467546.063           4.000
         4.750
    204008.566 6    165478.894 6  21088109.083    21088115.153          19.250
        21.250
    966900.656 6    753431.640 6  21467238.489    21467245.688          18.750
        21.750
   5799418.943 6   4519028.136 6  22150436.317    22150443.864          17.500
        17.750
 99  3  3  1  2 45.0010000  0  6G 5G 6G 8G30G10G24
   4825843.560 7   3721282.958 6  21316047.560    21316054.688          20.500
        22.250
  -1473028.263 6  -1146977.125 6  22597780.692    22597788.060          15.250
        15.500
   7285992.032 2   5677391.260 5  24479844.161    24479854.356           3.750
         4.750
    214084.128 6    173329.994 6  21090026.325    21090032.513          19.250
        21.250
    984736.099 6    767329.405 6  21470632.349    21470639.532          18.750
        21.750
   5852783.896 6   4560611.210 6  22160591.380    22160598.954          17.250
        17.750
 99  3  3  1  3  0.0010000  0  6G 5G 6G 8G30G10G24
   4875227.432 7   3759763.899 6  21325445.067    21325452.208          20.750
        22.250
  -1484148.384 6  -1155642.125 6  22595664.552    22595671.872          15.500
        15.750
   7350689.231 2   5727804.602 5  24492155.208    24492165.778           3.750
         4.750
    224312.987 6    181300.545 6  21091972.716    21091978.849          19.250
        21.250
   1002729.274 6    781350.077 6  21474056.396    21474063.493          19.000
        21.500
   5906185.459 6   4602222.810 6  22170753.442    22170760.985          17.250
        17.750
 99  3  3  1  3 15.0010000  0  6G 5G 6G 8G30G10G24
   4924733.392 7   3798339.973 6  21334865.646    21334872.778          20.500
        22.000
  -1495242.068 6  -1164286.530 6  22593553.505    22593560.817          15.750
        15.500
   7415401.593 2   5778229.768 5  24504469.849    24504480.521           3.750
         5.000
    234694.467 6    189390.021 6  21093948.341    21093954.462          19.250
        21.250
   1020880.975 6    795494.284 6  21477510.458    21477517.696          18.750
        21.500
   5959619.107 6   4643859.422 6  22180921.271    22180928.888          17.000
        17.500
 99  3  3  1  3 30.0010000  0  6G 5G 6G 8G30G10G24
   4974360.059 7   3837010.096 6  21344309.317    21344316.474          20.500
        22.000
  -1506314.073 6  -1172914.041 6  22591446.396    22591453.731          15.750
        15.500
   7480123.871 2   5828662.647 5  24516786.153    24516796.837           3.750
         4.750
    245222.853 6    197593.965 6  21095951.935    21095958.083          19.250
        21.250
   1039186.100 6    809758.033 6  21480993.864    21481001.052          18.500
        21.500
   6013079.417 6   4685516.798 6  22191094.536    22191102.341          17.000
        17.500
 99  3  3  1  3 45.0010000  0  6G 5G 6G 8G30G10G24
   5024111.813 7   3875777.698 6  21353776.755    21353783.899          20.750
        22.000
  -1517362.198 6  -1181522.943 6  22589344.216    22589351.419          16.000
        15.250
   7544858.235 1   5879104.950 5  24529104.771    24529115.298           3.500
         4.750
    255899.826 6    205913.691 6  21097983.724    21097989.751          19.250
        21.250
   1057645.241 6    824141.789 6  21484506.497    21484513.610          18.500
        21.500
   6066571.285 6   4727198.762 6  22201273.591    22201281.419          16.750
        17.500
 99  3  3  1  4  0.0010000  0  6G 5G 6G 8G30G10G24
   5073987.292 7   3914641.706 6  21363267.856    21363274.864          20.750
        21.750
  -1528386.025 6  -1190112.915 6  22587246.325    22587253.474          15.750
        15.250
   7609606.237 1   5929557.900 5  24541425.685    24541436.478           3.500
         4.750
    266721.739 6    214346.362 6  21100042.997    21100049.122          19.250
        21.250
   1076257.944 6    838645.213 6  21488048.403    21488055.493          18.500
        21.500
   6120095.276 6   4768905.772 6  22211459.075    22211466.829          16.750
        17.500
 99  3  3  1  4 15.0010000  0  5G 5G 6G30G10G24
   5123984.934 7   3953600.904 6  21372781.966    21372788.938          20.750
        21.750
  -1539390.539 6  -1198687.834 6  22585152.239    22585159.349          16.000
        15.250
    277683.635 6    222888.108 6  21102128.802    21102134.974          19.250
        21.250
   1095024.301 6    853268.363 6  21491619.403    21491626.638          18.500
        21.500
   6173648.556 6   4810635.590 6  22221649.606    22221657.478          16.750
        17.500
 99  3  3  1  4 30.0010000  0  5G 5G 6G30G10G24
   5174104.892 7   3992655.417 6  21382319.388    21382326.489          20.500
        21.750
  -1550380.450 6  -1207251.387 6  22583060.989    22583068.056          16.000
        15.250
    288781.138 6    231535.523 6  21104240.708    21104246.845          19.250
        21.000
   1113945.268 6    868011.995 6  21495219.896    21495227.091          18.250
        21.500
   6227230.010 6   4852387.374 6  22231845.942    22231853.728          16.250
        17.250
 99  3  3  1  4 45.0010000  0  5G 5G 6G30G10G24
   5224353.264 7   4031809.994 6  21391881.388    21391888.368          20.750
        21.750
  -1561351.877 6  -1215800.519 6  22580973.083    22580980.021          16.000
        15.250
    300019.070 6    240292.367 6  21106379.169    21106385.278          19.500
        21.000
   1133028.565 6    882882.112 6  21498851.247    21498858.450          18.250
        21.500
   6280844.486 6   4894164.890 6  22242048.474    22242056.317          16.250
        17.250
 99  3  3  1  5  0.0010000  0  5G 5G 6G30G10G24
   5274726.652 7   4071061.979 6  21401467.099    21401474.118          20.750
        21.750
  -1572303.455 6  -1224334.199 6  22578889.247    22578896.192          16.000
        15.250
    311401.465 6    249161.764 6  21108545.122    21108551.204          19.250
        21.000
   1152275.839 6    897880.006 6  21502513.841    21502521.118          18.250
        21.750
   6334492.326 6   4935968.389 6  22252257.247    22252265.048          16.250
        17.250
 99  3  3  1  5 15.0010000  0  5G 5G 6G30G10G24
   5325224.833 7   4110411.213 6  21411076.591    21411083.583          20.500
        21.500
  -1583232.021 6  -1232849.941 6  22576809.606    22576816.540          16.250
        15.000
    322932.690 6    258147.146 6  21110739.481    21110745.618          19.500
        21.000
   1171690.787 6    913008.551 6  21506208.380    21506215.591          18.000
        21.500
   6388175.410 6   4977799.362 6  22262472.669    22262480.528          16.000
        17.000
 99  3  3  1  5 30.0010000  0  5G 5G 6G30G10G24
   5375849.003 7   4149858.619 6  21420710.177    21420717.126          20.500
        21.500
  -1594137.845 6  -1241347.960 6  22574734.208    22574741.271          16.000
        15.000
    334610.834 6    267247.009 6  21112961.849    21112967.860          19.500
        21.000
   1191270.119 6    928265.187 6  21509934.208    21509941.509          18.000
        21.500
   6441896.105 6   5019659.643 6  22272695.349    22272703.372          16.000
        17.000
 99  3  3  1  5 45.0010000  0  5G 5G 6G30G10G24
   5426600.520 7   4189405.252 6  21430367.896    21430374.884          20.500
        21.250
  -1605020.667 6  -1249828.056 6  22572663.255    22572670.345          16.000
        15.000
    346437.642 6    276462.713 6  21115212.411    21115218.364          19.500
        21.000
   1211013.730 6    943649.836 6  21513691.317    21513698.606          18.000
        21.500
   6495659.588 6   5061553.270 6  22282926.271    22282934.224          15.750
        17.000
 99  3  3  1  6  0.0010000  0  5G 5G 6G30G10G24
   5477479.104 7   4229050.906 6  21440049.677    21440056.681          20.500
        21.250
  -1615877.276 6  -1258287.729 6  22570597.106    22570604.040          16.000
        14.750
    358418.043 6    285798.097 6  21117492.200    21117498.200          19.500
        21.000
   1230927.111 6    959166.775 6  21517480.560    21517487.962          18.000
        21.750
   6549467.045 6   5103481.146 6  22293165.403    22293173.380          15.750
        17.000
 99  3  3  1  6 15.0010000  0  5G 5G 6G30G10G24
   5528481.988 7   4268793.407 6  21449755.192    21449762.220          20.500
        21.250
  -1626710.005 6  -1266728.800 6  22568535.622    22568542.692          16.000
        15.000
    370553.304 6    295254.153 6  21119801.278    21119807.290          19.500
        21.000
   1251010.095 6    974815.869 6  21521302.278    21521309.610          17.750
        21.750
   6603317.532 6   5145442.566 6  22303412.880    22303420.966          16.000
        16.750
 99  3  3  1  6 30.0010000  0  5G 5G 6G30G10G24
   5579605.690 7   4308630.062 6  21459483.700    21459490.833          20.500
        21.250
  -1637521.813 6  -1275153.564 6  22566478.333    22566485.208          16.000
        14.750
    382841.950 6    304829.733 6  21122139.903    21122145.892          19.750
        20.500
   1271258.986 6    990594.244 6  21525155.427    21525162.970          17.750
        21.750
   6657211.204 6   5187437.637 6  22313668.388    22313676.517          16.000
        17.000
 99  3  3  1  6 45.0010000  0  5G 5G 6G30G10G24
   5630856.093 7   4348565.440 6  21469236.224    21469243.286          20.250
        21.250
  -1648303.065 6  -1283554.523 6  22564426.771    22564433.622          16.000
        15.000
    395293.999 6    314532.638 6  21124509.380    21124515.431          19.500
        20.750
   1291681.369 6   1006507.807 6  21529041.622    21529049.103          17.750
        22.000
   6711157.818 6   5229473.954 6  22323934.216    22323942.274          16.000
        16.750
 99  3  3  1  7  0.0010000  0  5G 5G 6G30G10G24
   5682224.530 7   4388592.800 6  21479011.396    21479018.419          20.500
        21.000
  -1659058.335 6  -1291935.228 6  22562380.130    22562387.071          16.000
        15.000
    407903.555 6    324358.268 6  21126908.825    21126914.935          19.500
        20.750
   1312267.920 6   1022549.292 6  21532959.083    21532966.595          17.750
        21.750
   6765151.951 6   5271547.301 6  22334208.896    22334216.919          15.750
        16.750
 99  3  3  1  7 15.0010000  0  5G 5G 6G30G10G24
   5733709.946 7   4428711.312 6  21488808.700    21488815.841          20.500
        21.000
  -1669787.960 6  -1300295.959 6  22560338.356    22560345.212          16.000
        15.000
    420669.503 6    334305.770 6  21129338.146    21129344.196          19.500
        20.500
   1333016.056 6   1038716.686 6  21536907.403    21536914.825          17.750
        21.750
   6819195.422 6   5313659.098 6  22344493.278    22344501.294          16.000
        16.750
 99  3  3  1  7 30.0010000  0  5G 5G 6G30G10G24
   5785315.441 7   4468923.383 6  21498628.974    21498636.048          20.250
        21.000
  -1680491.465 6  -1308636.322 6  22558301.481    22558308.427          16.000
        15.000
    433588.663 6    344372.654 6  21131796.567    21131802.688          19.500
        20.750
   1353922.140 6   1055007.160 6  21540885.591    21540893.142          17.750
        21.750
   6873289.458 6   5355810.296 6  22354787.021    22354795.009          16.000
        16.500
 99  3  3  1  7 45.0010000  0  5G 5G 6G30G10G24
   5837041.557 7   4509229.449 6  21508472.122    21508479.185          20.250
        21.000
  -1691168.827 6  -1316956.334 6  22556269.567    22556276.665          16.000
        15.250
    446662.230 6    354559.855 6  21134284.349    21134290.442          19.500
        21.000
   1374983.621 6   1071418.716 6  21544893.536    21544901.056          17.750
        21.750
   6927434.983 6   5398001.607 6  22365090.388    22365098.388          15.750
        16.500
 99  3  3  1  8  0.0010000  0  5G 5G 6G30G10G24
   5888889.902 7   4549630.757 6  21518338.567    21518345.583          20.500
        21.000
  -1701813.496 6  -1325250.860 6  22554244.028    22554250.860          16.250
        15.000
    459894.595 6    364870.798 6  21136802.396    21136808.423          19.500
        21.000
   1396205.747 6   1087955.455 6  21548932.005    21548939.544          17.500
        22.000
   6981631.727 6   5440232.837 6  22375403.958    22375411.692          16.000
        16.500
 99  3  3  1  8 15.0010000  0  5G 5G 6G30G10G24
   5940856.813 7   4590124.456 6  21528227.567    21528234.552          20.250
        21.000
  -1712427.168 6  -1333521.226 6  22552224.224    22552231.259          16.250
        15.250
    473282.301 6    375302.781 6  21139349.833    21139355.935          19.500
        20.750
   1417583.533 6   1104613.485 6  21552999.896    21553007.392          17.500
        22.000
   7035873.698 6   5482499.313 6  22385725.755    22385733.509          16.000
        16.250
 99  3  3  1  8 30.0010000  0  5G 5G 6G30G10G24
   5992943.063 7   4630711.143 6  21538139.302    21538146.310          20.250
        20.750
  -1723009.528 6  -1341767.203 6  22550210.427    22550217.454          16.250
        15.500
    486825.517 6    385855.947 6  21141927.271    21141933.380          19.500
        20.750
   1439115.911 6   1121391.975 6  21557097.403    21557104.856          17.750
        22.000
   7090160.488 6   5524800.701 6  22396056.146    22396063.919          16.000
        16.250
 99  3  3  1  8 45.0010000  0  5G 5G 6G30G10G24
   6045144.485 7   4671387.576 6  21548072.716    21548079.665          20.250
        21.000
  -1733563.534 6  -1349991.089 6  22548202.013    22548208.974          16.250
        15.250
    500519.753 6    396526.793 6  21144533.106    21144539.192          19.500
        21.000
   1460799.259 6   1138288.110 6  21561223.653    21561231.063          17.750
        22.000
   7144485.206 6   5567131.646 6  22406393.935    22406401.653          16.000
        16.250
 99  3  3  1  9  0.0010000  0  5G 5G 6G30G10G24
   6097466.597 7   4712158.060 6  21558029.341    21558036.329          20.250
        20.750
  -1744083.968 6  -1358188.813 6  22546200.067    22546207.001          16.250
        15.750
    514369.674 6    407318.943 6  21147168.724    21147174.739          19.500
        21.000
   1482638.160 6   1155305.449 6  21565379.466    21565386.903          17.750
        21.750
   7198847.156 6   5609491.605 6  22416738.716    22416746.478          16.000
        16.000
 99  3  3  1  9 15.0010000  0  5G 5G 6G30G10G24
   6149909.447 7   4753022.612 6  21568008.872    21568015.849          20.250
        20.750
  -1754573.595 6  -1366362.525 6  22544203.950    22544210.989          16.250
        15.750
    528372.714 6    418230.414 6  21149833.349    21149839.497          19.500
        21.000
   1504628.302 6   1172440.643 6  21569563.896    21569571.310          17.750
        21.750
   7253241.976 6   5651877.175 6  22427089.513    22427097.290          16.000
        16.000
 99  3  3  1  9 30.0010000  0  5G 5G 6G30G10G24
   6202472.467 7   4793980.815 6  21578011.286    21578018.298          20.250
        20.750
  -1765033.379 6  -1374512.986 6  22542213.521    22542220.466          16.500
        16.000
    542526.917 6    429259.671 6  21152526.747    21152532.997          19.500
        21.000
   1526767.798 6   1189692.212 6  21573776.966    21573784.454          17.750
        22.000
   7307665.130 6   5694284.826 6  22437446.083    22437453.821          16.000
        16.000
 99  3  3  1  9 45.0010000  0  5G 5G 6G30G10G24
   6255161.118 7   4835036.911 6  21588037.614    21588044.560          20.250
        20.500
  -1775458.187 6  -1382636.189 6  22540229.638    22540236.798          16.500
        16.000
    556838.264 6    440411.375 6  21155250.208    21155256.321          19.750
        21.000
   1549063.872 6   1207065.788 6  21578019.856    21578027.310          18.000
        21.750
   7362117.249 6   5736715.041 6  22447808.044    22447815.739          16.000
        16.000
 99  3  3  1 10  0.0020000  0  6G17G 5G 6G30G10G24
    -15771.81811     -5583.49315  24855605.486    24855616.674           3.250
         6.000
   6307969.806 7   4876186.539 6  21598086.854    21598093.850          20.000
        20.500
  -1785856.126 6  -1390738.465 6  22538251.072    22538258.205          16.500
        16.250
    571302.266 6    451682.035 6  21158002.611    21158008.721          19.750
        21.250
   1571514.213 6   1224559.575 6  21582292.072    21582299.514          17.750
        21.750
   7416594.520 6   5779164.864 6  22458174.564    22458182.275          16.250
        16.000
 99  3  3  1 10 15.0020000  0  6G17G 5G 6G30G10G24
    -37234.971 1    -22307.942 5  24851521.502    24851532.338           3.250
         6.000
   6360893.272 7   4917425.597 6  21608157.721    21608164.709          20.000
        20.500
  -1796223.371 6  -1398816.816 6  22536278.174    22536285.307          16.500
        16.500
    585919.384 6    463072.009 6  21160784.174    21160790.303          19.750
        21.250
   1594120.176 6   1242174.627 6  21586593.814    21586601.115          18.000
        21.750
   7471091.222 6   5821629.821 6  22468544.986    22468552.736          16.250
        15.750
 99  3  3  1 10 30.0020000  0  6G17G 5G 6G30G10G24
    -58646.754 1    -38992.345 5  24847446.822    24847457.604           3.250
         6.000
   6413940.438 7   4958761.055 6  21618252.346    21618259.385          20.000
        20.500
  -1806559.693 6  -1406871.060 6  22534311.236    22534318.350          16.500
        16.750
    600692.947 6    474583.888 6  21163595.494    21163601.568          19.750
        21.250
   1616886.626 6   1259914.733 6  21590926.189    21590933.576          18.000
        21.750
   7525617.710 6   5864117.989 6  22478921.111    22478928.740          16.250
        15.750
 99  3  3  1 10 45.0020000  0  6G17G 5G 6G30G10G24
    -80010.940 1    -55639.674 5  24843381.197    24843392.010           3.250
         6.000
   6467109.114 7   5000191.192 6  21628370.018    21628376.994          20.000
        20.500
  -1816871.390 6  -1414906.135 6  22532349.002    22532356.221          16.750
        16.750
    615616.940 6    486212.975 6  21166435.369    21166441.506          19.750
        21.250
   1639811.685 6   1277778.424 6  21595288.549    21595295.928          18.250
        21.750
   7580171.826 6   5906627.679 6  22489302.424    22489310.084          16.250
        15.500
 99  3  3  1 11  0.0020000  0  6G17G 5G 6G30G10G24
   -101322.382 1    -72245.907 5  24839326.041    24839336.490           3.500
         6.250
   6520404.898 7   5041720.375 6  21638511.830    21638518.877          20.000
        20.500
  -1827153.690 6  -1422918.298 6  22530392.244    22530399.514          16.750
        17.000
    630694.042 6    497961.375 6  21169304.502    21169310.607          19.750
        21.500
   1662899.262 6   1295768.755 6  21599681.900    21599689.338          18.000
        21.750
   7634759.764 6   5949163.737 6  22499690.236    22499697.916          16.500
        15.500
 99  3  3  1 11 15.0020000  0  6G17G 5G 6G30G10G24
   -122583.990 1    -88813.295 5  24835280.127    24835290.826           3.500
         6.250
   6573824.766 7   5083346.244 6  21648677.314    21648684.326          20.000
        20.500
  -1837408.102 6  -1430908.722 6  22528440.893    22528448.232          16.750
        17.250
    645920.889 6    509826.460 6  21172202.064    21172208.139          19.750
        21.500
   1686144.515 6   1313881.957 6  21604105.385    21604112.697          18.000
        21.500
   7689381.773 6   5991726.335 6  22510084.346    22510092.088          16.250
        15.500
 99  3  3  1 11 30.0020000  0  6G17G 5G 6G30G10G24
   -143793.338 2   -105339.989 5  24831243.713    24831254.553           3.750
         6.250
   6627371.349 7   5125070.856 6  21658866.799    21658873.814          20.000
        20.500
  -1847631.834 6  -1438875.248 6  22526495.361    22526502.561          16.750
        17.250
    661299.906 7    521810.119 6  21175128.611    21175134.549          20.000
        21.250
   1709551.964 6   1332121.539 6  21608559.604    21608566.896          18.000
        21.500
   7744044.528 6   6034320.685 6  22520486.299    22520493.939          16.250
        15.250
 99  3  3  1 11 45.0020000  0  6G17G 5G 6G30G10G24
   -164951.227 2   -121826.570 5  24827217.627    24827228.115           3.750
         6.250
   6681039.366 6   5166890.093 6  21669079.502    21669086.537          19.750
        20.500
  -1857827.320 6  -1446819.765 6  22524555.299    22524562.514          17.000
        17.500
    676827.946 7    533909.898 6  21178083.447    21178089.463          20.000
        21.250
   1733119.652 6   1350485.981 6  21613044.479    21613051.775          18.250
        21.500
   7798746.043 6   6076945.233 6  22530895.689    22530903.264          16.250
        15.250
 99  3  3  1 12  0.0020000  0  6G17G 5G 6G30G10G24
   -186059.108 2   -138274.184 5  24823200.900    24823211.701           4.000
         6.500
   6734827.156 6   5208802.660 6  21679315.025    21679322.072          19.750
        21.000
  -1867994.292 6  -1454742.059 6  22522620.385    22522627.623          16.750
        17.500
    692506.567 6    546127.011 6  21181066.955    21181072.998          19.750
        21.250
   1756847.359 6   1368975.109 6  21617559.697    21617566.936          18.000
        21.000
   7853491.345 6   6119603.905 6  22541313.377    22541321.080          16.250
        15.250
 99  3  3  1 12 15.0020000  0  6G17G 5G 6G30G10G24
   -207120.876 2   -154685.870 5  24819192.971    24819203.350           4.000
         6.500
   6788730.313 6   5250805.118 6  21689572.393    21689579.404          19.750
        20.750
  -1878132.973 6  -1462642.314 6  22520691.041    22520698.354          17.000
        17.500
    708334.898 6    558460.785 6  21184079.080    21184085.146          19.500
        21.750
   1780731.837 6   1387586.410 6  21622104.697    21622112.014          17.750
        21.250
   7908282.263 6   6162298.123 6  22551739.775    22551747.330          16.250
        15.250
 99  3  3  1 12 30.0020000  0  6G17G 5G 6G30G10G24
   -228132.417 2   -171058.419 5  24815194.447    24815204.873           4.000
         6.500
   6842755.301 6   5292902.512 6  21699853.025    21699859.971          19.750
        20.500
  -1888237.134 6  -1470515.668 6  22518768.330    22518775.646          16.750
        18.000
    724315.329 7    570913.080 6  21187119.838    21187125.912          20.000
        21.500
   1804777.855 6   1406323.568 6  21626680.510    21626687.771          18.250
        21.250
   7963124.443 6   6205032.286 6  22562175.924    22562183.494          16.250
        15.000
 99  3  3  1 12 45.0020000  0  6G17G 5G 6G30G10G24
   -249090.031 2   -187388.942 5  24811206.463    24811216.701           4.000
         6.500
   6896903.078 6   5335095.582 6  21710157.002    21710164.064          19.500
        20.500
  -1898305.213 6  -1478360.905 6  22516852.494    22516859.752          17.000
        18.000
    740451.167 7    583486.467 6  21190190.533    21190196.572          20.000
        21.750
   1828987.610 6   1425188.323 6  21631287.510    21631294.760          18.250
        21.250
   8018018.811 6   6247807.115 6  22572621.877    22572629.561          16.250
        15.000
 99  3  3  1 13  0.0020000  0  6G17G 5G 6G30G10G24
   -269992.564 2   -203676.568 5  24807228.721    24807239.330           4.000
         6.500
   6951166.925 6   5377379.099 6  21720483.049    21720490.049          19.500
        20.750
  -1908336.253 6  -1486177.269 6  22514943.541    22514950.838          17.250
        17.750
    756742.166 6    596180.764 6  21193290.541    21193296.568          19.750
        21.750
   1853358.394 6   1444178.562 6  21635925.119    21635932.248          18.250
        21.000
   8072959.785 6   6290618.246 6  22583076.932    22583084.635          16.250
        15.000
 99  3  3  1 13 15.0020000  0  6G17G 5G 6G30G10G24
   -290847.216 2   -219926.884 5  24803260.252    24803270.627           4.000
         6.500
   7005537.477 6   5419745.764 6  21730829.385    21730836.475          19.500
        20.750
  -1918334.587 6  -1493968.166 6  22513040.986    22513048.162          17.250
        18.000
    773184.967 7    608993.340 6  21196419.635    21196425.627          20.000
        21.750
   1877882.389 6   1463288.171 6  21640591.893    21640599.025          18.500
        21.000
   8127936.973 6   6333457.613 6  22593538.525    22593546.260          16.250
        14.750
 99  3  3  1 13 30.0020000  0  6G17G 5G 6G30G10G24
   -311650.033 2   -236136.791 5  24799301.416    24799311.854           4.000
         6.500
   7060020.225 6   5462199.849 6  21741197.197    21741204.189          19.750
        20.500
  -1928296.458 6  -1501730.640 6  22511145.189    22511152.342          17.500
        18.000
    789786.841 7    621929.874 6  21199578.713    21199584.795          20.000
        22.000
   1902567.767 6   1482523.536 6  21645289.268    21645296.389          18.500
        20.750
   8182954.155 6   6376328.142 6  22604007.979    22604015.775          16.000
        15.000
 99  3  3  1 13 45.0020000  0  6G17G 5G 6G30G10G24
   -332404.372 2   -252308.913 5  24795351.986    24795362.412           4.000
         6.500
   7114612.479 6   5504739.271 6  21751585.752    21751592.748          19.750
        20.500
  -1938223.991 6  -1509466.366 6  22509256.244    22509263.342          17.500
        18.000
    806549.580 7    634991.751 6  21202768.643    21202774.682          20.000
        22.000
   1927414.688 6   1501884.786 6  21650017.510    21650024.510          18.500
        20.500
   8238009.775 6   6419228.616 6  22614484.760    22614492.521          16.000
        15.000
 99  3  3  1 14  0.0020000  0  6G17G 5G 6G30G10G24
   -353114.732 2   -268446.802 5  24791411.018    24791421.303           4.500
         7.000
   7169311.313 6   5547361.738 6  21761994.619    21762001.678          19.500
        20.500
  -1948118.439 6  -1517176.307 6  22507373.307    22507380.572          17.500
        18.500
    823472.989 6    648178.833 6  21205988.971    21205995.045          19.750
        21.750
   1952422.916 6   1521371.726 6  21654776.408    21654783.553          18.500
        20.500
   8293100.577 6   6462156.506 6  22624968.283    22624975.986          16.000
        15.750
 99  3  3  1 14 15.0020000  0  6G17G 5G 6G30G10G24
   -373777.227 2   -284547.360 5  24787479.143    24787489.225           4.250
         6.750
   7224119.263 6   5590069.232 6  21772424.205    21772431.166          19.500
        20.500
  -1957978.610 6  -1524859.522 6  22505496.986    22505504.271          16.750
        18.250
    840560.794 7    661494.012 6  21209240.721    21209246.916          20.000
        22.250
   1977596.109 6   1540987.211 6  21659566.689    21659573.783          18.500
        20.750
   8348226.830 6   6505112.036 6  22635458.385    22635466.170          16.250
        15.250
 99  3  3  1 14 30.0020000  0  6G17G 5G 6G30G10G24
   -394392.866 2   -300611.429 5  24783555.900    24783565.834           4.250
         6.750
   7279032.798 6   5632859.001 6  21782874.096    21782881.135          19.500
        21.250
  -1967812.545 6  -1532522.313 6  22503625.549    22503632.768          17.500
        18.250
    857805.809 7    674931.694 6  21212522.346    21212528.377          20.000
        22.000
   2002929.227 6   1560727.305 6  21664387.525    21664394.510          18.750
        20.500
   8403378.708 6   6548087.517 6  22645953.221    22645961.213          15.750
        15.000
 99  3  3  1 14 45.0020000  0  6G17G 5G 6G30G10G24
   -414961.445 2   -316638.803 5  24779641.768    24779651.982           4.250
         6.500
   7334050.405 6   5675729.860 6  21793343.377    21793350.498          19.500
        21.250
  -1977624.916 6  -1540168.297 6  22501758.338    22501765.482          17.500
        18.500
    875203.991 6    688488.727 6  21215833.025    21215839.209          19.750
        22.000
   2028418.653 6   1580589.199 6  21669238.002    21669244.982          18.500
        20.250
   8458551.769 6   6591079.511 6  22656452.400    22656460.338          16.000
        15.000
 99  3  3  1 15  0.0020000  0  6G17G 5G 6G30G10G24
   -435475.030 2   -332623.348 5  24775737.838    24775748.100           4.250
         6.750
   7389176.906 6   5718685.573 6  21803833.721    21803840.764          19.500
        21.250
  -1987408.955 6  -1547792.206 6  22499896.533    22499903.850          17.500
        18.250
    892763.822 7    702171.718 6  21219174.666    21219180.760          20.000
        22.000
   2054068.818 6   1600576.350 6  21674119.143    21674126.107          18.750
        20.250
   8513751.561 6   6634092.332 6  22666956.666    22666964.545          15.750
        15.250
 99  3  3  1 15 15.0020000  0  6G17G 5G 6G30G10G24
   -455938.655 2   -348568.969 5  24771843.525    24771853.881           4.250
         6.750
   7444412.372 6   5761726.196 6  21814344.611    21814351.607          19.250
        20.750
  -1997166.449 6  -1555395.430 6  22498039.643    22498046.842          17.750
        18.750
    910479.523 6    715976.170 6  21222545.807    21222551.986          19.750
        22.000
   2079875.545 6   1620685.491 6  21679029.979    21679036.873          18.750
        20.250
   8568975.568 6   6677124.019 6  22677465.338    22677473.463          15.250
        15.500
 99  3  3  1 15 30.0020000  0  6G17G 5G 6G30G10G24
   -476351.524 2   -364475.033 5  24767959.424    24767969.764           4.250
         6.750
   7499762.074 6   5804855.831 6  21824877.213    21824884.248          19.250
        20.500
  -2006895.766 6  -1562976.696 6  22496188.205    22496195.439          18.000
        18.750
    928353.087 7    729903.632 6  21225947.057    21225953.123          20.000
        21.750
   2105841.564 6   1640918.753 6  21683971.119    21683978.025          18.750
        20.250
   8624229.771 6   6720179.241 6  22687979.971    22687987.959          15.250
        15.250
 99  3  3  1 15 45.0020000  0  6G17G 5G 6G30G10G24
   -496712.487 2   -380340.617 5  24764084.713    24764095.021           4.250
         7.000
   7555225.950 6   5848074.438 6  21835431.838    21835438.865          19.000
        20.750
  -2016597.211 6  -1570536.245 6  22494342.096    22494349.264          18.000
        18.750
    946382.027 6    743952.160 6  21229377.838    21229383.838          19.750
        22.000
   2131965.453 6   1661275.028 6  21688942.424    21688949.244          18.750
        20.250
   8679516.917 6   6763260.136 6  22698500.502    22698508.568          15.000
        15.250
 99  3  3  1 16  0.0020000  0  6G17G 5G 6G30G10G24
   -517021.260 2   -396165.558 5  24760220.072    24760230.393           4.250
         6.750
   7610800.944 6   5891379.625 6  21846007.330    21846014.451          19.000
        21.000
  -2026271.669 6  -1578074.766 6  22492501.143    22492508.369          18.000
        18.750
    964562.507 6    758118.774 6  21232837.330    21232843.498          19.750
        22.000
   2158242.915 6   1681750.984 6  21693942.775    21693949.807          18.750
        20.250
   8734833.470 6   6806363.947 6  22709027.010    22709034.971          15.000
        15.000
 99  3  3  1 16 15.0020000  0  6G17G 5G 6G30G10G24
   -537268.822 2   -411942.816 5  24756367.041    24756377.143           4.500
         6.750
   7666495.129 6   5934777.689 6  21856605.557    21856612.549          19.250
        21.000
  -2035911.336 6  -1585586.171 6  22490666.807    22490673.986          17.750
        18.500
    982896.013 6    772404.632 6  21236326.080    21236332.248          19.500
        21.750
   2184677.874 6   1702349.650 6  21698973.143    21698979.979          18.750
        19.750
   8790182.613 6   6849493.131 6  22719559.674    22719567.693          15.250
        15.500
 99  3  3  1 16 30.0020000  0  6G17G 5G 6G30G10G24
   -557459.850 2   -427675.992 5  24752524.893    24752534.670           4.500
         6.750
   7722304.701 6   5978265.661 6  21867225.846    21867232.826          19.250
        20.750
  -2045521.718 6  -1593074.765 6  22488837.932    22488845.072          18.000
        18.750
   1001375.822 6    786804.490 6  21239842.604    21239848.662          19.750
        21.750
   2211263.638 6   1723065.831 6  21704032.260    21704039.197          18.750
        19.750
   8845560.774 6   6892644.949 6  22730097.713    22730105.822          15.250
        15.250
 99  3  3  1 16 45.0020000  0  6G17G 5G 6G30G10G24
   -577592.282 2   -443363.531 5  24748693.846    24748703.998           4.750
         6.750
   7778234.225 6   6021847.108 6  21877868.705    21877875.713          18.750
        20.500
  -2055098.623 6  -1600537.261 6  22487015.408    22487022.572          17.750
        18.500
   1020002.069 6    801318.449 6  21243387.033    21243393.100          19.500
        21.500
   2238003.366 6   1743901.983 6  21709120.557    21709127.502          19.000
        19.750
   8900971.571 6   6935822.200 6  22740642.064    22740650.045          15.750
        15.000
 99  3  3  1 17  0.0020000  0  6G17G 5G 6G30G10G24
   -597670.658 2   -459008.931 5  24744873.041    24744883.092           4.750
         6.750
   7834281.555 6   6065520.355 6  21888534.213    21888541.189          18.750
        20.500
  -2064641.151 6  -1607972.983 6  22485199.463    22485206.682          17.750
        18.750
   1038775.990 6    815947.491 6  21246959.557    21246965.678          19.500
        21.750
   2264896.150 6   1764857.404 6  21714238.150    21714245.080          18.500
        20.250
   8956413.559 6   6979023.742 6  22751192.182    22751200.252          15.000
        14.750
 99  3  3  1 17 15.0020000  0  6G17G 5G 6G30G10G24
   -617694.675 2   -474611.980 5  24741062.455    24741072.506           4.500
         6.750
   7890449.648 6   6109287.694 6  21899222.729    21899229.834          18.750
        21.000
  -2074147.655 6  -1615380.634 6  22483390.588    22483397.775          18.000
        19.250
   1057702.875 6    830695.720 6  21250561.197    21250567.389          19.750
        21.750
   2291947.807 6   1785936.623 6  21719385.854    21719392.861          18.250
        20.000
   9011888.711 6   7022251.140 6  22761748.643    22761756.795          14.750
        14.750
 99  3  3  1 17 30.0020000  0  6G17G 5G 6G30G10G24
   -637666.065 2   -490174.002 5  24737261.971    24737271.768           4.750
         6.500
   7946738.622 6   6153149.233 6  21909934.143    21909941.189          19.250
        21.000
  -2083620.184 6  -1622761.799 6  22481587.900    22481595.139          17.750
        18.750
   1076782.950 6    845563.310 6  21254192.182    21254198.119          19.750
        21.750
   2319160.658 6   1807141.445 6  21724564.400    21724571.396          18.500
        20.000
   9067398.177 6   7065505.264 6  22772311.939    22772319.959          15.250
        14.750
 99  3  3  1 17 45.0020000  0  6G17G 5G 6G30G10G24
   -657587.253 2   -505696.919 5  24733470.666    24733480.807           4.750
         6.500
   8003142.607 6   6197100.386 6  21920667.463    21920674.584          18.750
        21.000
  -2093062.946 6  -1630119.780 6  22479790.932    22479798.232          18.000
        19.250
   1096014.311 6    860548.797 6  21257851.807    21257857.881          19.750
        21.750
   2346533.096 6   1828470.620 6  21729772.994    21729779.986          18.500
        20.250
   9122940.131 6   7108784.709 6  22782881.205    22782889.307          15.000
        14.750
 99  3  3  1 18  0.0020000  0  6G17G 5G 6G30G10G24
   -677454.894 3   -521178.129 5  24729690.127    24729700.154           5.000
         6.250
   8059664.478 6   6241143.402 6  21931423.268    21931430.369          18.750
        21.000
  -2102474.336 6  -1637453.310 6  22478000.111    22478007.314          17.750
        18.750
   1115400.028 6    875654.557 6  21261540.713    21261546.865          19.500
        21.750
   2374068.593 6   1849926.851 6  21735012.924    21735019.936          18.500
        20.000
   9178511.523 6   7152087.091 6  22793456.205    22793464.178          15.000
        14.750
 99  3  3  1 18 15.0020000  0  6G17G 5G 6G30G10G24
   -697276.366 2   -536623.337 5  24725918.229    24725927.893           4.750
         6.250
   8116295.903 6   6285271.785 6  21942199.705    21942206.764          18.750
        20.750
  -2111858.941 6  -1644765.968 6  22476214.033    22476221.365          17.500
        19.250
   1134935.253 6    890876.822 6  21265258.244    21265264.334          19.750
        21.500
   2401761.984 6   1871506.125 6  21740282.807    21740289.834          18.500
        20.000
   9234103.751 6   7195405.716 6  22804034.971    22804043.096          15.000
        15.000
 99  3  3  1 18 30.0020000  0  6G17G 5G 6G30G10G24
   -717046.249 3   -552028.335 5  24722156.002    24722165.947           5.000
         6.250
   8173043.798 6   6329490.920 6  21952998.596    21953005.604          18.750
        20.750
  -2121210.250 6  -1652052.683 6  22474434.643    22474441.916          17.750
        19.250
   1154628.811 6    906222.452 6  21269005.713    21269011.842          19.750
        21.750
   2429620.077 6   1893213.737 6  21745584.010    21745591.107          18.250
        20.250
   9289725.159 6   7238747.067 6  22814619.518    22814627.580          15.250
        15.000
 99  3  3  1 18 45.0020000  0  6G17G 5G 6G30G10G24
   -736768.756 3   -567396.446 5  24718402.791    24718412.564           5.000
         6.250
   8229901.230 6   6373795.410 6  21963818.088    21963825.115          18.750
        20.750
  -2130532.130 6  -1659316.463 6  22472660.830    22472668.092          17.750
        19.250
   1174480.423 7    921691.252 6  21272783.439    21272789.514          20.000
        21.500
   2457639.257 6   1915046.864 6  21750915.791    21750923.045          18.250
        20.250
   9345370.658 6   7282107.195 6  22825208.494    22825216.412          15.000
        14.500
 99  3  3  1 19  0.0020000  0  6G17G 5G 6G30G10G24
   -756446.841 2   -582729.927 5  24714658.236    24714668.174           4.750
         6.250
   8286863.699 6   6418181.746 6  21974657.854    21974664.900          18.750
        20.750
  -2139824.894 6  -1666557.563 6  22470892.346    22470899.646          17.750
        19.250
   1194489.705 7    937282.908 6  21276591.018    21276597.119          20.000
        21.500
   2485816.352 6   1937003.050 6  21756277.791    21756284.951          18.500
        20.250
   9401036.089 6   7325482.848 6  22835801.307    22835809.166          15.000
        14.500
 99  3  3  1 19 15.0020000  0  6G17G 5G 6G30G10G24
   -776077.349 3   -598026.347 5  24710922.564    24710932.154           5.000
         6.250
   8343933.437 6   6462651.669 6  21985517.877    21985524.775          18.500
        20.500
  -2149082.046 6  -1673770.899 6  22469130.900    22469138.061          17.750
        19.250
   1214662.406 7    953001.900 6  21280429.838    21280435.775          20.000
        21.500
   2514156.063 6   1959085.947 6  21761670.596    21761677.693          18.500
        20.250
   9456725.803 6   7368877.430 6  22846398.580    22846406.432          15.000
        14.500
 99  3  3  1 19 30.0020000  0  6G17G 5G 6G30G10G24
   -795662.747 3   -613287.595 5  24707195.611    24707205.561           5.000
         6.000
   8401107.061 6   6507202.538 6  21996397.682    21996404.592          19.000
        20.500
  -2158304.802 6  -1680957.445 6  22467375.807    22467383.021          17.750
        19.250
   1234993.071 6    968843.986 6  21284298.596    21284304.658          19.750
        21.500
   2542655.538 6   1981293.339 6  21767093.822    21767101.006          18.000
        19.750
   9512438.440 6   7412289.873 6  22857000.361    22857008.225          15.000
        14.500
 99  3  3  1 19 45.0020000  0  6G17G 5G 6G30G10G24
   -815199.274 3   -628510.776 5  24703477.846    24703487.627           5.500
         6.000
   8458381.973 6   6551832.341 6  22007296.807    22007303.686          18.750
        21.000
  -2167488.138 6  -1688113.275 6  22465628.174    22465635.268          18.000
        19.250
   1255481.338 6    984808.876 6  21288197.299    21288203.377          19.750
        21.500
   2571314.213 6   2003624.776 6  21772547.361    21772554.529          18.250
        19.750
   9568175.656 6   7455721.468 6  22867606.885    22867614.639          15.250
        14.500
 99  3  3  1 20  0.0020000  0  6G17G 5G 6G30G10G24
   -834681.888 3   -643691.946 5  24699770.619    24699780.197           5.500
         6.250
   8515759.012 6   6596541.716 6  22018215.197    22018222.213          18.500
        20.750
  -2176627.305 6  -1695234.686 6  22463888.893    22463896.084          18.500
        19.750
   1276129.351 7   1000898.244 6  21292126.564    21292132.576          20.000
        21.750
   2600134.348 6   2026082.035 6  21778031.877    21778038.928          18.250
        19.750
   9623938.296 6   7499172.865 6  22878218.385    22878226.014          15.250
        14.500
 99  3  3  1 20 15.0020000  0  6G17G 5G 6G30G10G24
   -854111.091 3   -658831.506 5  24696072.971    24696082.822           5.500
         6.250
   8573237.251 6   6641329.953 6  22029152.971    22029159.908          18.750
        20.500
  -2185721.538 6  -1702321.079 6  22462158.533    22462165.604          18.500
        19.750
   1296935.656 6   1017110.952 6  21296085.846    21296091.873          19.750
        21.750
   2629114.757 6   2048664.174 6  21783546.596    21783553.623          18.250
        20.000
   9679724.946 6   7542642.983 6  22888834.244    22888841.971          15.250
        14.500
 99  3  3  1 20 30.0020000  0  6G17G 5G 6G30G10G24
   -873485.451 3   -673928.308 5  24692385.939    24692395.373           5.000
         6.000
   8630819.478 6   6686199.219 6  22040110.479    22040117.377          19.250
        20.500
  -2194769.861 6  -1709371.702 6  22460436.689    22460443.732          18.500
        19.750
   1317902.008 7   1033448.382 6  21300075.658    21300081.670          20.250
        21.500
   2658254.242 6   2071370.280 6  21789091.643    21789098.643          18.250
        19.750
   9735542.590 6   7586137.246 6  22899455.838    22899463.486          15.250
        14.750
 99  3  3  1 20 45.0020000  0  6G17G 5G 6G30G10G24
   -892810.568 3   -688986.781 5  24688708.432    24688717.822           5.500
         5.750
   8688501.626 6   6731146.341 6  22051087.080    22051093.955          18.750
        20.250
  -2203780.721 6  -1716393.131 6  22458722.064    22458729.131          18.000
        19.500
   1339022.408 7   1049905.841 6  21304094.643    21304100.764          20.000
        21.250
   2687547.007 6   2094195.829 6  21794665.830    21794672.924          18.000
        20.250
   9791388.088 6   7629653.218 6  22910082.932    22910090.486          15.250
        14.000
 99  3  3  1 21  0.0020000  0  6G17G 5G 6G30G10G24
   -912079.676 3   -704001.577 5  24685041.822    24685051.467           5.500
         5.750
   8746290.925 6   6776176.960 6  22062084.135    22062090.994          19.250
        20.250
  -2212747.230 6  -1723379.998 6  22457015.744    22457022.818          18.000
        19.250
   1360302.826 7   1066487.993 6  21308144.229    21308150.240          20.250
        21.250
   2716999.856 6   2117146.109 6  21800270.463    21800277.592          18.250
        19.750
   9847268.814 6   7673196.632 6  22920716.596    22920724.354          15.000
        14.250
 99  3  3  1 21 15.0020000  0  6G17G 5G 6G30G10G24
   -931294.452 3   -718974.044 5  24681384.846    24681394.682           5.250
         5.750
   8804188.027 6   6821291.583 6  22073101.455    22073108.412          18.750
        20.500
  -2221673.591 6  -1730335.580 6  22455317.189    22455324.092          18.500
        18.250
   1381739.705 7   1083192.067 6  21312223.479    21312229.518          20.250
        21.250
   2746612.074 6   2140220.568 6  21805905.533    21805912.732          18.500
        20.250
   9903185.307 6   7716767.922 6  22931357.010    22931364.678          15.250
        13.500
 99  3  3  1 21 30.0020000  0  6G17G 5G 6G30G10G24
   -950454.696 3   -733904.031 5  24677738.955    24677748.463           5.500
         5.750
   8862191.737 6   6866489.274 6  22084139.260    22084146.131          19.000
        20.500
  -2230563.480 6  -1737262.753 6  22453625.338    22453632.346          18.500
        18.500
   1403331.248 7   1100016.652 6  21316332.244    21316338.217          20.250
        21.250
   2776381.353 6   2163417.423 6  21811570.463    21811577.596          18.250
        20.250
   9959135.581 6   7760365.533 6  22942004.205    22942011.838          15.250
        13.750
 99  3  3  1 21 45.0020000  0  6G17G 5G 6G30G10G24
   -969552.705 3   -748785.536 5  24674104.596    24674113.830           5.750
         5.750
   8920307.824 6   6911774.523 6  22095198.307    22095205.197          19.000
        20.250
  -2239416.247 6  -1744160.999 6  22451940.791    22451947.764          18.250
        18.750
   1425081.393 7   1116964.824 6  21320471.189    21320477.158          20.500
        21.250
   2806310.013 6   2186738.466 6  21817265.611    21817272.877          17.750
        20.500
  10015124.400 6   7803993.185 6  22952658.549    22952666.100          15.000
        13.250
 99  3  3  1 22  0.0020000  0  6G17G 5G 6G30G10G24
   -988595.021 3   -763623.615 5  24670480.994    24670490.428           5.000
         5.000
   8978532.220 6   6957144.186 6  22106278.205    22106284.959          19.500
        20.000
  -2248239.698 6  -1751036.389 6  22450261.729    22450268.783          18.500
        19.250
   1446985.469 7   1134032.946 6  21324639.447    21324645.264          20.750
        21.000
   2836390.901 6   2210178.134 6  21822989.908    21822997.139          18.000
        21.000
  10071143.818 6   7847644.662 6  22963318.674    22963325.994          15.000
        13.250
 99  3  3  1 22 15.0020000  0  6G17G 5G 6G30G10G24
  -1007580.754 3   -778417.611 5  24666868.221    24666877.361           5.500
         5.750
   9036873.574 6   7002604.980 6  22117380.104    22117386.846          19.250
        20.250
  -2257034.283 6  -1757889.297 6  22448588.104    22448595.236          18.500
        19.250
   1469044.782 7   1151222.025 6  21328837.033    21328843.010          20.750
        21.000
   2866625.892 6   2233737.880 6  21828743.369    21828750.686          18.000
        20.500
  10127194.402 6   7891320.441 6  22973984.682    22973992.314          14.750
        13.500
 99  3  3  1 22 30.0020000  0  6G17G 5G 6G30G10G24
  -1026514.547 3   -793171.146 5  24663264.924    24663274.236           5.000
         5.500
   9095330.417 6   7048155.764 6  22128504.205    22128511.021          19.250
        20.000
  -2265801.865 6  -1764721.157 6  22446919.658    22446926.666          18.500
        19.500
   1491259.576 7   1168532.261 6  21333064.486    21333070.330          20.750
        21.000
   2897010.242 6   2257414.010 6  21834525.385    21834532.635          18.250
        20.750
  10183274.720 6   7935019.386 6  22984656.486    22984664.104          15.000
        13.750
 99  3  3  1 22 45.0020000  0  6G17G 5G 6G30G10G24
  -1045395.596 3   -807883.570 5  24659671.932    24659681.490           5.250
         5.750
   9153902.211 6   7093796.116 6  22139649.939    22139656.760          19.500
        20.250
  -2274542.234 6  -1771531.818 6  22445256.424    22445263.447          18.500
        19.750
   1513629.417 7   1185963.315 6  21337321.268    21337327.135          20.750
        21.500
   2927543.065 6   2281205.834 6  21840335.596    21840342.674          18.000
        20.500
  10239382.640 6   7978739.836 6  22995333.471    22995341.158          15.000
        14.000
 99  3  3  1 23  0.0020000  0  6G17G 5G 6G30G10G24
  -1064222.493 3   -822553.820 5  24656089.080    24656098.658           5.250
         5.750
   9212589.421 6   7139526.413 6  22150817.846    22150824.658          19.500
        20.250
  -2283250.903 6  -1778317.769 6  22443599.174    22443606.213          18.250
        19.750
   1536156.270 7   1203516.713 6  21341607.963    21341613.924          21.000
        21.500
   2958229.524 6   2305117.371 6  21846174.955    21846182.166          18.000
        20.500
  10295516.088 6   8022480.185 6  23006015.252    23006022.955          15.000
        14.250
 99  3  3  1 23 15.0020000  0  6G17G 5G 6G30G10G24
  -1082995.452 3   -837182.014 5  24652516.697    24652525.994           5.250
         5.750
   9271389.629 6   7185344.754 6  22162007.158    22162013.928          19.500
        20.000
  -2291928.374 6  -1785079.412 6  22441947.854    22441954.869          18.250
        19.500
   1558837.781 7   1221190.622 6  21345924.018    21345930.006          20.500
        21.500
   2989067.182 6   2329146.730 6  21852043.088    21852050.264          17.500
        20.250
  10351672.462 6   8066238.388 6  23016701.557    23016709.135          15.000
        14.000
 99  3  3  1 23 30.0020000  0  6G17G 5G 6G30G10G24
  -1101714.167 3   -851767.951 5  24648954.580    24648964.186           5.000
         5.750
   9330301.912 6   7231250.416 6  22173217.846    22173224.619          19.250
        20.250
  -2300574.353 6  -1791816.516 6  22440302.408    22440309.584          18.250
        20.000
   1581673.979 7   1238985.072 6  21350269.682    21350275.518          21.000
        21.500
   3020059.218 6   2353296.377 6  21857940.658    21857947.979          17.750
        20.500
  10407852.156 6   8110014.770 6  23027392.143    23027399.779          15.000
        14.000
 99  3  3  1 23 45.0020000  0  6G17G 5G 6G30G10G24
  -1120379.602 2   -866312.410 5  24645402.314    24645411.854           4.500
         6.000
   9389325.980 6   7277243.197 6  22184449.604    22184456.557          19.250
        20.250
  -2309185.298 6  -1798526.333 6  22438663.979    22438670.982          18.500
        20.000
   1604666.075 7   1256900.995 6  21354644.979    21354650.834          20.750
        21.750
   3051204.830 6   2377565.697 6  21863867.283    21863874.611          17.500
        20.250
  10464057.069 6   8153810.799 6  23038087.650    23038095.248          15.000
        14.000
 99  3  3  1 24  0.0020000  0  6G17G 5G 6G30G10G24
  -1138993.223 2   -880816.436 5  24641860.150    24641870.084           4.750
         5.750
   9448461.238 6   7323322.610 6  22195702.682    22195709.561          19.000
        20.250
  -2317759.805 6  -1805207.742 6  22437032.346    22437039.404          18.500
        20.000
   1627814.743 7   1274938.919 6  21359049.947    21359055.846          21.000
        21.750
   3082504.506 6   2401955.068 6  21869823.463    21869830.768          17.750
        20.250
  10520288.102 6   8197627.186 6  23048788.064    23048795.615          14.750
        14.000
 99  3  3  1 24 15.0020000  0  6G17G 5G 6G30G10G24
  -1157558.462 3   -895282.786 5  24638327.463    24638336.885           5.250
         5.500
   9507704.957 6   7369486.541 6  22206976.299    22206983.256          18.750
        20.500
  -2326297.433 6  -1811860.421 6  22435407.557    22435414.572          18.250
        20.000
   1651119.851 7   1293098.751 6  21363484.760    21363490.709          20.750
        21.750
   3113957.790 6   2426464.126 6  21875809.002    21875816.146          17.750
        20.250
  10576544.677 6   8241463.473 6  23059493.197    23059500.959          14.750
        14.000
 99  3  3  1 24 30.0020000  0  6G17G 5G 6G30G10G24
  -1176075.991 3   -909711.967 5  24634803.682    24634813.248           5.250
         5.750
   9567051.015 6   7415730.217 6  22218269.502    22218276.357          18.750
        20.500
  -2334799.216 6  -1818485.161 6  22433789.760    22433796.803          18.250
        20.000
   1674580.840 7   1311380.049 6  21367949.275    21367955.279          20.750
        22.000
   3145562.128 6   2451090.900 6  21881822.994    21881830.146          17.750
        20.000
  10632829.123 6   8285321.488 6  23070203.768    23070211.416          14.500
        14.000
 99  3  3  1 24 45.0020000  0  6G17G 5G 6G30G10G24
  -1194543.523 3   -924102.176 5  24631289.400    24631299.006           5.500
         6.000
   9626497.073 6   7462051.819 6  22229581.682    22229588.623          18.750
        20.250
  -2343263.076 6  -1825080.360 6  22432179.104    22432186.229          18.250
        20.250
   1698198.467 7   1329783.398 6  21372443.525    21372449.553          20.500
        22.000
   3177319.663 6   2475837.035 6  21887866.205    21887873.393          17.500
        20.000
  10689145.431 6   8329204.311 6  23080920.416    23080928.174          14.750
        14.000
 99  3  3  1 25  0.0020000  0  6G17G 5G 6G30G10G24
  -1212956.439 3   -938449.831 5  24627785.783    24627795.018           5.500
         6.000
   9686048.362 6   7508455.414 6  22240914.025    22240920.932          18.500
        20.500
  -2351685.165 6  -1831643.003 6  22430576.408    22430583.377          18.250
        20.250
   1721974.662 7   1348310.310 6  21376967.979    21376973.900          20.500
        22.000
   3209238.318 6   2500708.729 6  21893940.158    21893947.346          17.500
        20.000
  10745498.768 6   8373116.002 6  23091644.033    23091651.791          14.500
        14.250
 99  3  3  1 25 15.0020000  0  6G17G 5G 6G30G10G24
  -1231321.272 3   -952760.006 5  24624290.799    24624300.045           5.500
         6.000
   9745698.745 6   7554936.230 6  22252265.049    22252271.971          18.500
        20.250
  -2360071.849 6  -1838178.065 6  22428980.541    22428987.627          18.000
        20.250
   1745905.507 7   1366957.723 6  21381521.994    21381527.951          20.500
        22.250
   3241314.564 6   2525703.219 6  21900043.979    21900051.049          17.500
        20.000
  10801887.712 6   8417055.428 6  23102374.736    23102382.350          14.750
        14.000
 99  3  3  1 25 30.0020000  0  6G17G 5G 6G30G10G24
  -1249641.491 3   -967035.445 5  24620804.643    24620813.834           5.500
         6.000
   9805442.208 6   7601489.574 6  22263633.830    22263640.721          18.500
        20.250
  -2368428.373 6  -1844689.615 6  22427390.127    22427397.158          18.000
        20.500
   1769985.712 7   1385721.529 6  21386104.189    21386110.291          20.250
        22.250
   3273542.537 6   2550815.926 6  21906176.783    21906183.896          17.500
        19.750
  10858309.236 6   8461020.255 6  23113111.385    23113119.061          14.750
        14.000
 99  3  3  1 25 45.0020000  0  6G17G 5G 6G30G10G24
  -1267914.258 3   -981273.899 5  24617327.604    24617336.568           6.000
         5.750
   9865282.016 6   7648117.988 6  22275021.033    22275027.994          18.250
        20.500
  -2376748.457 6  -1851172.774 6  22425806.924    22425813.975          17.750
        20.500
   1794221.483 7   1404606.547 6  21390716.135    21390722.139          20.500
        22.250
   3305924.228 6   2576048.431 6  21912338.736    21912345.846          17.250
        19.750
  10914764.413 6   8505011.301 6  23123854.447    23123862.354          14.750
        14.500
 99  3  3  1 26  0.0020000  0  6G17G 5G 6G30G10G24
  -1286137.677 3   -995473.894 5  24613859.580    24613868.643           6.000
         6.000
   9925216.743 6   7694820.358 6  22286426.260    22286433.213          18.250
        20.250
  -2385031.343 6  -1857626.951 6  22424230.627    22424237.795          17.750
        20.500
   1818613.528 7   1423613.337 6  21395357.791    21395363.861          20.500
        22.500
   3338457.480 6   2601399.026 6  21918529.713    21918536.826          17.500
        19.500
  10971249.876 6   8549025.945 6  23134603.182    23134610.994          14.750
        14.500
 99  3  3  1 26 15.0020000  0  6G17G 5G 6G30G10G24
  -1304307.621 3  -1009632.228 5  24610401.963    24610411.088           6.000
         6.000
   9985249.091 6   7741598.808 6  22297850.057    22297856.936          18.250
        20.250
  -2393274.319 6  -1864050.019 6  22422662.119    22422669.189          18.000
        20.500
   1843163.629 7   1442743.292 6  21400029.494    21400035.541          20.500
        22.250
   3371146.053 6   2626870.651 6  21924750.072    21924757.146          17.250
        19.750
  11027766.109 6   8593064.560 6  23145357.752    23145365.736          14.250
        14.000
 99  3  3  1 26 30.0020000  0  6G17G 5G 6G30G10G24
  -1322424.941 4  -1023749.544 5  24606954.361    24606963.365           6.250
         6.250
  10045377.576 6   7788452.172 6  22309292.143    22309299.064          18.250
        20.250
  -2401476.104 6  -1870440.999 6  22421101.393    22421108.439          18.000
        20.500
   1867871.081 7   1461995.855 6  21404731.174    21404737.256          20.500
        22.750
   3403991.163 6   2652464.250 6  21931000.252    21931007.346          17.000
        19.500
  11084309.635 6   8637124.448 6  23156117.713    23156125.568          14.250
        14.000
 99  3  3  1 26 45.0020000  0  6G17G 5G 6G30G10G24
  -1340490.298 4  -1037826.369 5  24603516.439    24603525.510           6.250
         6.250
  10105601.794 6   7835380.122 6  22320752.299    22320759.295          18.000
        20.250
  -2409635.744 6  -1876799.142 6  22419548.572    22419555.678          18.000
        20.500
   1892733.295 7   1481369.012 6  21409462.283    21409468.303          20.250
        22.750
   3436994.061 6   2678180.797 6  21937280.510    21937287.623          17.250
        19.500
  11140876.432 6   8681202.472 6  23166882.072    23166890.014          14.250
        14.000
 99  3  3  1 27  0.0020000  0  6G17G 5G 6G30G10G24
  -1358504.432 4  -1051863.275 5  24600088.338    24600097.553           6.250
         6.500
  10165923.956 6   7882384.398 6  22332231.330    22332238.369          18.000
        20.250
  -2417753.996 6  -1883125.028 6  22418003.752    22418010.799          18.250
        20.500
   1917748.517 7   1500861.393 6  21414222.518    21414228.658          20.250
        22.750
   3470155.954 6   2704021.245 6  21943591.002    21943598.240          17.000
        19.250
  11197461.872 6   8725295.020 6  23177649.729    23177657.744          14.000
        14.000
 99  3  3  1 27 15.0020000  0  6G17G 5G 6G30G10G24
  -1376465.759 4  -1065859.040 5  24596670.557    24596679.658           6.500
         6.500
  10226345.398 6   7929466.037 6  22343729.150    22343736.057          18.000
        20.000
  -2425829.606 6  -1889417.685 6  22416467.010    22416474.123          18.250
        20.500
   1942920.510 7   1520475.938 6  21419012.572    21419018.674          20.250
        23.000
   3503477.958 6   2729986.448 6  21949931.861    21949938.928          17.000
        19.500
  11254064.586 6   8769401.015 6  23188420.900    23188428.904          14.000
        14.000
 99  3  3  1 27 30.0020000  0  6G17G 5G 6G30G10G24
  -1394367.597 4  -1079808.436 5  24593264.057    24593273.010           6.750
         6.500
  10286869.670 6   7976627.791 6  22355246.549    22355253.443          18.000
        20.000
  -2433858.732 6  -1895674.129 6  22414939.135    22414946.197          18.000
        20.500
   1968256.094 7   1540217.961 6  21423833.635    21423839.697          20.000
        23.250
   3536961.152 6   2756077.256 6  21956303.549    21956310.650          17.000
        19.250
  11310686.810 6   8813522.228 6  23199195.893    23199203.818          13.750
        14.250
 99  3  3  1 27 45.0020000  0  6G17G 5G 6G30G10G24
  -1412210.474 4  -1093711.894 5  24589868.377    24589877.275           7.000
         6.500
  10347495.590 6   8023868.771 6  22366783.041    22366790.033          17.750
        20.000
  -2441840.977 6  -1901894.037 6  22413420.166    22413427.150          18.000
        20.750
   1993753.121 7   1560085.774 6  21428685.510    21428691.670          20.000
        23.250
   3570603.323 6   2782291.940 6  21962705.479    21962712.592          16.750
        19.250
  11367324.120 6   8857655.203 6  23209973.588    23209981.779          13.750
        14.250
 99  3  3  1 28  0.0020000  0  6G17G 5G 6G30G10G24
  -1430003.827 4  -1107576.780 5  24586482.502    24586491.369           7.250
         6.500
  10408216.056 6   8071183.409 6  22378337.846    22378344.912          17.750
        20.000
  -2449785.753 6  -1908084.750 6  22411908.213    22411915.162          18.000
        20.750
   2019403.823 7   1580073.339 6  21433566.635    21433572.779          20.000
        23.250
   3604396.233 6   2808624.084 6  21969136.010    21969143.158          17.000
        19.250
  11423967.856 6   8901793.174 6  23220752.385    23220760.432          13.500
        14.250
 99  3  3  1 28 15.0020000  0  6G17G 5G 6G30G10G24
  -1447742.682 4  -1121399.186 5  24583106.893    24583115.787           7.250
         6.750
  10469035.435 6   8118575.127 6  22389911.463    22389918.412          17.750
        19.750
  -2457690.973 6  -1914244.628 6  22410403.932    22410410.924          17.750
        20.500
   2045207.460 6   1600180.070 6  21438476.916    21438483.127          19.750
        23.000
   3638345.980 6   2835078.436 6  21975596.463    21975603.588          17.000
        19.000
  11480626.076 6   8945942.433 6  23231534.229    23231542.389          13.750
        14.500
 99  3  3  1 28 30.0020000  0  6G17G 5G 6G30G10G24
  -1465427.977 5  -1135179.848 5  24579741.463    24579750.396           7.500
         6.750
  10529955.551 6   8166045.338 6  22401504.189    22401511.209          17.750
        19.750
  -2465556.227 6  -1920373.385 6  22408907.150    22408914.178          18.000
        20.750
   2071165.355 6   1620407.005 6  21443416.588    21443422.811          19.500
        23.250
   3672453.749 6   2861655.924 6  21982087.033    21982094.146          17.000
        18.750
  11537300.978 6   8990104.691 6  23242319.119    23242327.389          13.500
        14.500
 99  3  3  1 28 45.0020000  0  6G17G 5G 6G30G10G24
  -1483062.400 5  -1148920.868 5  24576385.830    24576394.498           7.750
         6.750
  10590970.965 6   8213589.809 6  22413115.033    22413121.982          17.750
        19.750
  -2473386.875 6  -1926475.171 6  22407416.963    22407424.014          17.750
        21.000
   2097272.814 6   1640750.493 6  21448384.650    21448390.908          19.750
        23.250
   3706715.814 6   2888353.647 6  21988606.760    21988613.990          16.750
        19.250
  11593990.922 6   9034278.668 6  23253106.799    23253114.998          13.250
        14.500
 99  3  3  1 29  0.0030000  0  6G17G 5G 6G30G10G24
  -1500647.229 5  -1162623.244 5  24573039.327    24573048.476           7.750
         6.750
  10652086.793 6   8261212.523 6  22424744.968    22424752.069          17.500
        19.750
  -2481187.375 6  -1932553.455 6  22405932.616    22405939.573          17.750
        20.750
   2123531.625 6   1661211.907 6  21453381.616    21453387.741          19.500
        23.250
   3741131.349 6   2915170.949 6  21995155.835    21995162.983          17.000
        19.250
  11650701.669 6   9078468.852 6  23263898.476    23263906.604          13.250
        14.500
 99  3  3  1 29 15.0030000  0  6G17G 5G 6G30G10G24
  -1518173.786 5  -1176280.224 5  24569704.147    24569713.019           7.750
         6.750
  10713299.336 6   8308910.605 6  22436393.335    22436400.300          17.750
        19.500
  -2488952.391 6  -1938604.097 6  22404454.944    22404461.886          18.000
        21.000
   2149946.328 6   1681794.796 6  21458408.140    21458414.362          19.500
        23.500
   3775699.073 6   2942106.842 6  22001733.694    22001740.827          16.750
        19.250
  11707432.236 6   9122674.486 6  23274693.983    23274702.050          13.250
        14.500
 99  3  3  1 29 30.0030000  0  6G17G 5G 6G30G10G24
  -1535645.017 5  -1189894.081 5  24566379.187    24566388.155           8.000
         6.750
  10774607.014 6   8356682.817 6  22448059.679    22448066.710          17.500
        19.500
  -2496683.516 6  -1944628.322 6  22402983.812    22402990.683          18.000
        20.750
   2176515.500 6   1702498.052 6  21463464.022    21463470.206          19.500
        23.250
   3810418.055 6   2969160.608 6  22008340.671    22008347.644          16.750
        19.000
  11764183.312 6   9166896.100 6  23285493.265    23285501.448          13.250
        14.500
 99  3  3  1 29 45.0030000  0  6G17G 5G 6G30G10G24
  -1553062.851 5  -1203466.334 5  24563064.687    24563073.351           8.000
         7.000
  10836010.578 6   8404529.744 6  22459744.499    22459751.456          17.500
        19.500
  -2504376.238 6  -1950622.632 6  22401519.937    22401526.741          18.000
        20.750
   2203236.280 6   1723319.444 6  21468548.796    21468554.952          19.500
        23.250
   3845289.628 6   2996333.262 6  22014976.429    22014983.476          16.750
        19.000
  11820958.777 6   9211136.713 6  23296297.226    23296305.448          13.000
        14.500
 99  3  3  1 30  0.0030000  0  6G17G 5G 6G30G10G24
  -1570426.979 5  -1216996.745 5  24559760.233    24559768.968           8.000
         7.250
  10897510.881 6   8452452.051 6  22471447.780    22471454.640          17.500
        19.250
  -2512029.839 6  -1956586.448 6  22400063.397    22400070.319          18.250
        20.500
   2230107.342 6   1744257.942 6  21473662.296    21473668.429          19.250
        23.500
   3880315.269 6   3023625.976 6  22021641.444    22021648.534          16.750
        18.750
  11877757.786 6   9255395.684 6  23307105.765    23307113.972          13.000
        14.500
 99  3  3  1 45 15.0020000  4  2
END OF STATIC OBSERVATION                                   COMMENT
1.420                                                       COMMENT
 99  3  3  1 45 15.0020000  0  6G17G 5G 6G30G10G24
  -2533915.968 5  -1967763.999 6  24076619.111    24076627.451           9.500
        13.000
  14817174.443 6  11506734.830 6  22917542.666    22917550.053          14.500
        17.500
  -2902506.023 7  -2260852.496 6  22025965.064    22025971.686          20.250
        20.500
   4155245.017 6   3244365.624 6  21540210.955    21540216.807          19.750
        22.750
   6291056.655 6   4902126.181 6  22180597.861    22180604.971          18.000
        20.250
  15371297.929 5  11977634.808 5  23672111.893    23672120.088          11.000
        11.750
 99  3  3  1 45 30.0020000  0  6G17G 5G 6G30G10G24
  -2548168.520 5  -1978869.840 6  24073906.994    24073915.268           9.500
        13.000
  14883889.479 6  11558720.572 6  22930238.111    22930245.533          14.250
        17.500
  -2907616.102 7  -2264834.361 6  22024992.682    22024999.150          20.250
        20.500
   4191340.773 6   3272492.193 6  21547079.799    21547085.604          19.750
        22.500
   6334898.435 6   4936288.619 6  22188940.736    22188947.889          18.250
        20.500
  15428874.029 5  12022499.307 5  23683068.377    23683076.252          11.500
        11.750
 99  3  3  1 45 45.0020000  0  6G17G 5G 6G30G10G24
  -2562384.090 5  -1989946.847 6  24071201.658    24071210.107           9.500
        13.000
  14950666.713 6  11610754.779 6  22942945.471    22942952.744          14.250
        17.250
  -2912692.774 7  -2268790.189 6  22024026.604    22024033.096          20.250
        20.500
   4227579.330 7   3300730.037 6  21553975.775    21553981.607          20.000
        22.500
   6378864.876 6   4970548.189 6  22197307.260    22197314.393          18.250
        20.500
  15486448.183 5  12067362.284 5  23694024.525    23694032.455          11.500
        11.750
 99  3  3  1 46  0.0020000  0  6G17G 5G 6G30G10G24
  -2576558.761 5  -2000991.999 6  24068504.416    24068512.869           9.500
        13.250
  15017509.482 6  11662840.046 6  22955665.229    22955672.662          14.250
        17.250
  -2917726.604 7  -2272712.643 6  22023068.658    22023075.232          20.250
        20.500
   4263967.586 7   3329084.529 6  21560900.275    21560906.127          20.000
        22.500
   6422960.191 6   5004908.183 6  22205698.275    22205705.521          18.250
        20.500
  15544029.456 5  12112230.807 5  23704981.783    23704989.834          11.500
        11.750
 99  3  3  1 46 15.0020000  0  6G17G 5G 6G30G10G24
  -2590690.833 5  -2012003.944 6  24065815.111    24065823.436           9.500
        13.250
  15084421.786 6  11714979.495 6  22968398.291    22968405.553          14.250
        17.000
  -2922713.467 7  -2276598.494 6  22022119.580    22022126.037          20.500
        20.250
   4300504.691 7   3357555.011 6  21567853.025    21567858.896          20.000
        22.750
   6467184.885 6   5039368.990 6  22214113.955    22214121.146          18.000
        20.250
  15601619.951 5  12157106.523 5  23715940.799    23715948.916          11.500
        11.500
 99  3  3  1 46 30.0020000  0  6G17G 5G 6G30G10G24
  -2604782.217 5  -2022984.194 6  24063133.604    24063141.814           9.750
        13.500
  15151406.167 6  11767175.114 6  22981144.986    22981152.307          14.250
        17.000
  -2927654.553 7  -2280448.675 6  22021179.393    22021185.791          20.500
        20.250
   4337185.686 7   3386137.609 6  21574833.174    21574838.998          20.000
        22.500
   6511537.768 6   5073929.683 6  22222554.018    22222561.162          18.000
        20.250
  15659215.039 5  12201985.816 5  23726900.861    23726908.701          11.500
        11.500
 99  3  3  1 46 45.0020000  0  6G17G 5G 6G30G10G24
  -2618831.499 5  -2033931.632 6  24060460.260    24060468.525           9.750
        13.500
  15218463.121 6  11819427.274 6  22993905.439    22993912.740          14.000
        17.000
  -2932548.537 7  -2284262.159 6  22020248.057    22020254.521          20.500
        20.250
   4374010.769 7   3414832.489 6  21581840.744    21581846.600          20.000
        22.500
   6556016.353 6   5108588.326 6  22231018.025    22231025.146          18.000
        20.250
  15716811.862 5  12246866.462 5  23737861.307    23737869.076          11.750
        11.500
 99  3  3  1 47  0.0020000  0  6G17G 5G 6G30G10G24
  -2632838.322 5  -2044845.993 6  24057794.705    24057802.951           9.750
        13.500
  15285595.120 6  11871737.921 6  23006680.205    23006687.646          14.000
        17.000
  -2937395.153 7  -2288038.725 6  22019325.721    22019332.217          20.250
        20.250
   4410977.512 7   3443637.747 6  21588875.268    21588881.084          20.000
        22.500
   6600619.498 6   5143344.030 6  22239505.705    22239512.877          18.000
        20.000
  15774409.148 5  12291747.461 5  23748821.650    23748829.326          11.750
        11.500
 99  3  3  1 47 15.0020000  0  6G17G 5G 6G30G10G24
  -2646802.043 5  -2055726.769 6  24055137.533    24055145.627           9.750
        13.500
  15352803.239 6  11924107.879 6  23019469.604    23019476.869          14.000
        17.000
  -2942196.134 7  -2291779.733 6  22018412.088    22018418.564          20.250
        20.500
   4448087.143 7   3472554.345 6  21595936.986    21595942.822          20.000
        22.500
   6645347.762 6   5178197.227 6  22248017.135    22248024.408          18.000
        20.000
  15832007.090 5  12336628.981 5  23759782.291    23759790.018          11.750
        11.500
 99  3  3  1 47 30.0030000  0  6G17G 5G 6G30G10G24
  -2660723.042 5  -2066574.246 6  24052488.171    24052496.452           9.750
        13.500
  15420089.257 6  11976538.547 6  23032273.640    23032281.058          14.000
        16.750
  -2946952.037 7  -2295485.623 6  22017506.976    22017513.413          20.250
        20.500
   4485342.690 6   3501584.653 6  21603026.522    21603032.437          19.750
        22.500
   6690205.209 6   5213151.093 6  22256553.272    22256560.499          18.000
        20.000
  15889610.740 5  12381514.940 5  23770743.866    23770751.604          11.750
        11.500
 99  3  3  1 47 45.0030000  0  6G17G 5G 6G30G10G24
  -2674595.226 5  -2077383.691 6  24049848.421    24049856.702          10.000
        13.500
  15487438.455 6  12029018.435 6  23045089.577    23045097.042          14.000
        16.750
  -2951662.295 7  -2299155.936 6  22016610.835    22016617.288          20.250
        20.500
   4522738.423 6   3530724.191 6  21610142.608    21610148.444          19.750
        22.500
   6735184.336 6   5248199.769 6  22265112.421    22265119.687          17.750
        20.000
  15947212.093 6  12426399.111 5  23781705.194    23781712.765          12.000
        11.500
 99  3  3  1 48  0.0030000  0  6G17G 5G 6G30G10G24
  -2688420.407 5  -2088156.512 6  24047217.585    24047225.718           9.750
        13.500
  15554851.798 6  12081548.315 6  23057918.077    23057925.487          14.000
        16.750
  -2956326.677 7  -2302790.501 6  22015723.265    22015729.558          20.250
        20.250
   4560273.153 6   3559972.032 6  21617285.288    21617291.198          19.750
        22.500
   6780284.300 6   5283342.604 6  22273694.608    22273702.120          17.750
        20.000
  16004813.703 6  12471283.486 5  23792666.397    23792674.030          12.000
        11.500
 99  3  3  1 48 15.0030000  0  6G17G 5G 6G30G10G24
  -2702192.074 5  -2098887.627 6  24044596.843    24044605.147          10.000
        13.750
  15622334.177 6  12134131.982 6  23070759.569    23070766.940          14.000
        16.750
  -2960941.536 7  -2306386.480 6  22014845.030    22014851.429          20.250
        20.250
   4597950.162 6   3589330.745 6  21624454.851    21624460.788          19.500
        22.500
   6825511.247 6   5318584.387 6  22282301.085    22282308.354          17.750
        20.000
  16062419.749 6  12516171.315 5  23803628.382    23803635.847          12.000
        11.500
 99  3  3  1 48 30.0030000  0  6G17G 5G 6G30G10G24
  -2715916.350 5  -2109581.819 6  24041985.272    24041993.358          10.000
        13.750
  15689878.446 6  12186763.881 6  23083612.921    23083620.253          14.000
        16.750
  -2965516.540 7  -2309951.399 6  22013974.351    22013980.843          20.250
        20.250
   4635761.754 6   3618794.332 6  21631650.132    21631656.104          19.500
        22.500
   6870858.668 6   5353920.047 6  22290930.421    22290937.628          17.750
        20.000
  16120020.749 6  12561055.211 5  23814589.437    23814597.046          12.000
        11.250
 99  3  3  1 48 45.0030000  0  6G17G 5G 6G30G10G24
  -2729587.323 5  -2120234.478 6  24039383.585    24039391.948          10.000
        14.000
  15757487.947 6  12239446.604 6  23096478.507    23096485.933          13.750
        16.750
  -2970046.712 7  -2313481.385 6  22013112.374    22013118.796          20.250
        20.500
   4673716.707 6   3648369.626 6  21638872.608    21638878.554          19.500
        22.250
   6916334.193 6   5389355.529 6  22299584.101    22299591.390          17.500
        20.000
  16177623.077 6  12605940.142 5  23825550.913    23825558.460          12.250
        11.250
 99  3  3  1 49  0.0030000  0  6G17G 5G 6G30G10G24
  -2743208.506 5  -2130848.339 6  24036791.647    24036799.726          10.000
        14.000
  15825157.013 6  12292175.747 6  23109355.468    23109362.905          13.750
        16.500
  -2974537.486 7  -2316980.674 6  22012257.655    22012264.214          20.250
        20.500
   4711810.969 6   3678053.468 6  21646121.866    21646127.769          19.500
        22.250
   6961935.075 6   5424888.691 6  22308261.593    22308268.878          17.500
        20.000
  16235225.246 6  12650824.950 5  23836512.397    23836519.843          12.250
        11.250
 99  3  3  1 49 15.0030000  0  6G17G 5G 6G30G10G24
  -2756778.998 5  -2141422.705 6  24034209.163    24034217.214          10.000
        14.000
  15892884.715 6  12344950.577 6  23122243.663    23122250.933          13.500
        16.500
  -2978989.269 7  -2320449.577 6  22011410.351    22011416.960          20.250
        20.500
   4750044.284 6   3707845.666 6  21653397.343    21653403.272          19.500
        22.250
   7007666.531 6   5460523.593 6  22316964.054    22316971.351          17.500
        19.750
  16292830.490 6  12695712.149 5  23847474.265    23847481.843          12.250
        11.250
 99  3  3  1 49 30.0030000  0  6G17G 5G 6G30G10G24
  -2770300.684 5  -2151959.033 6  24031636.171    24031644.276          10.000
        14.000
  15960665.325 6  12397766.631 6  23135141.726    23135149.097          13.750
        16.500
  -2983402.261 7  -2323888.259 6  22010570.647    22010577.144          20.250
        20.250
   4788415.031 6   3737744.959 6  21660698.999    21660705.050          19.250
        22.250
   7053527.611 6   5496259.507 6  22325691.069    22325698.370          17.750
        19.750
  16350437.093 6  12740600.418 5  23858436.491    23858443.862          12.250
        11.000
 99  3  3  1 49 45.0030000  0  6G17G 5G 6G30G10G24
  -2783770.051 5  -2162454.597 6  24029072.897    24029080.937          10.000
        14.000
  16028499.677 6  12450624.574 6  23148050.241    23148057.554          13.750
        16.500
  -2987769.659 7  -2327291.413 6  22009739.616    22009746.218          20.250
        20.500
   4826923.437 6   3767751.512 6  21668027.069    21668032.968          19.250
        22.250
   7099520.178 6   5532097.876 6  22334443.147    22334450.452          17.750
        19.750
  16408050.399 6  12785493.905 5  23869399.851    23869407.409          12.000
        11.000
 99  3  3  1 50  0.0030000  0  6G17G 5G 6G30G10G24
  -2797189.672 5  -2172911.403 6  24026519.280    24026527.292          10.000
        14.000
  16096388.406 6  12503524.872 6  23160969.054    23160976.413          13.500
        16.500
  -2992093.150 7  -2330660.353 6  22008916.921    22008923.452          20.250
        20.500
   4865564.982 6   3797861.810 6  21675380.116    21675386.077          19.250
        22.250
   7145641.483 6   5568036.561 6  22343219.749    22343227.077          17.500
        19.500
  16465670.947 6  12830393.029 5  23880364.585    23880371.894          12.000
        10.750
 99  3  3  1 50 15.0030000  0  6G17G 5G 6G30G10G24
  -2810559.560 5  -2183329.451 6  24023974.937    24023983.015          10.000
        14.000
  16164336.075 6  12556471.106 6  23173899.108    23173906.546          13.500
        16.500
  -2996370.064 7  -2333992.995 6  22008103.038    22008109.667          20.250
        20.500
   4904342.238 6   3828077.858 6  21682759.218    21682765.171          19.250
        22.000
   7191899.341 6   5604081.651 6  22352022.351    22352029.542          17.500
        19.500
  16523301.056 6  12875299.609 5  23891331.233    23891338.417          12.000
        10.750
 99  3  3  1 50 30.0030000  0  6G17G 5G 6G30G10G24
  -2823885.157 5  -2193712.995 6  24021439.194    24021447.312          10.000
        14.000
  16232338.597 6  12609460.084 6  23186839.601    23186846.890          13.500
        16.250
  -3000607.535 7  -2337294.907 6  22007296.671    22007303.194          20.250
        20.500
   4943248.778 6   3858394.647 6  21690162.827    21690168.866          19.250
        22.250
   7238287.529 6   5640228.297 6  22360849.655    22360856.937          17.500
        19.500
  16580932.442 5  12920207.183 5  23902298.038    23902305.315          11.750
        10.750
 99  3  3  1 50 45.0030000  0  6G17G 5G 6G30G10G24
  -2837167.750 5  -2204063.022 6  24018911.476    24018919.636          10.000
        14.000
  16300398.449 6  12662493.741 6  23199790.905    23199798.222          13.500
        16.250
  -3004803.597 7  -2340564.554 6  22006498.147    22006504.757          20.000
        20.500
   4982286.014 6   3888813.276 6  21697591.249    21697597.265          18.750
        22.250
   7284805.120 6   5676475.774 6  22369701.687    22369708.917          17.500
        19.500
  16638566.183 5  12965116.591 5  23913265.351    23913272.823          11.500
        10.750
 99  3  3  1 51  0.0030000  0  6G17G 5G 6G30G10G24
  -2850404.207 5  -2214377.094 6  24016392.444    24016400.831          10.000
        14.000
  16368521.893 6  12715576.936 6  23212754.390    23212761.776          13.250
        16.250
  -3008953.614 7  -2343798.313 6  22005708.351    22005714.890          20.000
        20.500
   5021456.614 6   3919335.828 6  21705045.124    21705051.194          18.750
        22.250
   7331455.471 6   5712826.708 6  22378579.015    22378586.229          17.500
        19.250
  16696206.440 5  13010031.085 5  23924233.983    23924241.272          11.750
        10.500
 99  3  3  1 51 15.0030000  0  6G17G 5G 6G30G10G24
  -2863602.318 5  -2224661.286 6  24013880.905    24013889.249          10.000
        14.000
  16436703.956 6  12768705.817 6  23225728.921    23225736.351          13.250
        16.000
  -3013061.990 7  -2346999.629 6  22004926.624    22004933.140          20.000
        20.500
   5060751.380 6   3949955.134 6  21712522.819    21712528.815          18.750
        22.250
   7378230.235 6   5749274.575 6  22387479.897    22387487.046          17.750
        19.250
  16753845.491 5  13054944.622 5  23935202.233    23935209.772          11.500
        10.500
 99  3  3  1 51 30.0030000  0  6G17G 5G 6G30G10G24
  -2876759.716 5  -2234913.764 6  24011377.257    24011385.444          10.000
        14.000
  16504948.349 6  12821883.264 6  23238715.397    23238722.827          13.500
        16.000
  -3017124.395 7  -2350165.132 6  22004153.569    22004160.077          20.000
        20.500
   5100172.468 6   3980672.869 6  21720024.437    21720030.483          18.750
        22.250
   7425128.517 6   5785818.696 6  22396404.499    22396411.460          17.750
        19.250
  16811483.175 5  13099857.109 5  23946170.351    23946177.593          11.500
        10.500
 99  3  3  1 51 45.0030000  0  6G17G 5G 6G30G10G24
  -2889877.608 5  -2245135.461 6  24008880.905    24008889.058          10.000
        14.000
  16573257.287 6  12875111.012 6  23251714.296    23251721.538          13.500
        15.750
  -3021140.508 7  -2353294.551 6  22003389.304    22003395.737          20.000
        20.500
   5139720.384 6   4011489.431 6  21727550.140    21727556.249          18.750
        22.250
   7472144.807 6   5822454.771 6  22405351.312    22405358.417          17.750
        19.250
  16869116.549 5  13144766.235 5  23957137.655    23957144.921          11.500
        10.000
 99  3  3  1 52  0.0030000  0  6G17G 5G 6G30G10G24
  -2902954.992 5  -2255325.576 6  24006392.296    24006400.354          10.000
        14.000
  16641634.488 6  12928391.946 6  23264726.038    23264733.339          13.500
        15.750
  -3025111.458 7  -2356388.786 6  22002633.593    22002640.097          20.000
        20.500
   5179396.456 6   4042405.853 6  21735100.202    21735106.374          18.750
        22.250
   7519280.437 6   5859183.842 6  22414320.968    22414328.159          17.750
        19.000
  16926745.273 5  13189671.728 5  23968103.976    23968111.401          11.250
        10.000
 99  3  3  1 52 15.0030000  0  6G17G 5G 6G30G10G24
  -2915992.588 5  -2265484.705 6  24003911.366    24003919.405          10.000
        14.000
  16710079.924 6  12981726.051 6  23277750.726    23277757.968          13.500
        15.500
  -3029038.259 6  -2359448.616 6  22001886.343    22001892.878          19.750
        20.500
   5219203.210 6   4073424.107 6  21742675.218    21742681.276          18.750
        22.250
   7566535.918 6   5896006.298 6  22423313.351    22423320.538          17.500
        19.000
  16984365.121 5  13234570.316 5  23979068.655    23979075.960          11.250
        10.000
 99  3  3  1 52 30.0030000  0  6G17G 5G 6G30G10G24
  -2928991.143 5  -2275613.404 6  24001437.905    24001445.944          10.000
        14.000
  16778591.106 6  13035111.384 6  23290788.054    23290795.190          13.500
        15.500
  -3032922.863 6  -2362475.568 6  22001147.124    22001153.604          19.750
        20.500
   5259143.658 6   4104546.535 6  21750275.546    21750281.690          18.500
        22.250
   7613909.374 6   5932920.683 6  22432328.202    22432335.374          17.500
        18.750
  17041972.756 5  13279459.379 5  23990030.983    23990038.097          11.250
         9.750
 99  3  3  1 52 45.0030000  0  6G17G 5G 6G30G10G24
  -2941947.020 5  -2285708.849 6  23998972.343    23998980.374          10.000
        14.250
  16847170.940 6  13088550.220 6  23303838.296    23303845.511          13.250
        15.250
  -3036759.972 6  -2365465.502 6  22000416.866    22000423.323          19.750
        20.500
   5299223.727 6   4135777.765 6  21757902.593    21757908.714          18.500
        22.250
   7661400.863 6   5969927.039 6  22441365.530    22441372.616          17.500
        18.750
  17099574.506 5  13324343.875 5  24000992.179    24000999.538          11.250
         9.750
 99  3  3  1 53  0.0030000  0  6G17G 5G 6G30G10G24
  -2954868.638 5  -2295777.601 6  23996513.312    23996521.632          10.000
        14.250
  16915805.793 6  13142031.922 6  23316899.093    23316906.351          13.500
        15.250
  -3040557.174 6  -2368424.349 6  21999694.163    21999700.706          19.750
        20.750
   5339435.023 6   4167111.243 6  21765554.437    21765560.581          18.500
        22.250
   7709004.176 6   6007020.536 6  22450424.069    22450431.261          17.500
        18.750
  17157163.697 5  13369218.567 5  24011951.101    24011958.335          11.250
         9.750
 99  3  3  1 53 15.0030000  0  6G17G 5G 6G30G10G24
  -2967745.126 5  -2305811.182 6  23994063.147    23994071.124          10.000
        14.250
  16984500.457 6  13195560.231 6  23329971.343    23329978.315          13.250
        15.250
  -3044306.511 6  -2371345.892 6  21998980.780    21998987.366          19.750
        21.000
   5379787.463 6   4198554.705 6  21773233.374    21773239.515          18.500
        22.250
   7756726.871 6   6044207.055 6  22459505.429    22459512.690          17.500
        18.750
  17214749.852 5  13414090.902 5  24022909.272    24022916.456          11.000
         9.750
 99  3  3  1 53 30.0030000  0  6G17G 5G 6G30G10G24
  -2980574.998 5  -2315808.444 6  23991621.647    23991629.761          10.000
        14.250
  17053252.190 6  13249133.005 6  23343054.343    23343061.460          13.250
        15.000
  -3048006.436 6  -2374228.940 6  21998276.796    21998283.366          19.500
        20.750
   5420284.743 6   4230111.028 6  21780939.749    21780945.874          18.500
        22.250
   7804568.548 6   6081486.292 6  22468609.358    22468616.640          17.250
        18.750
  17272334.745 5  13458962.249 5  24033867.226    24033874.444          11.000
         9.500
 99  3  3  1 53 45.0030000  0  6G17G 5G 6G30G10G24
  -2993364.460 5  -2325774.217 6  23989187.897    23989195.812          10.250
        14.250
  17122052.445 6  13302743.594 6  23356146.530    23356153.612          13.250
        15.000
  -3051664.714 6  -2377079.524 6  21997580.577    21997587.112          19.750
        20.750
   5460924.117 6   4261778.076 6  21788673.147    21788679.257          18.500
        22.250
   7852522.876 6   6118853.300 6  22477734.765    22477742.022          17.500
        18.750
  17329913.297 5  13503828.653 5  24044824.296    24044831.530          11.000
         9.500
 99  3  3  1 54  0.0030000  0  6G17G 5G 6G30G10G24
  -3006111.008 5  -2335706.555 6  23986762.476    23986770.300          10.250
        14.250
  17190899.954 6  13356391.004 6  23369247.866    23369254.874          13.250
        14.750
  -3055280.646 6  -2379897.121 6  21996892.491    21996899.030          19.500
        20.750
   5501706.152 6   4293556.289 6  21796433.804    21796439.874          18.500
        22.500
   7900592.243 6   6156309.955 6  22486881.952    22486889.202          17.500
        18.500
  17387488.076 5  13548692.121 5  24055780.335    24055787.612          10.750
         9.750
 99  3  3  1 54 15.0030000  0  6G17G 5G 6G30G10G24
  -3018814.327 5  -2345605.202 6  23984344.921    23984352.788          10.000
        14.250
  17259791.250 6  13410072.527 6  23382357.405    23382364.417          13.250
        14.750
  -3058854.077 6  -2382681.599 6  21996212.421    21996218.952          19.750
        21.000
   5542631.773 6   4325446.381 6  21804221.624    21804227.776          18.500
        22.500
   7948775.366 6   6193855.252 6  22496051.101    22496058.272          17.500
        18.500
  17445060.835 5  13593554.016 5  24066736.015    24066743.351          10.750
         9.500
 99  3  3  1 54 30.0030000  0  6G17G 5G 6G30G10G24
  -3031470.461 5  -2355467.080 6  23981936.397    23981944.562          10.000
        14.250
  17328728.694 6  13463790.022 6  23395475.788    23395482.827          13.000
        14.500
  -3062380.608 6  -2385429.527 6  21995541.390    21995547.823          19.750
        21.000
   5583703.290 6   4357450.161 6  21812037.327    21812043.483          18.500
        22.750
   7997072.913 6   6231489.709 6  22505241.835    22505249.011          17.500
        18.500
  17502636.101 5  13638417.861 5  24077692.108    24077699.503          10.750
         9.500
 99  3  3  1 54 45.0030000  0  6G17G 5G 6G30G10G24
  -3044080.307 5  -2365292.899 6  23979536.655    23979544.745          10.000
        14.250
  17397711.336 6  13517542.728 6  23408602.772    23408609.851          13.000
        14.500
  -3065859.845 6  -2388140.604 6  21994879.257    21994885.644          19.750
        21.000
   5624916.485 6   4389564.341 6  21819879.937    21819886.069          18.500
        22.750
   8045482.951 6   6269211.814 6  22514453.929    22514461.085          17.500
        18.500
  17560213.877 5  13683283.669 5  24088648.952    24088656.503          10.750
         9.500
 99  3  3  1 55  0.0030000  0  6G17G 5G 6G30G10G24
  -3056640.848 5  -2375080.293 6  23977146.483    23977154.589          10.000
        14.250
  17466740.703 6  13571331.843 6  23421738.726    23421745.757          13.000
        14.250
  -3069287.223 6  -2390811.275 6  21994227.124    21994233.562          19.750
        21.000
   5666269.807 6   4421787.707 6  21827749.194    21827755.335          18.500
        22.750
   8094010.473 6   6307025.470 6  22523688.343    22523695.444          17.500
        18.500
  17617796.302 5  13728153.099 5  24099606.382    24099613.878          10.750
         9.750
 99  3  3  1 55 15.0030000  0  6G17G 5G 6G30G10G24
  -3069152.346 5  -2384829.471 6  23974765.530    23974773.663          10.000
        14.250
  17535820.829 6  13625160.514 6  23434884.124    23434891.069          13.000
        14.250
  -3072662.965 6  -2393441.703 6  21993584.616    21993591.116          19.750
        21.250
   5707762.447 6   4454119.642 6  21835644.858    21835651.058          18.500
        22.750
   8142655.356 6   6344930.587 6  22532945.022    22532952.206          17.500
        18.250
  17675381.844 5  13773024.952 5  24110564.530    24110572.022          10.750
         9.500
 99  3  3  1 55 30.0030000  0  6G17G 5G 6G30G10G24
  -3081614.695 5  -2394540.362 6  23972394.210    23972402.132          10.000
        14.250
  17604956.083 6  13679032.141 6  23448040.093    23448047.128          13.000
        14.000
  -3075982.907 6  -2396028.655 6  21992952.874    21992959.366          19.750
        21.250
   5749396.656 6   4486561.886 6  21843567.710    21843573.894          18.250
        22.750
   8191420.348 6   6382929.283 6  22542224.819    22542232.015          17.500
        18.250
  17732970.638 5  13817899.344 5  24121523.483    24121531.026          10.750
         9.750
 99  3  3  1 55 45.0030000  0  6G17G 5G 6G30G10G24
  -3094029.321 5  -2404214.049 6  23970031.812    23970039.687          10.000
        14.250
  17674147.620 6  13732947.624 6  23461206.812    23461213.792          13.000
        14.000
  -3079249.072 6  -2398573.706 6  21992331.351    21992337.788          19.750
        21.250
   5791167.868 6   4519110.886 6  21851516.499    21851522.620          18.250
        22.750
   8240306.431 6   6421022.339 6  22551527.671    22551534.671          17.500
        18.250
  17790559.851 5  13862774.062 5  24132482.171    24132489.745          10.500
         9.750
 99  3  3  1 56  0.0030000  0  6G17G 5G 6G30G10G24
  -3106396.131 5  -2413850.490 6  23967678.366    23967686.366          10.000
        14.250
  17743397.152 6  13786908.296 6  23474384.593    23474391.597          12.750
        13.750
  -3082461.435 6  -2401076.828 6  21991719.999    21991726.483          19.750
        21.250
   5833072.527 6   4551763.872 6  21859490.577    21859496.737          18.250
        22.750
   8289314.811 6   6459210.693 6  22560853.616    22560860.655          17.500
        18.250
  17848146.519 5  13907646.788 5  24143440.616    24143448.175          10.500
         9.750
 99  3  3  1 56 15.0030000  0  6G17G 5G 6G30G10G24
  -3118715.096 5  -2423449.646 6  23965334.015    23965342.015          10.000
        14.250
  17812706.066 6  13840915.232 6  23487573.624    23487580.604          12.750
        13.500
  -3085619.667 6  -2403537.777 6  21991119.054    21991125.530          19.750
        21.250
   5875108.362 6   4584519.060 6  21867489.843    21867496.073          18.250
        22.750
   8338448.167 6   6497496.434 6  22570203.421    22570210.366          17.500
        18.000
  17905732.793 5  13952519.212 5  24154398.882    24154406.538          10.250
         9.750
 99  3  3  1 56 30.0030000  0  6G17G 5G 6G30G10G24
  -3130988.776 5  -2433013.512 6  23962998.296    23963006.358          10.250
        14.250
  17882073.933 6  13894968.117 6  23500773.913    23500780.874          12.750
        13.500
  -3088723.389 6  -2405956.244 6  21990528.405    21990534.819          19.750
        21.500
   5917273.625 6   4617375.113 6  21875513.562    21875519.729          18.250
        22.750
   8387708.207 6   6535880.889 6  22579577.171    22579584.249          17.250
        18.250
  17963316.674 5  13997389.775 5  24165356.593    24165364.452          10.000
         9.750
 99  3  3  1 56 45.0030000  0  6G17G 5G 6G30G10G24
  -3143217.700 5  -2442542.507 6  23960671.272    23960679.155          10.250
        14.250
  17951500.587 6  13949066.809 6  23513985.327    23513992.245          12.750
        13.500
  -3091774.490 7  -2408333.708 6  21989947.772    21989954.147          20.000
        21.500
   5959565.808 6   4650330.061 6  21883561.608    21883567.745          18.250
        22.500
   8437098.508 6   6574366.845 6  22588975.812    22588982.901          17.250
        18.000
  18020895.818 5  14042256.645 5  24176313.530    24176321.269          10.000
         9.750
 99  3  3  1 57  0.0030000  0  6G17G 5G 6G30G10G24
  -3155405.516 5  -2452039.473 6  23958351.913    23958359.819          10.500
        14.250
  18020983.321 6  14003209.196 6  23527207.413    23527214.487          12.750
        13.500
  -3094774.603 7  -2410671.444 6  21989376.960    21989383.413          20.000
        21.500
   6001982.648 6   4683382.144 6  21891633.155    21891639.370          18.000
        22.500
   8486618.266 6   6612953.673 6  22598399.101    22598406.241          17.000
        18.000
  18078467.893 5  14087118.008 5  24187269.155    24187277.038          10.000
         9.750
 99  3  3  1 57 15.0030000  0  6G17G 5G 6G30G10G24
  -3167546.645 5  -2461500.059 6  23956041.585    23956049.394          10.250
        14.250
  18090528.425 6  14057400.181 6  23540441.390    23540448.550          12.750
        13.500
  -3097718.519 7  -2412965.386 6  21988816.804    21988823.171          20.000
        21.500
   6044531.924 6   4716537.424 6  21899730.140    21899736.272          18.000
        22.500
   8536271.222 6   6651644.299 6  22607847.741    22607854.772          17.250
        18.000
  18136040.055 5  14131979.436 5  24198224.788    24198232.663          10.000
        10.000
 99  3  3  1 57 30.0030000  0  6G17G 5G 6G30G10G24
  -3179647.262 5  -2470929.074 6  23953738.812    23953746.733          10.500
        14.250
  18160127.688 6  14111633.378 6  23553685.772    23553692.831          12.500
        13.500
  -3100614.769 7  -2415222.194 6  21988265.663    21988272.058          20.000
        21.500
   6087207.063 6   4749790.780 6  21907850.882    21907856.999          18.000
        22.500
   8586048.226 6   6690431.579 6  22617320.062    22617327.065          17.000
        18.000
  18193603.927 5  14176834.400 5  24209178.710    24209186.694           9.750
        10.000
 99  3  3  1 57 45.0030000  0  6G17G 5G 6G30G10G24
  -3191700.579 5  -2480321.237 6  23951445.147    23951453.034          10.250
        14.250
  18229781.358 6  14165908.957 6  23566940.397    23566947.554          12.500
        13.500
  -3103460.884 7  -2417439.927 6  21987723.866    21987730.312          20.000
        21.750
   6130009.459 6   4783143.296 6  21915995.874    21916002.030          18.000
        22.750
   8635952.223 6   6729317.820 6  22626816.444    22626823.562          17.000
        17.750
  18251163.807 5  14221686.270 5  24220132.007    24220139.944           9.750
        10.000
 99  3  3  1 58  0.0030000  0  6G17G 5G 6G30G10G24
  -3203708.865 5  -2489678.308 6  23949160.015    23949167.937          10.250
        14.250
  18299483.616 6  14220222.409 6  23580204.218    23580211.339          12.500
        13.500
  -3106262.892 7  -2419623.291 6  21987190.679    21987197.073          20.000
        21.750
   6172933.237 6   4816590.398 6  21924163.952    21924170.124          18.000
        22.500
   8685975.076 6   6768296.679 6  22636335.335    22636342.581          16.750
        17.750
  18308715.207 5  14266531.515 5  24231083.710    24231091.608           9.750
        10.000
 99  3  3  1 58 15.0030000  0  6G17G 5G 6G30G10G24
  -3215671.191 5  -2498999.561 6  23946883.655    23946891.640          10.250
        14.250
  18369234.531 6  14274573.763 6  23593477.405    23593484.331          12.500
        13.500
  -3109015.520 7  -2421768.189 6  21986666.937    21986673.339          20.000
        22.000
   6215981.119 6   4850134.199 6  21932355.632    21932361.933          18.000
        22.500
   8736118.135 6   6807369.194 6  22645877.280    22645884.433          16.750
        17.750
  18366260.669 5  14311372.141 5  24242034.241    24242042.347           9.750
        10.250
 99  3  3  1 58 30.0030000  0  6G17G 5G 6G30G10G24
  -3227583.388 5  -2508281.763 6  23944616.866    23944624.733          10.250
        14.250
  18439035.594 6  14328964.203 6  23606760.163    23606767.194          12.500
        13.500
  -3111715.476 7  -2423872.030 6  21986153.046    21986159.468          20.250
        21.750
   6259155.020 6   4883776.203 6  21940571.312    21940577.628          18.000
        22.500
   8786382.923 6   6846536.566 6  22655442.390    22655449.507          16.750
        17.750
  18423802.490 5  14356209.927 5  24252984.226    24252992.257           9.750
        10.250
 99  3  3  1 58 45.0030000  0  6G17G 5G 6G30G10G24
  -3239444.546 5  -2517524.190 6  23942359.671    23942367.558          10.250
        14.250
  18508885.559 6  14383392.756 6  23620052.226    23620059.194          12.500
        13.500
  -3114362.065 7  -2425934.291 6  21985649.319    21985655.784          20.250
        21.750
   6302454.640 6   4917516.165 6  21948811.062    21948817.253          17.750
        22.500
   8836763.945 6   6885794.513 6  22665029.351    22665036.577          16.750
        17.500
  18481336.892 5  14401041.924 5  24263932.491    24263940.772           9.500
        10.500
 99  3  3  1 59  0.0030000  0  6G17G 5G 6G30G10G24
  -3251257.552 5  -2526729.091 6  23940112.030    23940119.788          10.500
        14.250
  18578783.687 6  14437858.827 6  23633353.546    23633360.413          12.500
        13.250
  -3116958.562 7  -2427957.515 6  21985155.601    21985161.831          20.250
        22.000
   6345880.418 6   4951354.433 6  21957074.843    21957080.870          18.000
        22.250
   8887257.297 6   6925139.992 6  22674638.218    22674645.026          16.750
        17.000
  18538861.911 5  14445866.634 5  24274879.312    24274887.331           9.750
        10.500
 99  3  3  1 59 15.0030000  0  6G17G 5G 6G30G10G24
  -3263024.286 5  -2535897.945 6  23937872.796    23937880.456          10.500
        14.250
  18648729.547 6  14492362.104 6  23646663.757    23646670.710          12.750
        13.250
  -3119505.712 7  -2429942.298 6  21984670.866    21984677.093          20.500
        22.000
   6389431.444 6   4985290.301 6  21965362.405    21965368.421          18.000
        22.500
   8937857.727 6   6964568.902 6  22684267.101    22684274.042          16.500
        17.000
  18596375.431 5  14490682.367 5  24285823.679    24285831.690           9.500
        10.750
 99  3  3  1 59 30.0030000  0  6G17G 5G 6G30G10G24
  -3274738.750 5  -2545026.065 6  23935643.538    23935651.347          10.500
        14.250
  18718725.957 6  14546904.752 6  23659983.624    23659990.585          12.500
        13.500
  -3122002.147 7  -2431887.553 6  21984195.796    21984202.038          20.250
        21.500
   6433110.809 6   5019326.168 6  21973674.390    21973680.417          18.000
        22.250
   8988568.730 6   7004083.981 6  22693917.124    22693923.972          16.750
        17.000
  18653880.920 5  14535491.847 5  24296766.757    24296774.913           9.500
        10.750
 99  3  3  1 59 45.0030000  0  6G17G 5G 6G30G10G24
  -3286405.030 5  -2554116.636 6  23933423.397    23933431.229          10.500
        14.250
  18788769.360 6  14601484.023 6  23673312.397    23673319.390          12.250
        13.250
  -3124452.555 7  -2433796.953 6  21983729.468    21983735.687          20.250
        21.750
   6476915.640 6   5053459.797 6  21982010.093    21982016.144          18.000
        22.250
   9039389.051 6   7043684.242 6  22703587.874    22703594.737          16.750
        16.750
  18711374.629 5  14580292.142 5  24307707.569    24307715.601           9.500
        10.750
 99  3  3  2  0  0.0030000  0  6G17G 5G 6G30G10G24
  -3298026.860 5  -2563172.583 6  23931212.015    23931219.749          10.500
        14.250
  18858861.713 6  14656101.436 6  23686650.718    23686657.573          12.500
        13.250
  -3126854.144 7  -2435668.300 6  21983272.468    21983278.718          20.500
        22.000
   6520846.815 6   5087691.881 6  21990370.007    21990375.987          18.000
        22.250
   9090317.968 6   7083369.108 6  22713279.233    22713286.218          16.500
        17.000
  18768858.818 5  14625085.031 5  24318646.522    24318654.464           9.750
        10.750
 99  3  3  2  0 15.0030000  0  6G17G 5G 6G30G10G24
  -3309605.382 5  -2572194.777 6  23929008.616    23929016.229           9.750
        14.000
  18929004.508 6  14710758.153 6  23699998.116    23700005.179          12.250
        13.500
  -3129205.247 7  -2437500.312 6  21982824.921    21982831.222          20.000
        22.250
   6564906.231 6   5122023.891 6  21998754.171    21998760.147          18.250
        22.000
   9141359.760 6   7123141.950 6  22722992.272    22722999.120          16.500
        16.250
  18826334.602 5  14669871.338 5  24329583.640    24329591.710           9.500
        10.750
 99  3  3  2  0 30.0030000  0  6G17G 5G 6G30G10G24
  -3321141.236 5  -2581183.720 6  23926813.194    23926820.897          10.500
        14.250
  18999200.628 6  14765456.438 6  23713356.069    23713363.128          12.250
        13.000
  -3131507.648 7  -2439294.375 6  21982386.835    21982393.140          20.250
        22.000
   6609095.700 6   5156457.247 6  22007162.968    22007169.054          18.000
        22.250
   9192516.568 6   7163004.392 6  22732727.101    22732734.062          16.500
        16.750
  18883804.739 5  14714653.264 5  24340519.819    24340528.222           9.250
        11.250
 99  3  3  2  0 45.0030000  0  6G17G 5G 6G30G10G24
  -3332638.978 5  -2590142.966 6  23924625.296    23924633.015          10.500
        14.250
  19069447.254 6  14820194.054 6  23726723.640    23726730.495          12.250
        13.000
  -3133765.618 7  -2441053.826 6  21981957.132    21981963.413          20.250
        22.000
   6653414.642 6   5190991.482 6  22015596.726    22015602.659          18.000
        22.250
   9243783.781 6   7202952.874 6  22742482.882    22742489.757          16.250
        16.750
  18941267.720 5  14759429.627 5  24351454.507    24351462.729           9.250
        11.250
 99  3  3  2  1  0.0030000  0  6G17G 5G 6G30G10G24
  -3344099.795 5  -2599073.438 6  23922444.351    23922452.284          10.500
        14.250
  19139745.623 6  14874972.013 6  23740100.952    23740107.839          12.250
        13.000
  -3135979.518 7  -2442778.921 6  21981535.929    21981542.187          20.250
        22.000
   6697865.479 6   5225628.499 6  22024055.499    22024061.499          18.000
        22.000
   9295163.829 6   7242989.281 6  22752260.171    22752267.085          16.500
        16.750
  18998726.438 5  14804202.667 5  24362388.421    24362396.800           9.000
        11.000
 99  3  3  2  1 15.0030000  0  6G17G 5G 6G30G10G24
  -3355518.118 5  -2607970.804 6  23920271.632    23920279.366          10.250
        14.250
  19210097.537 6  14929791.682 6  23753488.507    23753495.448          12.000
        13.000
  -3138145.092 6  -2444466.366 6  21981123.780    21981130.069          19.750
        21.750
   6742449.391 6   5260369.207 6  22032539.476    22032545.433          18.250
        22.000
   9346661.036 6   7283116.983 6  22762059.749    22762066.690          16.250
        16.500
  19056185.575 5  14848976.007 5  24373322.585    24373331.011           9.000
        11.250
 99  3  3  2  1 30.0030000  0  6G17G 5G 6G30G10G24
  -3366889.884 5  -2616831.889 6  23918107.476    23918115.222          10.250
        13.500
  19280500.633 5  14984651.247 6  23766885.733    23766892.507          11.000
        12.000
  -3140258.582 7  -2446113.227 6  21980721.538    21980727.815          20.000
        22.000
   6787164.138 6   5295211.864 6  22041048.413    22041054.503          18.500
        22.750
   9398275.652 6   7323336.164 6  22771881.733    22771888.651          16.250
        16.500
  19113647.704 5  14893751.695 5  24384257.397    24384265.585           9.000
        11.250
 99  3  3  2  1 45.0030000  0  6G17G 5G 6G30G10G24
  -3378219.486 5  -2625660.126 6  23915951.554    23915959.233          10.500
        14.250
  19350951.079 5  15039547.687 6  23780291.866    23780298.964          11.750
        13.000
  -3142320.835 6  -2447720.174 6  21980329.015    21980335.312          19.750
        22.000
   6832008.129 6   5330155.237 6  22049581.835    22049587.952          18.000
        22.000
   9450006.071 6   7363645.586 6  22781725.491    22781732.472          16.250
        16.750
  19171109.045 5  14938526.780 5  24395191.663    24395200.124           9.000
        11.250
 99  3  3  2  2  0.0030000  0  6G17G 5G 6G30G10G24
  -3389505.165 5  -2634454.127 6  23913803.632    23913811.601          10.250
        14.500
  19421449.880 5  15094481.824 6  23793707.679    23793714.511          11.750
        13.000
  -3144325.339 6  -2449282.114 6  21979947.522    21979953.870          19.750
        22.000
   6876984.368 6   5365201.653 6  22058140.593    22058146.679          18.250
        21.750
   9501854.466 6   7404046.935 6  22791591.968    22791598.890          16.000
        16.750
  19228571.665 5  14983302.862 5  24406126.624    24406135.104           9.000
        11.250
 99  3  3  2  2 15.0030000  0  6G17G 5G 6G30G10G24
  -3400741.113 5  -2643209.374 6  23911665.655    23911673.417          10.500
        14.250
  19491997.992 5  15149454.374 6  23807132.343    23807139.362          11.500
        13.000
  -3146267.343 6  -2450795.351 6  21979578.069    21979584.397          19.750
        22.000
   6922093.528 6   5400351.648 6  22066724.562    22066730.503          18.250
        21.750
   9553823.113 6   7444541.994 6  22801481.366    22801488.362          16.250
        16.500
  19286037.235 5  15028081.226 5  24417062.147    24417070.401           9.000
        11.250
 99  3  3  2  2 30.0030000  0  6G17G 5G 6G30G10G24
  -3411927.682 5  -2651926.154 6  23909537.038    23909544.812          10.500
        14.500
  19562593.670 5  15204463.988 6  23820566.390    23820573.335          11.500
        13.000
  -3148150.112 6  -2452262.431 6  21979219.733    21979226.011          19.750
        22.000
   6967333.879 6   5435603.868 6  22075333.483    22075339.511          18.000
        21.750
   9605907.142 6   7485126.954 6  22811392.562    22811399.487          16.000
        16.750
  19343503.302 5  15072859.980 5  24427997.499    24428005.769           9.000
        11.000
 99  3  3  2  2 45.0030000  0  6G17G 5G 6G30G10G24
  -3423067.497 5  -2660606.504 6  23907417.288    23907424.870          10.500
        14.500
  19633233.207 5  15259507.780 6  23834008.444    23834015.444          11.250
        12.750
  -3149973.475 6  -2453683.218 6  21978872.632    21978879.034          19.500
        22.000
   7012703.806 6   5470957.050 6  22083967.210    22083973.081          18.500
        21.750
   9658099.169 6   7525796.067 6  22821324.397    22821331.300          16.000
        16.500
  19400966.064 5  15117636.150 5  24438931.944    24438940.503           8.500
        11.250
 99  3  3  2  3  0.0030000  0  6G17G 5G 6G30G10G24
  -3434152.030 5  -2669243.772 6  23905307.765    23905315.511          10.750
        14.500
  19703919.427 5  15314587.954 6  23847459.647    23847466.640          11.250
        12.750
  -3151729.027 6  -2455051.170 6  21978538.679    21978544.913          19.500
        22.000
   7058209.337 6   5506415.908 6  22092626.585    22092632.558          18.500
        22.000
   9710404.044 6   7566553.110 6  22831277.687    22831284.706          15.750
        16.750
  19458429.714 5  15162413.030 5  24449867.187    24449875.331           9.250
        10.750
 99  3  3  2  3 15.0030000  0  6G17G 5G 6G30G10G24
  -3445179.319 5  -2677836.434 6  23903209.343    23903217.042          10.500
        14.500
  19774651.726 5  15369704.030 6  23860919.640    23860926.495          11.250
        12.750
  -3153417.830 6  -2456367.106 6  21978217.218    21978223.499          19.250
        22.000
   7103848.044 6   5541978.532 6  22101311.233    22101317.229          18.250
        21.500
   9762819.213 6   7607396.104 6  22841252.054    22841258.835          16.250
        16.250
  19515891.374 5  15207188.356 5  24460801.968    24460810.116           9.000
        11.000
 99  3  3  2  3 30.0030000  0  6G17G 5G 6G30G10G24
  -3456156.092 5  -2686389.732 6  23901120.538    23901128.308          10.500
        14.750
  19845422.510 5  15424850.087 6  23874386.929    23874393.601          11.250
        12.500
  -3155044.672 6  -2457634.769 6  21977907.530    21977913.948          19.250
        22.000
   7149613.278 6   5577639.756 6  22110020.022    22110026.124          18.000
        21.750
   9815337.898 6   7648319.754 6  22851245.913    22851252.854          16.000
        16.500
  19573345.327 5  15251957.685 5  24471734.772    24471743.155           8.250
        11.000
 99  3  3  2  3 45.0030000  0  6G17G 5G 6G30G10G24
  -3467083.755 5  -2694904.772 6  23899040.960    23899048.843          10.500
        14.750
  19916235.499 5  15480029.041 6  23887861.960    23887869.062          11.000
        12.750
  -3156608.490 6  -2458853.309 6  21977610.015    21977616.456          19.000
        22.000
   7195510.642 6   5613403.933 6  22118754.116    22118760.065          18.250
        21.500
   9867963.070 6   7689326.396 6  22861260.194    22861267.073          15.750
        16.500
  19630793.724 5  15296722.658 5  24482666.944    24482675.335           8.500
        11.500
 99  3  3  2  4  0.0030000  0  6G17G 5G 6G30G10G24
  -3477963.900 5  -2703382.772 6  23896970.757    23896978.476          10.750
        14.750
  19987092.610 5  15535242.374 6  23901345.835    23901352.726          11.000
        12.750
  -3158110.078 6  -2460023.366 6  21977324.116    21977330.546          18.750
        22.000
   7241538.550 6   5649269.832 6  22127512.843    22127518.780          18.250
        21.500
   9920692.277 6   7730414.090 6  22871294.140    22871300.964          16.000
        16.250
  19688238.122 5  15341484.545 5  24493598.272    24493606.499           8.750
        11.000
 99  3  3  2  4 15.0030000  0  6G17G 5G 6G30G10G24
  -3488797.220 5  -2711824.298 6  23894909.194    23894916.921          10.750
        14.750
  20057991.485 5  15590488.251 6  23914837.202    23914844.358          10.750
        12.500
  -3159553.777 6  -2461148.314 6  21977049.257    21977055.761          18.750
        22.000
   7287690.465 6   5685232.363 6  22136295.288    22136301.327          18.250
        21.500
   9973522.521 6   7771580.518 6  22881347.491    22881354.304          16.250
        16.250
  19745678.702 5  15386243.438 5  24504528.882    24504537.026           8.750
        10.750
 99  3  3  2  4 30.0030000  0  6G17G 5G 6G30G10G24
  -3499580.466 5  -2720226.799 6  23892857.210    23892864.671          10.750
        14.750
  20128938.639 5  15645771.740 6  23928337.983    23928345.034          11.000
        12.500
  -3160936.624 6  -2462225.847 6  21976786.343    21976792.710          18.750
        21.750
   7333972.342 6   5721296.156 6  22145102.335    22145108.370          18.250
        21.500
  10026458.947 6   7812829.680 6  22891420.960    22891427.831          16.000
        16.250
  19803121.454 5  15431004.027 5  24515459.757    24515467.933           8.750
        11.000
 99  3  3  2  4 45.0030000  0  6G17G 5G 6G30G10G24
  -3510317.109 5  -2728592.979 6  23890813.991    23890821.651          11.000
        14.750
  20199931.375 5  15701090.760 6  23941847.554    23941854.542          11.000
        12.500
  -3162258.484 6  -2463255.853 6  21976534.851    21976541.187          18.750
        22.000
   7380383.891 6   5757461.001 6  22153934.335    22153940.304          18.250
        21.500
  10079500.542 6   7854160.792 6  22901514.476    22901521.206          16.250
        16.000
  19860565.500 5  15475765.641 5  24526390.913    24526399.128           9.000
        10.750
 99  3  3  2  5  0.0030000  0  6G17G 5G 6G30G10G24
  -3521007.843 5  -2736923.395 6  23888779.624    23888787.229          11.250
        14.500
  20270964.520 5  15756441.263 6  23955364.616    23955371.632          10.750
        12.500
  -3163521.784 6  -2464240.234 6  21976294.421    21976300.722          18.750
        21.750
   7426921.899 6   5793724.383 6  22162790.272    22162796.183          18.500
        21.250
  10132648.685 6   7895574.943 6  22911628.249    22911634.964          16.000
        16.000
  19918008.526 5  15520526.425 5  24537322.085    24537330.304           9.000
        10.750
 99  3  3  2  5 15.0030000  0  6G17G 5G 6G30G10G24
  -3531654.503 5  -2745219.466 6  23886753.640    23886761.081          11.250
        14.500
  20342037.043 5  15811822.438 6  23968889.351    23968896.237          10.750
        12.500
  -3164728.841 6  -2465180.783 6  21976064.663    21976071.026          18.750
        21.750
   7473583.672 6   5830084.205 6  22171669.679    22171675.671          18.500
        21.250
  10185905.153 6   7937073.488 6  22921762.601    22921769.269          16.000
        16.000
  19975450.622 5  15565286.514 5  24548252.960    24548261.038           9.000
        10.750
 99  3  3  2  5 30.0030000  0  6G17G 5G 6G30G10G24
  -3542261.004 5  -2753484.244 6  23884735.163    23884742.851          11.250
        14.500
  20413146.971 5  15867232.779 6  23982421.077    23982428.003          10.750
        12.500
  -3165880.057 6  -2466077.826 6  21975845.569    21975851.870          19.000
        21.750
   7520366.917 6   5866538.683 6  22180572.335    22180578.237          18.500
        21.250
  10239270.092 6   7978656.565 6  22931917.679    22931924.476          16.000
        16.000
  20032891.323 5  15610045.500 5  24559183.655    24559191.608           9.000
        10.500
 99  3  3  2  5 45.0030000  0  6G17G 5G 6G30G10G24
  -3552831.141 5  -2761720.694 6  23882723.796    23882731.448          11.250
        14.500
  20484293.527 5  15922671.643 6  23995959.968    23995966.968          10.750
        12.500
  -3166977.162 6  -2466932.694 6  21975636.952    21975643.218          19.000
        21.750
   7567270.519 6   5903086.942 6  22189497.780    22189503.651          18.500
        21.250
  10292742.581 6   8020323.440 6  22942093.132    22942099.808          16.000
        16.000
  20090328.073 5  15654801.427 5  24570113.437    24570121.593           8.750
        10.750
 99  3  3  2  6  0.0030000  0  6G17G 5G 6G30G10G24
  -3563361.225 5  -2769925.920 6  23880719.905    23880727.538          11.500
        14.500
  20555482.090 5  15978143.262 6  24009506.796    24009513.659          10.750
        12.500
  -3168016.385 6  -2467742.464 6  21975439.085    21975445.374          18.750
        21.750
   7614297.230 6   5939731.129 6  22198446.702    22198452.636          18.750
        21.250
  10346323.836 6   8062075.078 6  22952289.304    22952295.972          16.000
        16.000
  20147762.712 5  15699555.684 5  24581042.866    24581050.917           9.000
        10.750
 99  3  3  2  6 15.0040000  0  6G17G 5G 6G30G10G24
  -3573853.367 5  -2778101.595 6  23878723.371    23878730.902          11.750
        14.500
  20626712.895 5  16033647.774 6  24023061.332    24023068.434          10.750
        12.250
  -3169000.317 6  -2468509.148 6  21975251.863    21975258.078          19.000
        21.500
   7661446.076 6   5976470.489 6  22207418.746    22207424.668          18.750
        21.000
  10400017.222 6   8103914.082 6  22962506.785    22962513.535          16.000
        16.000
  20205196.418 5  15744309.233 5  24591972.262    24591980.262           9.000
        10.500
 99  3  3  2  6 30.0040000  0  6G17G 5G 6G30G10G24
  -3584304.780 5  -2786245.521 6  23876734.543    23876741.871          11.750
        14.500
  20697974.868 5  16089176.586 6  24036622.207    24036629.023          10.500
        12.250
  -3169925.686 6  -2469230.198 6  21975075.855    21975082.070          19.250
        22.000
   7708715.816 6   6013304.053 6  22216413.855    22216419.836          18.500
        21.000
  10453819.384 6   8145837.852 6  22972745.105    22972751.742          16.000
        16.000
  20262620.523 5  15789055.302 5  24602899.832    24602907.742           9.000
        10.500
 99  3  3  2  6 45.0040000  0  6G17G 5G 6G30G10G24
  -3594713.205 5  -2794355.957 6  23874753.926    23874761.465          11.750
        14.750
  20769275.408 5  16144735.447 6  24050190.090    24050197.227          10.250
        12.250
  -3170790.750 6  -2469904.264 6  21974911.184    21974917.445          19.250
        22.000
   7756112.089 6   6050236.211 6  22225433.113    22225438.977          18.750
        21.000
  10507734.978 6   8187850.003 6  22983004.746    22983011.434          16.000
        15.500
  20320038.418 5  15833796.515 5  24613825.926    24613834.070           9.000
        10.750
 99  3  3  2  7  0.0040000  0  6G17G 5G 6G30G10G24
  -3605079.496 5  -2802433.558 6  23872781.199    23872788.672          11.750
        14.500
  20840610.449 5  16200321.192 6  24063764.582    24063771.793          10.500
        12.500
  -3171600.974 6  -2470535.594 6  21974756.965    21974763.180          19.250
        22.000
   7803629.012 6   6087262.384 6  22234475.238    22234481.055          18.750
        21.000
  10561758.985 6   8229946.637 6  22993285.215    22993291.867          16.000
        15.250
  20377445.189 5  15878529.079 5  24624750.215    24624758.367           8.750
        10.750
 99  3  3  2  7 15.0040000  0  6G17G 5G 6G30G10G24
  -3615399.914 6  -2810475.416 6  23870817.410    23870824.941          12.000
        14.750
  20911985.001 5  16255937.721 6  24077346.824    24077353.910          10.500
        12.250
  -3172353.336 6  -2471121.837 6  21974613.855    21974620.078          19.500
        22.000
   7851268.547 6   6124384.097 6  22243540.902    22243546.711          18.750
        20.500
  10615892.727 6   8272128.785 6  23003586.582    23003593.234          16.000
        15.500
  20434844.018 5  15923255.429 5  24635672.566    24635680.891           8.750
        10.750
 99  3  3  2  7 30.0040000  0  6G17G 5G 6G30G10G24
  -3625677.376 6  -2818483.800 6  23868861.457    23868868.988          12.000
        14.750
  20983399.121 5  16311585.083 6  24090936.457    24090943.543          10.500
        12.250
  -3173047.519 6  -2471662.744 6  21974481.777    21974487.996          19.500
        22.000
   7899028.566 6   6161599.693 6  22252629.082    22252634.902          18.750
        20.500
  10670132.883 6   8314393.843 6  23013908.262    23013914.648          16.000
        15.500
  20492232.270 5  15967973.563 5  24646593.324    24646601.367           8.750
        10.500
 99  3  3  2  7 45.0040000  0  6G17G 5G 6G30G10G24
  -3635902.060 6  -2826451.058 6  23866915.855    23866923.461          12.250
        14.750
  21054863.406 5  16367271.531 6  24104535.762    24104542.750          10.500
        12.250
  -3173676.916 6  -2472153.168 6  21974361.949    21974368.191          19.500
        22.000
   7946916.664 6   6198915.095 6  22261742.035    22261747.805          18.750
        20.500
  10724486.209 6   8356747.095 6  23024251.277    23024257.844          15.750
        15.500
  20549617.001 5  16012688.946 5  24657513.410    24657521.426           8.500
        10.500
 99  3  3  2  8  0.0040000  0  6G17G 5G 6G30G10G24
  -3646075.744 6  -2834378.570 6  23864979.769    23864987.254          12.250
        14.750
  21126375.491 5  16422995.231 6  24118144.082    24118151.047          10.500
        12.250
  -3174243.899 6  -2472594.957 6  21974254.043    21974260.207          19.500
        22.000
   7994929.723 6   6236327.860 6  22270878.660    22270884.410          18.750
        20.500
  10778949.075 6   8399185.697 6  23034615.098    23034621.648          15.750
        15.250
  20606997.230 5  16057400.810 5  24668432.465    24668440.379           8.500
        10.500
 99  3  3  2  8 15.0040000  0  6G17G 5G 6G30G10G24
  -3656197.708 6  -2842265.791 6  23863053.707    23863061.242          12.500
        15.000
  21197932.046 5  16478753.580 6  24131760.934    24131767.859          10.750
        12.250
  -3174748.556 6  -2472988.180 6  21974158.019    21974164.125          19.500
        21.750
   8043066.867 6   6273837.325 6  22280038.824    22280044.586          18.500
        20.500
  10833521.625 6   8441709.768 6  23044999.848    23045006.465          15.750
        15.250
  20664374.962 5  16102110.745 5  24679350.996    24679359.105           8.500
        10.500
 99  3  3  2  8 30.0040000  0  6G17G 5G 6G30G10G24
  -3666263.306 6  -2850109.089 6  23861138.269    23861145.687          12.750
        15.000
  21269534.147 5  16534547.416 6  24145386.418    24145393.375          10.750
        12.250
  -3175187.644 6  -2473330.312 6  21974074.418    21974080.648          19.500
        22.000
   8091333.937 6   6311448.027 6  22289223.730    22289229.492          18.500
        20.250
  10888208.160 6   8484322.654 6  23055406.230    23055413.039          15.750
        15.250
  20721754.638 5  16146822.185 5  24690269.926    24690278.019           8.250
        10.500
 99  3  3  2  8 45.0040000  0  6G17G 5G 6G30G10G24
  -3676273.904 6  -2857909.528 6  23859233.340    23859240.633          12.750
        14.750
  21341182.857 5  16590377.581 6  24159020.566    24159027.668          10.500
        12.500
  -3175562.104 6  -2473622.086 6  21974003.098    21974009.383          19.500
        21.750
   8139728.946 6   6349158.423 6  22298432.934    22298438.730          18.500
        20.250
  10943003.891 6   8527020.632 6  23065833.480    23065840.242          15.500
        15.250
  20779132.206 5  16191531.982 5  24701188.496    24701196.586           8.250
        10.500
 99  3  3  2  9  0.0040000  0  6G17G 5G 6G30G10G24
  -3686228.269 6  -2865666.141 6  23857338.973    23857346.430          13.000
        14.500
  21412879.738 5  16646245.278 6  24172664.113    24172671.094          10.500
        12.250
  -3175871.667 6  -2473863.279 6  21973944.184    21973950.406          19.500
        21.750
   8188251.436 6   6386968.159 6  22307666.527    22307672.312          18.500
        20.250
  10997909.731 6   8569804.406 6  23076281.918    23076288.641          15.250
        15.250
  20836509.490 5  16236241.559 5  24712106.894    24712115.113           8.250
         9.500
 99  3  3  2  9 15.0040000  0  6G17G 5G 6G30G10G24
  -3696129.995 6  -2873381.745 6  23855454.887    23855462.148          13.000
        14.750
  21484621.128 5  16702147.660 6  24186315.910    24186323.191          10.250
        12.500
  -3176114.871 6  -2474052.779 6  21973897.934    21973904.062          19.500
        21.750
   8236903.283 6   6424878.681 6  22316924.738    22316930.336          18.750
        20.250
  11052923.277 6   8612672.120 6  23086750.605    23086757.180          15.500
        15.250
  20893885.701 5  16280950.291 5  24723024.871    24723033.176           7.750
         9.750
 99  3  3  2  9 30.0040000  0  6G17G 5G 6G30G10G24
  -3705983.216 6  -2881059.548 6  23853579.879    23853587.180          13.000
        14.750
  21556401.643 5  16758080.524 6  24199975.324    24199982.539          10.250
        12.500
  -3176292.637 6  -2474191.284 6  21973864.082    21973870.238          19.500
        21.750
   8285683.297 6   6462889.082 6  22326207.137    22326212.926          18.250
        20.250
  11108040.907 6   8655620.925 6  23097239.035    23097245.887          15.000
        15.500
  20951258.747 5  16325656.566 5  24733943.090    24733951.375           8.000
         9.750
 99  3  3  2  9 45.0040000  0  6G17G 5G 6G30G10G24
  -3715784.716 6  -2888697.049 6  23851714.512    23851721.941          13.250
        15.000
  21628225.342 5  16814047.045 6  24213642.980    24213650.117          10.000
        12.750
  -3176403.676 6  -2474277.784 6  21973842.949    21973849.113          19.500
        21.750
   8334593.870 6   6501001.212 6  22335514.598    22335520.297          18.500
        20.000
  11163267.317 6   8698654.497 6  23107748.277    23107755.059          15.250
        15.250
  21008631.553 5  16370362.661 5  24744860.691    24744868.766           8.000
        10.000
 99  3  3  2 10  0.0040000  0  6G17G 5G 6G30G10G24
  -3725538.492 6  -2896297.363 6  23849858.355    23849865.941          13.250
        15.000
  21700083.746 5  16870040.595 6  24227317.254    24227324.269          10.000
        12.500
  -3176453.171 6  -2474316.338 6  21973833.504    21973839.551          19.750
        21.750
   8383631.803 6   6539212.592 6  22344846.215    22344851.945          18.250
        20.250
  11218595.817 6   8741767.627 6  23118277.012    23118283.613          15.250
        15.000
  21066001.087 5  16415066.188 5  24755777.762    24755785.852           8.250
        10.000
 99  3  3  2 10 15.0040000  0  6G17G 5G 6G30G10G24
  -3735251.429 6  -2903865.871 6  23848010.223    23848017.695          13.500
        15.250
  21771969.981 5  16926055.833 6  24240996.644    24241003.793          10.000
        12.500
  -3176443.936 7  -2474309.124 6  21973835.238    21973841.281          20.000
        21.750
   8432792.406 6   6577519.556 6  22354201.051    22354206.801          18.250
        20.000
  11274020.209 6   8784955.475 6  23128823.848    23128830.535          15.250
        15.000
  21123361.754 5  16459762.820 5  24766693.332    24766701.039           8.500
         9.750
 99  3  3  2 10 30.0040000  0  6G17G 5G 6G30G10G24
  -3744920.956 6  -2911400.527 6  23846170.129    23846177.598          13.500
        15.250
  21843887.359 5  16982095.350 6  24254682.184    24254689.180          10.000
        12.500
  -3176371.968 7  -2474253.035 6  21973848.918    21973855.000          20.000
        21.750
   8482078.582 6   6615924.364 6  22363580.004    22363585.680          18.250
        20.000
  11329541.844 6   8828219.090 6  23139389.316    23139395.832          15.500
        15.000
  21180713.155 5  16504452.224 5  24777606.918    24777614.750           8.750
         9.500
 99  3  3  2 10 45.0040000  0  6G17G 5G 6G30G10G24
  -3754543.924 6  -2918898.922 6  23844338.980    23844346.375          13.750
        15.250
  21915839.225 5  17038161.730 6  24268374.168    24268381.293          10.000
        12.750
  -3176235.260 7  -2474146.490 6  21973875.168    21973881.184          20.000
        21.750
   8531487.692 6   6654424.967 6  22372982.238    22372987.930          18.250
        19.750
  11385161.428 6   8871559.034 6  23149973.371    23149979.988          15.250
        15.000
  21238054.951 5  16549134.143 5  24788518.637    24788526.641           8.750
         9.750
 99  3  3  2 11  0.0040000  0  6G17G 5G 6G30G10G24
  -3764122.466 6  -2926362.688 6  23842516.254    23842523.719          13.750
        15.250
  21987825.060 5  17094254.584 6  24282072.519    24282079.715          10.000
        12.500
  -3176035.315 7  -2473990.675 6  21973913.043    21973919.230          20.000
        21.750
   8581014.619 6   6693017.374 6  22382407.004    22382412.660          18.000
        19.750
  11440880.187 6   8914976.252 6  23160576.434    23160582.969          15.250
        15.000
  21295387.182 5  16593808.612 5  24799428.574    24799436.762           8.750
         9.750
 99  3  3  2 11 15.0040000  0  6G17G 5G 6G30G10G24
  -3773655.752 6  -2933791.190 6  23840702.113    23840709.586          13.750
        15.000
  22059845.313 5  17150374.260 6  24295777.402    24295784.699          10.000
        12.750
  -3175772.189 7  -2473785.625 6  21973963.137    21973969.137          20.250
        21.750
   8630661.131 6   6731702.966 6  22391854.316    22391860.062          18.250
        19.750
  11496698.813 6   8958471.292 6  23171198.137    23171204.566          15.250
        14.750
  21352713.225 5  16638478.279 5  24810337.098    24810345.426           8.250
         9.750
 99  3  3  2 11 30.0040000  0  6G17G 5G 6G30G10G24
  -3783143.140 6  -2941183.938 6  23838896.551    23838903.992          14.000
        15.000
  22131903.209 5  17206523.266 6  24309489.809    24309496.762           9.750
        12.750
  -3175444.309 7  -2473530.118 6  21974025.598    21974031.527          20.250
        21.750
   8680425.524 6   6770480.412 6  22401324.207    22401329.820          18.000
        19.750
  11552618.793 6   9002045.312 6  23181839.410    23181846.027          15.250
        15.000
  21410035.171 5  16683144.733 5  24821245.551    24821253.457           8.250
         9.750
 99  3  3  2 11 45.0040000  0  6G17G 5G 6G30G10G24
  -3792583.555 6  -2948540.073 6  23837100.066    23837107.410          14.000
        15.000
  22204001.217 5  17262703.521 6  24323209.644    24323216.719           9.750
        12.750
  -3175052.358 7  -2473224.690 6  21974100.191    21974106.105          20.500
        21.500
   8730303.927 6   6809346.695 6  22410815.668    22410821.340          18.000
        19.750
  11608642.332 6   9045700.018 6  23192500.363    23192507.035          15.000
        15.000
  21467352.445 5  16727807.544 5  24832152.598    24832160.559           8.250
         9.750
 99  3  3  2 12  0.0040000  0  6G17G 5G 6G30G10G24
  -3801974.629 6  -2955857.774 6  23835313.019    23835320.359          14.000
        15.000
  22276139.191 5  17318914.918 6  24336936.902    24336944.098           9.500
        12.750
  -3174594.907 7  -2472868.218 6  21974187.238    21974193.207          20.500
        21.750
   8780297.233 6   6848302.519 6  22420329.059    22420334.816          18.000
        19.750
  11664770.399 6   9089436.178 6  23203181.144    23203187.801          15.000
        14.750
  21524664.678 5  16772466.438 5  24843058.769    24843066.754           8.250
         9.750
 99  3  3  2 12 15.0040000  0  6G17G 5G 6G30G10G24
  -3811315.245 6  -2963136.139 6  23833535.519    23833542.859          14.000
        15.000
  22348317.807 5  17375157.989 6  24350672.051    24350679.336           9.250
        12.750
  -3174068.850 7  -2472458.289 6  21974287.363    21974293.254          20.500
        21.750
   8830406.391 6   6887348.621 6  22429864.551    22429870.305          17.750
        19.750
  11721004.939 6   9133255.303 6  23213882.098    23213888.855          15.000
        14.750
  21581972.234 5  16817121.681 5  24853964.059    24853971.894           8.250
         9.750
 99  3  3  2 12 30.0040000  0  6G17G 5G 6G30G10G24
  -3820607.615 6  -2970376.919 6  23831767.113    23831774.527          14.250
        15.000
  22420535.042 5  17431431.154 6  24364414.473    24364421.937           9.250
        12.750
  -3173477.539 7  -2471997.518 6  21974399.910    21974405.812          21.000
        21.750
   8880626.625 6   6926481.265 6  22439421.121    22439426.863          18.000
        19.750
  11777344.502 6   9177156.275 6  23224603.254    23224609.984          14.750
        14.750
  21639271.597 5  16861770.547 5  24864867.644    24864875.637           8.250
         9.750
 99  3  3  2 12 45.0040000  0  6G17G 5G 6G30G10G24
  -3829850.724 6  -2977579.317 6  23830008.301    23830015.586          14.250
        15.000
  22492789.068 5  17487732.988 6  24378163.824    24378171.391           9.250
        12.500
  -3172823.606 7  -2471487.943 6  21974524.332    21974530.254          21.000
        21.750
   8930957.022 6   6965699.752 6  22448998.715    22449004.426          17.750
        19.750
  11833790.908 6   9221140.491 6  23235344.543    23235351.117          15.000
        14.500
  21696564.034 5  16906414.006 5  24875770.121    24875777.914           8.250
         9.750
 99  3  3  2 13  0.0040000  0  6G17G 5G 6G30G10G24
  -3839041.018 6  -2984740.559 6  23828259.379    23828266.723          14.000
        15.250
  22565082.125 5  17544065.236 6  24391920.871    24391928.125           9.250
        12.500
  -3172102.443 7  -2470925.985 6  21974661.527    21974667.445          21.000
        21.750
   8981402.845 6   7005008.184 6  22458598.168    22458603.891          17.750
        19.750
  11890349.364 6   9265212.022 6  23246107.332    23246113.980          15.000
        14.750
  21753854.218 5  16951055.703 5  24886672.137    24886680.051           8.250
         9.750
 99  3  3  2 13 15.0040000  0  6G17G 5G 6G30G10G24
  -3848184.595 6  -2991865.397 6  23826519.473    23826526.746          14.000
        15.000
  22637405.002 5  17600420.704 6  24405683.426    24405690.703           9.250
        12.250
  -3171318.736 7  -2470315.285 6  21974810.590    21974816.586          21.000
        21.750
   9031963.874 6   7044406.395 6  22468219.777    22468225.480          17.750
        19.750
  11947010.924 6   9309363.890 6  23256889.699    23256896.305          15.000
        14.750
  21811137.725 5  16995692.220 5  24897573.043    24897580.809           8.250
         9.750
 99  3  3  2 13 30.0040000  0  6G17G 5G 6G30G10G24
  -3857280.085 6  -2998952.772 6  23824788.559    23824795.887          14.000
        15.000
  22709757.294 5  17656799.125 6  24419451.652    24419459.008           9.250
        12.250
  -3170470.112 7  -2469654.009 6  21974972.223    21974978.113          21.000
        21.750
   9082644.699 6   7083897.933 6  22477863.965    22477869.664          17.750
        19.750
  12003771.901 6   9353593.236 6  23267690.973    23267697.652          15.000
        14.750
  21868413.663 5  17040322.823 5  24908472.379    24908480.059           8.250
        10.000
 99  3  3  2 13 45.0040000  0  6G17G 5G 6G30G10G24
  -3866326.483 6  -3006001.873 6  23823066.988    23823074.473          14.000
        15.250
  22782136.748 5  17713198.698 5  24433224.902    24433232.156           9.250
        11.750
  -3169554.437 7  -2468940.485 6  21975146.254    21975152.125          21.250
        21.750
   9133447.836 6   7123484.798 6  22487531.332    22487537.258          17.500
        20.000
  12060633.200 6   9397900.746 6  23278511.012    23278517.918          14.500
        14.500
  21925683.574 5  17084948.725 5  24919370.199    24919378.137           8.250
         9.750
 99  3  3  2 14  0.0040000  0  6G17G 5G 6G30G10G24
  -3875324.520 6  -3013013.307 6  23821354.809    23821362.246          14.000
        15.250
  22854538.448 5  17769615.602 6  24447002.535    24447009.699           9.500
        12.250
  -3168574.871 7  -2468177.173 6  21975332.582    21975338.562          21.250
        22.000
   9184373.582 6   7163167.195 6  22497221.980    22497227.871          17.500
        20.000
  12117591.682 6   9442283.986 6  23289350.012    23289356.812          14.500
        14.750
  21982944.589 5  17129567.716 5  24930266.441    24930274.590           8.000
        10.250
 99  3  3  2 14 15.0040000  0  6G17G 5G 6G30G10G24
  -3884274.450 6  -3019987.270 6  23819651.441    23819658.918          13.750
        15.250
  22926962.893 5  17826050.210 6  24460784.535    24460791.715           9.500
        12.250
  -3167531.160 7  -2467363.893 6  21975531.387    21975537.363          21.250
        22.000
   9235423.147 6   7202946.053 6  22506936.496    22506942.453          17.500
        20.000
  12174646.975 6   9486742.634 6  23300207.426    23300214.008          15.000
        14.250
  22040198.537 5  17174181.172 5  24941161.551    24941169.582           8.250
        10.000
 99  3  3  2 14 30.0040000  0  6G17G 5G 6G30G10G24
  -3893178.081 6  -3026925.133 6  23817957.137    23817964.582          13.750
        15.250
  22999410.587 5  17882502.964 5  24474570.965    24474578.023           9.500
        11.750
  -3166423.883 7  -2466501.067 6  21975742.051    21975747.941          21.250
        21.750
   9286594.483 6   7242819.818 6  22516674.144    22516680.105          17.000
        20.000
  12231797.057 6   9531275.173 6  23311082.793    23311089.156          15.250
        14.000
  22097446.042 5  17218789.617 5  24952055.371    24952063.453           8.000
        10.750
 99  3  3  2 14 45.0040000  0  6G17G 5G 6G30G10G24
  -3902032.826 6  -3033824.916 6  23816272.082    23816279.531          13.500
        15.000
  23071884.124 5  17938975.837 5  24488362.230    24488369.410           9.250
        11.750
  -3165249.191 7  -2465585.711 6  21975965.543    21975971.406          21.250
        21.750
   9337889.284 6   7282789.795 6  22526435.301    22526441.141          17.500
        20.000
  12289042.172 6   9575881.774 6  23321975.941    23321982.602          15.000
        14.250
  22154689.210 5  17263394.698 5  24962948.355    24962956.508           8.500
         9.750
 99  3  3  2 15  0.0040000  0  6G17G 5G 6G30G10G24
  -3910836.324 6  -3040684.760 6  23814597.004    23814604.344          13.500
        15.000
  23144385.989 5  17995470.781 5  24502158.684    24502165.789           9.250
        11.750
  -3164002.468 7  -2464614.222 6  21976202.863    21976208.789          21.250
        21.750
   9389310.938 6   7322858.610 6  22536220.434    22536226.359          17.500
        20.000
  12346384.147 6   9620563.834 6  23332887.965    23332894.430          15.000
        14.250
  22211928.536 5  17307996.771 5  24973840.887    24973848.684           8.250
        10.000
 99  3  3  2 15 15.0040000  0  6G17G 5G 6G30G10G24
  -3919589.562 6  -3047505.448 6  23812931.152    23812938.492          13.500
        15.000
  23216914.057 5  18051986.161 5  24515960.504    24515967.594           9.500
        11.750
  -3162684.399 7  -2463587.154 6  21976453.644    21976459.594          21.250
        21.750
   9440857.285 6   7363024.585 6  22546029.434    22546035.297          17.500
        20.250
  12403818.634 6   9665317.981 6  23343817.316    23343823.965          15.250
        14.500
  22269162.458 5  17352594.626 5  24984731.855    24984740.062           8.000
        10.250
 99  3  3  2 15 30.0040000  0  6G17G 5G 6G30G10G24
  -3928289.072 6  -3054284.254 6  23811275.691    23811283.125          13.500
        15.000
  23289475.544 5  18108527.573 5  24529768.637    24529775.543           9.500
        11.500
  -3161293.264 7  -2462503.129 6  21976718.254    21976724.312          20.750
        22.000
   9492530.639 6   7403289.544 6  22555862.559    22555868.570          17.000
        20.250
  12461351.395 6   9710148.723 6  23354765.324    23354771.945          15.000
        14.500
  22326395.373 5  17397191.719 5  24995623.105    24995630.980           8.000
        10.500
 99  3  3  2 17 15.0040000  4  2
END OF STATIC OBSERVATION                                   COMMENT
1.420                                                       COMMENT
 99  3  3  2 17 15.0040000  0  6G17G 5G 6G30G10G24
  -3987709.214 6  -3100585.534 6  23799968.160    23799975.719          13.000
        15.000
  23798390.865 5  18505084.945 5  24626611.660    24626618.953           9.000
        11.000
  -3149428.917 7  -2453258.105 6  21978975.879    21978981.906          20.500
        21.500
   9857477.572 6   7687663.751 6  22625309.551    22625315.574          17.500
        20.250
  12867043.633 6  10026272.569 6  23431966.074    23431972.766          15.250
        14.500
  22726906.508 5  17709278.311 5  25071837.629    25071845.750           8.000
        10.500
 99  3  3  2 17 30.0040000  0  6G17G 5G 6G30G10G24
  -3996016.209 6  -3107058.499 6  23798387.418    23798394.965          13.000
        15.000
  23871205.307 5  18561823.476 5  24640467.793    24640475.062           9.000
        10.750
  -3147444.002 7  -2451711.406 6  21979353.605    21979359.566          20.500
        21.250
   9910045.151 6   7728625.504 6  22635312.910    22635318.977          17.250
        21.000
  12925407.996 6  10071751.297 6  23443072.441    23443079.055          15.000
        14.000
  22784086.678 5  17753834.289 5  25082718.824    25082726.898           8.250
        10.250
 99  3  3  2 17 45.0040000  0  6G17G 5G 6G30G10G24
  -4004282.444 6  -3113499.705 6  23796814.355    23796821.801          13.000
        15.000
  23944046.854 5  18618583.116 5  24654329.254    24654336.414           9.000
        10.750
  -3145384.520 7  -2450106.599 6  21979745.434    21979751.387          20.250
        21.500
   9962719.823 6   7769670.694 6  22645336.496    22645342.535          17.500
        20.500
  12983873.132 6  10117308.558 6  23454197.941    23454204.629          15.000
        14.500
  22841257.500 5  17798382.979 5  25093598.137    25093606.035           8.250
        10.500
 99  3  3  2 18  0.0040000  0  6G17G 5G 6G30G10G24
  -4012509.221 6  -3119910.163 6  23795248.863    23795256.328          13.250
        15.250
  24016913.327 5  18675362.188 5  24668195.230    24668202.320           9.000
        10.750
  -3143252.910 7  -2448445.597 6  21980151.144    21980157.086          20.500
        21.500
  10015500.127 6   7810798.200 6  22655380.277    22655386.418          17.500
        20.500
  13042433.114 6  10162939.716 6  23465341.512    23465348.266          14.750
        14.250
  22898417.159 5  17842922.972 5  25104475.371    25104483.285           8.250
        10.500
 99  3  3  2 18 15.0040000  0  6G17G 5G 6G30G10G24
  -4020699.629 6  -3126292.279 6  23793690.238    23793697.582          13.250
        15.250
  24089803.239 5  18732159.520 5  24682065.715    24682072.848           8.750
        10.750
  -3141053.294 7  -2446731.595 6  21980569.691    21980575.602          20.250
        21.500
  10068388.192 6   7852009.681 6  22665444.559    22665450.727          17.500
        20.500
  13101081.203 6  10208639.532 6  23476501.754    23476508.496          14.750
        14.500
  22955565.523 5  17887454.162 5  25115350.184    25115358.133           8.500
        10.500
 99  3  3  2 18 30.0040000  0  6G17G 5G 6G30G10G24
  -4028851.735 6  -3132644.549 6  23792139.129    23792146.379          13.250
        15.250
  24162717.179 5  18788975.574 5  24695940.691    24695947.801           8.750
        10.750
  -3138786.166 7  -2444964.985 6  21981001.137    21981007.035          20.000
        21.500
  10121388.644 6   7893308.733 6  22675530.254    22675536.285          17.500
        20.500
  13159815.709 6  10254406.687 6  23487678.668    23487685.449          14.750
        14.250
  23012706.367 5  17931979.495 5  25126223.926    25126231.977           8.250
        10.500
 99  3  3  2 18 45.0040000  0  6G17G 5G 6G30G10G24
  -4036969.266 6  -3138969.887 6  23790594.262    23790601.684          13.000
        15.750
  24235653.705 5  18845809.229 5  24709820.113    24709827.269           8.500
        10.750
  -3136455.871 7  -2443149.156 6  21981444.480    21981450.473          20.000
        21.500
  10174498.189 6   7934692.787 6  22685636.676    22685642.734          17.500
        20.500
  13218635.425 6  10300240.229 6  23498871.738    23498878.422          14.750
        14.250
  23069837.369 5  17976497.156 5  25137095.519    25137103.340           8.250
        10.500
 99  3  3  2 19  0.0040000  0  6G17G 5G 6G30G10G24
  -4045046.870 6  -3145264.100 6  23789057.098    23789064.398          13.000
        15.750
  24308621.252 5  18902667.055 5  24723705.293    24723712.500           8.250
        10.750
  -3134058.420 7  -2441280.999 6  21981900.730    21981906.668          20.250
        21.500
  10227724.997 6   7976168.214 6  22695765.551    22695771.500          17.750
        20.500
  13277546.001 6  10346144.582 6  23510082.035    23510088.707          14.750
        14.000
  23126962.437 5  18021010.201 5  25147965.684    25147973.969           8.250
        10.000
 99  3  3  2 19 15.0040000  0  6G17G 5G 6G30G10G24
  -4053082.604 6  -3151525.696 6  23787527.707    23787535.172          13.000
        15.750
  24381621.421 5  18959550.297 5  24737596.754    24737603.992           8.250
        11.000
  -3131591.363 7  -2439358.603 6  21982370.144    21982376.129          20.000
        21.500
  10281073.349 6   8017738.361 6  22705917.277    22705923.293          17.500
        20.500
  13336548.222 6  10392120.341 6  23521309.793    23521316.402          14.750
        14.000
  23184084.002 5  18065520.509 5  25158835.707    25158843.637           8.250
        10.000
 99  3  3  2 19 30.0040000  0  6G17G 5G 6G30G10G24
  -4061076.011 6  -3157754.307 6  23786006.824    23786014.348          13.000
        16.000
  24454655.209 5  19016459.741 5  24751494.457    24751501.832           8.250
        11.000
  -3129056.163 7  -2437383.107 6  21982852.535    21982858.527          20.000
        21.750
  10334541.012 6   8059401.468 6  22716091.801    22716097.793          17.500
        20.500
  13395640.115 6  10438165.983 6  23532554.707    23532561.117          14.750
        14.000
  23241202.393 5  18110028.347 5  25169704.652    25169712.680           8.250
         9.750
 99  3  3  2 19 45.0040000  0  6G17G 5G 6G30G10G24
  -4069022.613 6  -3163946.448 6  23784494.730    23784502.082          13.000
        15.750
  24527725.572 5  19073397.684 5  24765399.379    24765406.824           8.250
        10.750
  -3126450.708 6  -2435352.870 6  21983348.324    21983354.355          19.750
        21.500
  10388128.115 6   8101157.653 6  22726289.254    22726295.141          17.750
        20.250
  13454824.024 6  10484283.325 6  23543816.973    23543823.621          15.000
        14.000
  23298319.476 5  18154535.168 5  25180573.769    25180581.820           8.250
        10.000
 99  3  3  2 20  0.0040000  0  6G17G 5G 6G30G10G24
  -4076921.123 6  -3170101.111 6  23782991.519    23782998.867          13.000
        15.750
  24600827.396 5  19130360.132 5  24779310.098    24779317.602           8.000
        11.000
  -3123780.210 6  -2433271.943 6  21983856.441    21983862.531          19.500
        21.500
  10441831.803 6   8143004.677 6  22736508.644    22736514.543          17.500
        20.500
  13514096.994 6  10530470.060 6  23555096.285    23555102.715          14.750
        14.000
  23355434.826 5  18199040.641 5  25191442.543    25191450.469           8.000
         9.750
 99  3  3  2 20 15.0040000  0  6G17G 5G 6G30G10G24
  -4084769.981 6  -3176217.083 6  23781498.012    23781505.211          13.000
        16.000
  24673959.941 5  19187346.529 5  24793226.754    24793234.211           8.250
        11.000
  -3121044.839 6  -2431140.475 6  21984376.793    21984382.957          19.500
        21.750
  10495654.290 6   8184944.273 6  22746750.738    22746756.746          17.500
        20.250
  13573461.322 6  10576727.988 6  23566392.855    23566399.492          14.500
        14.000
  23412551.593 5  18243547.207 5  25202311.394    25202319.469           8.250
         9.750
 99  3  3  2 20 30.0040000  0  6G17G 5G 6G30G10G24
  -4092570.113 6  -3182295.094 6  23780013.637    23780021.016          13.000
        16.000
  24747117.123 5  19244352.121 5  24807148.285    24807155.695           8.000
        11.000
  -3118243.919 6  -2428957.923 6  21984909.855    21984916.016          19.250
        21.750
  10549591.448 6   8226973.228 6  22757014.644    22757020.598          17.500
        20.250
  13632914.816 6  10623055.387 6  23577706.480    23577713.059          14.500
        14.000
  23469667.062 5  18288052.773 5  25213180.035    25213188.203           8.000
         9.750
 99  3  3  2 20 45.0040000  0  6G17G 5G 6G30G10G24
  -4100315.910 6  -3188330.762 6  23778539.582    23778547.019          13.000
        16.000
  24820304.073 5  19301380.910 5  24821075.152    24821082.672           8.000
        11.000
  -3115368.010 6  -2426716.937 6  21985457.019    21985463.238          19.250
        21.750
  10603646.273 6   8269093.868 6  22767300.894    22767306.832          17.500
        20.250
  13692466.450 6  10669459.262 6  23589038.746    23589045.410          14.500
        14.000
  23526785.911 5  18332560.963 5  25224049.559    25224057.414           8.000
         9.500
 99  3  3  2 21  0.0040000  0  6G17G 5G 6G30G10G24
  -4108012.987 6  -3194328.467 6  23777074.840    23777082.359          13.000
        16.000
  24893516.524 5  19358429.557 5  24835007.066    24835014.668           7.750
        11.000
  -3112421.405 6  -2424420.866 6  21986017.730    21986024.016          19.000
        21.750
  10657812.757 6   8311301.515 6  22777608.496    22777614.437          17.500
        20.250
  13752110.256 6  10715934.968 6  23600388.644    23600395.184          14.250
        14.000
  23583900.649 5  18377065.957 5  25234918.027    25234926.051           8.000
         9.500
 99  3  3  2 21 15.0040000  0  7G17G 5G 6G26G30G10G24
  -4115660.647 6  -3200287.660 6  23775619.629    23775627.016          13.250
        16.250
  24966750.677 5  19415495.123 5  24848943.066    24848950.504           7.750
        11.000
  -3109404.213 6  -2422069.791 6  21986591.902    21986598.164          19.000
        21.500
    -20380.531 4     -9072.88315  25236035.582    25236042.293           6.500
         7.750
  10712089.330 6   8353594.944 6  22787936.926    22787942.930          17.250
        20.000
  13811841.739 6  10762478.980 6  23611754.973    23611761.582          14.250
        13.500
  23641009.899 5  18421566.661 5  25245785.637    25245793.824           8.000
         9.500
 99  3  3  2 21 30.0040000  0  7G17G 5G 6G26G30G10G24
  -4123257.712 6  -3206207.432 6  23774173.824    23774181.117          13.250
        16.250
  25040002.028 5  19472574.089 5  24862882.309    24862889.762           7.750
        11.000
  -3106316.895 6  -2419664.074 6  21987179.285    21987185.566          19.000
        21.750
    -42202.865 4    -26077.253 5  25231882.824    25231889.824           6.750
         8.000
  10766471.044 6   8395970.305 6  22798285.473    22798291.480          17.250
        20.000
  13871657.173 6  10809088.418 6  23623137.449    23623143.996          14.250
        13.500
  23698112.510 5  18466062.208 5  25256651.785    25256660.008           8.250
         9.500
 99  3  3  2 21 45.0040000  0  7G17G 5G 6G26G30G10G24
  -4130797.102 6  -3212082.269 6  23772739.152    23772746.605          13.250
        16.500
  25113274.981 5  19529669.896 5  24876825.848    24876833.117           7.750
        11.250
  -3103154.640 6  -2417199.965 6  21987781.105    21987787.367          19.000
        21.750
    -64004.648 4    -43065.629 5  25227733.926    25227740.941           6.750
         7.750
  10820960.612 6   8438429.711 6  22808654.496    22808660.434          17.000
        20.000
  13931560.866 6  10855766.627 6  23634536.738    23634543.418          14.250
        13.750
  23755209.620 5  18510553.468 5  25267517.098    25267525.418           8.500
         9.500
 99  3  3  2 22  0.0040000  0  7G17G 5G 6G26G30G10G24
  -4138276.234 6  -3217910.138 6  23771315.902    23771323.305          13.250
        16.500
  25186571.348 5  19586783.944 5  24890773.566    24890781.043           7.750
        11.000
  -3099911.072 6  -2414672.494 6  21988398.340    21988404.625          18.750
        21.750
    -85782.281 4    -60035.176 5  25223589.926    25223596.578           7.250
         7.750
  10875562.402 6   8480976.560 6  22819044.832    22819050.734          17.000
        20.000
  13991555.548 6  10902515.736 6  23645953.410    23645959.984          14.000
        13.750
  23812301.755 5  18555040.841 5  25278381.230    25278389.519           8.250
         9.750
 99  3  3  2 22 15.0040000  0  7G17G 5G 6G26G30G10G24
  -4145700.160 6  -3223694.997 6  23769903.051    23769910.496          13.250
        16.750
  25259884.713 5  19643911.227 5  24904724.723    24904732.238           7.750
        11.000
  -3096585.702 6  -2412081.278 6  21989031.137    21989037.375          18.750
        21.750
   -107539.712 5    -76988.985 5  25219449.840    25219456.414           7.500
         7.750
  10930275.999 6   8523610.525 6  22829456.426    22829462.234          17.000
        19.750
  14051635.910 6  10949331.609 6  23657386.285    23657393.016          14.000
        13.500
  23869385.016 5  18599521.315 5  25289243.840    25289252.219           8.250
         9.500
 99  3  3  2 22 30.0040000  0  7G17G 5G 6G26G30G10G24
  -4153072.219 6  -3229439.438 6  23768500.379    23768507.797          13.500
        16.500
  25333217.915 5  19701053.978 5  24918679.527    24918687.176           8.000
        11.250
  -3093174.431 6  -2409423.126 6  21989680.246    21989686.625          19.250
        21.750
   -129279.974 4    -93929.419 5  25215312.324    25215319.488           7.250
         7.750
  10985102.650 6   8566332.594 6  22839889.723    22839895.711          16.750
        19.750
  14111803.565 6  10996215.506 6  23668835.941    23668842.586          14.000
        14.000
  23926457.827 5  18643993.636 5  25300104.605    25300112.773           8.500
         9.500
 99  3  3  2 22 45.0040000  0  7G17G 5G 6G26G30G10G24
  -4160397.157 6  -3235147.158 6  23767106.574    23767113.875          13.750
        16.750
  25406567.571 5  19758209.557 5  24932637.668    24932645.023           8.250
        11.250
  -3089678.903 6  -2406699.322 6  21990345.340    21990351.578          19.000
        21.750
   -151006.386 5   -110859.060 5  25211178.051    25211185.023           7.500
         7.750
  11040040.374 6   8609141.207 6  22850343.941    22850349.855          17.000
        19.750
  14172057.222 6  11043166.407 6  23680301.769    23680308.488          13.750
        14.000
  23983513.848 5  18688452.864 5  25310962.051    25310970.148           8.250
         9.250
 99  3  3  2 23  0.0040000  0  7G17G 5G 6G26G30G10G24
  -4167676.432 6  -3240819.297 6  23765721.387    23765728.555          14.000
        16.750
  25479935.233 5  19815379.154 5  24946598.949    24946606.457           8.250
        11.250
  -3086099.000 6  -2403909.768 6  21991026.504    21991032.781          19.250
        21.750
   -172713.033 5   -127773.283 5  25207047.379    25207054.195           7.500
         7.500
  11095090.870 6   8652037.697 6  22860819.715    22860825.566          16.750
        19.750
  14232396.271 6  11090183.857 6  23691783.730    23691790.680          13.500
        14.000
  24040554.238 5  18732899.915 5  25321816.394    25321824.617           8.250
         9.500
 99  3  3  2 23 15.0040000  0  7G17G 5G 6G26G30G10G24
  -4174911.818 6  -3246457.244 6  23764344.488    23764351.707          14.000
        17.000
  25553315.446 5  19872558.534 5  24960562.980    24960570.078           8.500
        11.000
  -3082438.331 6  -2401057.287 6  21991723.105    21991729.379          19.500
        21.500
   -194399.613 5   -144671.889 5  25202920.707    25202927.215           7.750
         7.500
  11150250.351 6   8695019.103 6  22871316.262    22871322.055          16.500
        19.500
  14292816.665 6  11137264.697 6  23703281.262    23703288.254          13.500
        14.500
  24097577.868 5  18777333.914 5  25332667.496    25332675.734           8.250
         9.500
 99  3  3  2 23 30.0040000  0  7G17G 5G 6G26G30G10G24
  -4182101.301 6  -3252059.415 6  23762976.363    23762983.699          14.250
        17.000
  25626709.098 5  19929748.382 5  24974529.309    24974536.566           8.500
        11.000
  -3078692.097 6  -2398138.135 6  21992436.098    21992442.320          19.500
        21.750
   -216060.660 5   -161550.599 5  25198798.418    25198805.082           7.500
         7.500
  11205521.075 6   8738087.194 6  22881833.910    22881839.773          16.500
        19.500
  14353324.257 6  11184413.471 6  23714795.512    23714802.535          13.500
        14.250
  24154591.256 5  18821759.916 5  25343516.793    25343525.090           8.000
         9.250
 99  3  3  2 23 45.0040000  0  7G17G 5G 6G26G30G10G24
  -4189246.027 6  -3257626.713 6  23761616.754    23761623.953          14.500
        17.000
  25700116.390 5  19986948.869 5  24988498.152    24988505.602           8.500
        11.250
  -3074860.567 6  -2395152.515 6  21993165.262    21993171.426          19.500
        21.750
   -237697.513 5   -178410.451 5  25194681.137    25194687.777           7.500
         7.250
  11260899.712 6   8781239.377 6  22892372.074    22892378.000          16.500
        19.500
  14413922.139 6  11231632.610 6  23726326.941    23726333.902          13.500
        14.000
  24211596.013 5  18866179.219 5  25354364.316    25354372.805           7.750
         9.250
 99  3  3  2 24  0.0040000  0  7G17G 5G 6G26G30G10G24
  -4196346.385 6  -3263159.431 6  23760265.527    23760272.719          14.500
        17.000
  25773540.738 5  20044162.631 5  25002470.410    25002477.598           8.250
        11.000
  -3070942.188 6  -2392099.211 6  21993911.004    21993917.109          19.750
        21.500
   -259307.826 5   -195249.609 5  25190569.019    25190575.250           7.750
         7.250
  11316388.381 6   8824477.303 6  22902931.184    22902937.082          16.250
        19.500
  14474614.741 6  11278925.558 6  23737876.301    23737883.414          13.250
        14.250
  24268593.826 5  18910593.093 5  25365210.566    25365219.086           7.750
         9.000
 99  3  3  2 24 15.0040000  0  7G17G 5G 6G26G30G10G24
  -4203407.809 6  -3268661.811 6  23758921.793    23758929.008          14.750
        17.250
  25846977.158 5  20101385.818 5  25016444.863    25016452.129           8.250
        10.750
  -3066939.279 6  -2388980.051 6  21994672.590    21994678.727          19.750
        21.500
   -280892.234 5   -212068.596 5  25186461.590    25186467.758           7.500
         6.750
  11371983.651 6   8867798.286 6  22913510.629    22913516.523          16.250
        19.500
  14535398.358 6  11326289.421 6  23749443.176    23749450.219          13.250
        14.000
  24325582.485 5  18954999.857 5  25376055.066    25376063.574           7.500
         9.000
 99  3  3  2 24 30.0040000  0  7G17G 5G 6G26G30G10G24
  -4210429.391 6  -3274133.153 6  23757585.574    23757592.742          15.000
        17.250
  25920428.718 5  20158620.796 5  25030422.137    25030429.508           8.250
        10.750
  -3062856.898 7  -2385798.961 6  21995449.480    21995455.625          20.000
        21.750
   -302451.993 5   -228868.381 5  25182358.832    25182364.715           7.750
         6.500
  11427683.946 6   8911201.113 6  22924110.004    22924115.914          16.000
        19.500
  14596272.487 6  11373723.806 6  23761027.004    23761034.199          13.000
        14.000
  24382560.640 4  18999398.412 5  25386897.613    25386906.434           7.250
         9.000
 99  3  3  2 24 45.0040000  0  7G17G 5G 6G26G30G10G24
  -4217402.996 6  -3279567.109 6  23756258.637    23756265.738          15.000
        17.250
  25993900.965 5  20215871.902 5  25044403.371    25044410.758           8.250
        11.000
  -3058692.875 6  -2382554.258 6  21996241.730    21996247.906          19.750
        21.250
   -323980.237 5   -245643.591 5  25178262.168    25178268.258           7.750
         7.000
  11483490.424 6   8954686.675 6  22934729.676    22934735.680          16.000
        19.500
  14657242.430 6  11421232.853 6  23772629.262    23772636.367          13.250
        14.250
  24439533.703 5  19043792.999 5  25397739.379    25397748.008           7.500
         8.500
 99  3  3  2 25  0.0040000  0  7G17G 5G 6G26G30G10G24
  -4224324.245 6  -3284960.272 6  23754941.488    23754948.684          15.000
        17.500
  26067391.837 5  20273137.501 5  25058388.457    25058395.637           8.000
        10.500
  -3054449.669 6  -2379247.847 6  21997049.355    21997055.441          19.750
        21.250
   -345476.295 5   -262393.735 5  25174171.512    25174177.477           7.500
         6.750
  11539400.703 6   8998253.127 6  22945368.996    22945374.965          15.750
        19.500
  14718306.170 6  11468814.999 6  23784249.176    23784256.586          13.000
        14.250
  24496505.257 5  19088186.420 5  25408580.660    25408589.055           7.500
         8.250
 99  3  3  2 25 15.0040000  0  7G17G 5G 6G26G30G10G24
  -4231192.222 6  -3290311.912 6  23753634.621    23753641.723          15.250
        17.250
  26140901.806 5  20330417.986 5  25072376.676    25072384.019           8.000
        10.500
  -3050131.536 7  -2375883.052 6  21997870.980    21997877.113          20.250
        21.250
   -366942.936 5   -279120.945 5  25170086.644    25170092.074           7.750
         6.250
  11595411.703 6   9041898.066 6  22956027.652    22956033.508          15.750
        19.250
  14779460.829 6  11516467.983 6  23795886.559    23795893.793          13.000
        14.000
  24553476.266 4  19132579.423 5  25419421.965    25419430.269           7.250
         8.250
 99  3  3  2 25 30.0050000  0  7G17G 5G 6G26G30G10G24
  -4238005.794 6  -3295621.170 6  23752337.829    23752344.919          15.250
        17.500
  26214437.973 5  20387718.888 5  25086370.274    25086377.782           8.250
        10.500
  -3045738.090 7  -2372459.578 6  21998707.173    21998713.243          20.250
        21.250
   -388384.050 5   -295828.276 5  25166006.306    25166012.130           7.500
         6.500
  11651527.664 6   9085624.784 6  22966706.095    22966712.114          15.750
        19.500
  14840711.401 6  11564195.707 6  23807542.235    23807549.395          13.000
        14.000
  24610451.867 4  19176975.987 5  25430263.829    25430272.325           7.250
         8.250
 99  3  3  2 25 45.0050000  0  7G17G 5G 6G26G30G10G24
  -4244765.065 6  -3300888.107 6  23751051.610    23751058.810          15.250
        17.500
  26287991.017 5  20445032.943 5  25100367.056    25100374.310           8.250
        10.000
  -3041271.933 7  -2368979.442 6  21999556.970    21999563.005          20.250
        21.000
   -409797.570 4   -312514.096 5  25161931.329    25161937.048           7.250
         6.500
  11707741.652 6   9129427.886 6  22977403.243    22977409.251          15.750
        19.500
  14902047.609 6  11611990.155 6  23819213.915    23819221.071          12.750
        14.000
  24667420.037 4  19221366.776 5  25441104.610    25441112.935           7.250
         8.250
 99  3  3  2 26  0.0050000  0  7G17G 5G 6G26G30G10G24
  -4251466.878 6  -3306110.271 6  23749776.423    23749783.509          15.250
        17.500
  26361568.010 5  20502365.675 5  25114368.368    25114375.544           8.000
        10.000
  -3036731.118 7  -2365441.130 6  22000420.931    22000426.993          20.000
        21.000
   -431181.924 4   -329177.202 5  25157862.306    25157867.919           7.250
         6.500
  11764061.889 6   9173313.785 6  22988120.540    22988126.571          15.500
        19.750
  14963473.279 6  11659854.322 6  23830903.040    23830910.071          13.250
        14.250
  24724382.003 4  19265752.704 5  25451944.204    25451952.208           7.000
         7.750
 99  3  3  2 26 15.0050000  0  7G17G 5G 6G26G30G10G24
  -4258118.479 6  -3311293.321 6  23748510.595    23748517.626          15.500
        17.500
  26435161.394 5  20559711.166 5  25128372.329    25128379.751           7.750
         9.750
  -3032123.078 7  -2361850.434 6  22001297.845    22001303.817          20.250
        21.000
   -452544.691 4   -345823.474 5  25153797.103    25153802.614           7.250
         6.250
  11820483.316 6   9217278.532 6  22998857.220    22998863.228          15.500
        19.500
  15024976.464 6  11707778.892 6  23842606.579    23842613.751          13.000
        14.250
  24781330.675 4  19310128.308 5  25462781.048    25462789.446           6.750
         7.750
 99  3  3  2 26 30.0050000  0  7G17G 5G 6G26G30G10G24
  -4264713.007 6  -3316431.886 6  23747255.774    23747262.704          15.500
        17.750
  26508778.428 5  20617075.094 5  25142381.228    25142388.622           7.750
         9.500
  -3027440.633 7  -2358201.759 6  22002188.931    22002194.821          20.500
        20.750
   -473882.976 4   -362450.679 5  25149736.321    25149742.224           7.250
         6.500
  11877012.112 6   9261326.939 6  23009614.204    23009620.267          15.750
        19.750
  15086560.711 6  11755766.600 6  23854325.634    23854332.661          13.000
        13.500
  24838276.083 4  19354501.345 5  25473617.071    25473625.774           6.250
         7.500
 99  3  3  2 26 45.0050000  0  7G17G 5G 6G26G30G10G24
  -4271253.669 6  -3321528.482 6  23746011.103    23746018.231          15.750
        17.750
  26582415.465 5  20674454.601 5  25156394.251    25156401.560           8.250
         9.750
  -3022686.984 7  -2354497.606 6  22003093.478    22003099.466          20.500
        21.000
   -495200.692 4   -379061.851 5  25145679.860    25145685.770           7.250
         6.500
  11933641.781 6   9305453.957 6  23020390.478    23020396.692          15.500
        19.500
  15148222.640 6  11803814.876 6  23866059.665    23866066.685          12.750
        14.000
  24895218.423 4  19398871.991 5  25484452.892    25484461.282           6.250
         7.500
 99  3  3  2 27  0.0050000  0  7G17G 5G 6G26G30G10G24
  -4277742.166 6  -3326584.428 6  23744776.290    23744783.372          15.750
        17.750
  26656070.974 5  20731848.503 5  25170410.251    25170417.622           7.750
         9.750
  -3017856.775 7  -2350733.798 6  22004012.649    22004018.630          20.250
        21.000
   -516494.409 4   -395654.331 5  25141627.532    25141633.481           7.250
         6.250
  11990371.405 6   9349658.852 6  23031185.837    23031191.911          15.500
        19.500
  15209964.671 6  11851925.555 6  23877808.821    23877815.923          12.750
        14.250
  24952160.213 3  19443242.245 5  25495288.454    25495297.177           6.000
         7.250
 99  3  3  2 27 15.0050000  0  7G17G 5G 6G26G30G10G24
  -4284178.483 6  -3331599.719 6  23743551.548    23743558.571          15.750
        17.750
  26729748.055 5  20789259.220 5  25184430.415    25184437.767           7.750
         9.250
  -3012944.493 7  -2346906.029 6  22004947.556    22004953.435          20.750
        21.000
   -537761.111 4   -412225.766 5  25137580.399    25137586.638           7.000
         6.500
  12047205.605 6   9393945.240 6  23042000.860    23042006.989          15.500
        19.500
  15271789.807 6  11900100.995 6  23889573.704    23889580.728          12.750
        14.000
  25009102.394 3  19487612.752 5  25506124.454    25506132.845           6.000
         6.500
 99  3  3  2 27 30.0050000  0  7G17G 5G 6G26G30G10G24
  -4290568.201 6  -3336578.697 6  23742335.642    23742342.618          16.000
        18.000
  26803443.027 5  20846683.864 5  25198454.274    25198461.458           7.750
         9.250
  -3007952.746 7  -2343016.348 6  22005897.446    22005903.278          20.500
        20.500
   -559003.425 4   -428778.182 5  25133538.329    25133544.099           7.250
         6.250
  12104141.236 6   9438310.664 6  23052835.540    23052841.505          15.250
        19.750
  15333694.511 6  11948338.428 6  23901353.845    23901360.880          13.000
        13.500
     18973.87013                                  25516958.798           5.750

 99  3  3  2 27 45.0050000  0  7G17G 5G 6G26G30G10G24
  -4296913.406 6  -3341522.984 6  23741128.134    23741135.134          15.750
        17.750
  26877151.727 5  20904119.229 5  25212480.618    25212487.907           7.750
         9.500
  -3002880.330 7  -2339063.797 6  22006862.501    22006868.392          20.250
        20.500
   -580220.793 4   -445311.159 5  25129500.696    25129506.712           7.000
         6.250
  12161175.868 6   9482753.233 6  23063688.821    23063694.888          15.250
        19.500
  15395676.669 6  11996636.222 6  23913148.767    23913155.571          13.000
        13.500
     75899.969 3     41396.83315  25527791.618    25527799.892           5.750
         6.750
 99  3  3  2 28  0.0050000  0  7G17G 5G 6G26G30G10G24
  -4303211.213 6  -3346430.341 6  23739929.540    23739936.642          15.750
        18.000
  26950873.494 4  20961564.746 5  25226509.220    25226516.591           7.250
         9.500
  -2997725.308 7  -2335046.882 6  22007843.532    22007849.364          20.500
        20.000
   -601411.340 4   -461823.249 5  25125468.032    25125474.204           6.750
         6.250
  12218310.447 6   9527273.687 6  23074561.235    23074567.349          15.000
        19.250
  15457739.765 6  12044997.078 6  23924958.821    23924965.743          12.750
        14.000
    132816.338 3     85747.252 5  25538622.548    25538630.911           5.750
         6.500
 99  3  3  2 28 15.0050000  0  7G17G 5G 6G26G30G10G24
  -4309461.055 6  -3351300.322 6  23738740.259    23738747.356          15.750
        18.000
  27024608.241 4  21019020.402 5  25240540.368    25240548.028           7.250
         9.500
  -2992485.600 7  -2330963.986 6  22008840.704    22008846.548          20.750
        20.250
   -622575.818 4   -478315.023 5  25121440.853    25121446.599           6.750
         6.250
  12275544.200 6   9571871.417 6  23085452.407    23085458.513          15.250
        19.500
  15519884.525 6  12093421.563 6  23936784.735    23936791.560          13.000
        13.500
    189727.831 3    130093.865 5  25549452.415    25549460.493           5.750
         6.500
 99  3  3  2 28 30.0050000  0  7G17G 5G 6G26G30G10G24
  -4315666.103 6  -3356135.397 6  23737559.501    23737566.384          15.750
        18.000
  27098355.808 4  21076486.029 5  25254574.032    25254581.395           6.750
         9.250
  -2987161.148 7  -2326815.046 6  22009853.923    22009859.603          20.500
        20.250
   -643716.505 4   -494788.252 5  25117417.876    25117423.907           6.500
         6.250
  12332874.141 6   9616544.098 6  23096361.860    23096368.095          15.250
        19.500
  15582109.373 6  12141908.474 6  23948625.712    23948632.700          12.750
        14.250
    246634.200 3    174436.505 5  25560281.048    25560289.220           5.500
         6.250
 99  3  3  2 28 45.0050000  0  7G17G 5G 6G26G30G10G24
  -4321822.806 6  -3360932.798 6  23736387.923    23736394.954          15.750
        18.000
  27172118.361 4  21133963.334 5  25268610.657    25268618.118           6.750
         9.250
  -2981750.083 7  -2322598.613 6  22010883.579    22010889.395          20.500
        20.000
   -664826.123 4   -511237.281 5  25113400.642    25113406.864           6.500
         6.500
  12390302.455 6   9661293.433 6  23107290.142    23107296.247          15.000
        19.500
  15644422.222 6  12190463.941 6  23960483.313    23960490.345          12.750
        14.000
    303536.558 3    218776.000 5  25571109.313    25571117.513           5.250
         6.250
 99  3  3  2 29  0.0050000  0  7G17G 5G 6G26G30G10G24
  -4327927.581 6  -3365689.753 6  23735226.204    23735233.247          15.750
        18.250
  27245896.830 4  21191453.051 5  25282650.196    25282657.806           6.500
         9.500
  -2976249.112 7  -2318312.139 6  22011930.313    22011936.161          20.500
        20.250
   -685897.814 4   -527656.750 5  25109390.782    25109397.192           6.500
         6.500
  12447834.164 6   9706123.323 6  23118238.063    23118244.009          15.000
        19.250
  15706828.966 6  12239092.576 6  23972359.009    23972365.868          12.500
        13.500
    360433.449 3    263111.232 5  25581936.634    25581944.728           5.500
         6.250
 99  3  3  2 29 15.0050000  0  7G17G 5G 6G26G30G10G24
  -4333985.175 6  -3370409.922 6  23734073.423    23734080.524          15.750
        18.250
  27319685.555 3  21248950.747 5  25296691.548    25296699.325           6.000
         9.500
  -2970663.215 7  -2313959.476 6  22012993.306    22012999.032          20.500
        20.250
   -706933.640 4   -544048.280 5  25105387.837    25105394.110           6.500
         6.500
  12505467.807 6   9751032.660 6  23129205.353    23129211.474          14.750
        19.750
  15769324.371 6  12287790.302 6  23984251.353    23984258.298          12.250
        13.500
    417316.504 3    307435.691 5  25592760.993    25592769.325           5.750
         6.250
 99  3  3  2 29 30.0050000  0  7G17G 5G 6G26G30G10G24
  -4339989.291 6  -3375088.434 6  23732930.673    23732937.774          15.750
        18.500
  27393489.949 3  21306460.673 5  25310736.110    25310743.907           6.000
         9.500
  -2964988.708 7  -2309537.770 6  22014073.157    22014078.919          20.500
        20.000
   -727928.930 4   -560408.204 5  25101392.384    25101398.829           6.250
         6.500
  12563210.096 6   9796026.653 6  23140193.360    23140199.497          15.000
        19.750
  15831910.682 6  12336558.854 6  23996161.204    23996168.099          12.500
        13.000
    474191.505 3    351753.871 5  25603584.118    25603592.395           5.500
         6.500
 99  3  3  2 29 45.0050000  0  7G17G 5G 6G26G30G10G24
  -4345947.054 6  -3379730.817 6  23731797.259    23731804.239          15.750
        18.500
  27467304.587 3  21363978.553 5  25324782.478    25324790.317           6.000
         9.500
  -2959234.737 7  -2305054.141 6  22015168.165    22015173.856          20.500
        20.250
   -748889.889 4   -576741.395 5  25097403.767    25097410.427           6.500
         6.750
  12621052.528 6   9841098.682 6  23151200.438    23151206.567          15.000
        19.750
  15894581.745 6  12385393.460 6  24008087.157    24008094.048          12.500
        13.750
    531052.735 3    396061.314 5  25614404.431    25614412.599           5.750
         6.500
 99  3  3  2 30  0.0050000  0  7G17G 5G 6G26G30G10G24
  -4351858.094 6  -3384336.799 6  23730672.353    23730679.220          16.000
        18.500
  27541129.419 3  21421504.392 5  25338830.970    25338838.669           6.000
         9.250
  -2953399.242 7  -2300506.988 6  22016278.532    22016284.204          20.250
        20.000
   -769815.270 4   -593046.856 5  25093421.579    25093428.087           6.250
         6.750
  12678996.740 6   9886250.006 6  23162226.884    23162232.958          15.000
        19.500
  15957337.749 6  12434294.241 6  24020029.196    24020036.181          12.250
        13.250
    587902.957 3    440360.198 5  25625222.454    25625230.665           5.500
         6.500
 99  3  3  2 30 15.0050000  0  7G17G 5G 6G26G30G10G24
  -4357719.723 6  -3388904.272 6  23729556.892    23729563.864          15.750
        18.500
  27614969.145 4  21479041.832 5  25352882.376    25352889.989           6.250
         9.500
  -2947479.873 7  -2295894.481 6  22017404.954    22017410.645          20.250
        20.000
   -790700.456 4   -609321.007 5  25089447.407    25089453.856           6.500
         7.000
  12737046.104 6   9931483.266 6  23173273.298    23173279.423          14.750
        19.500
  16020180.394 6  12483262.550 6  24031987.712    24031994.708          12.250
        13.500
    644748.895 3    484655.717 5  25636040.165    25636048.130           5.750
         6.500
 99  3  3  2 30 30.0050000  0  7G17G 5G 6G26G30G10G24
  -4363535.108 6  -3393435.715 6  23728450.126    23728457.243          16.000
        18.500
  27688823.034 4  21536590.313 5  25366936.353    25366943.872           6.250
         9.250
  -2941478.004 7  -2291217.687 6  22018547.087    22018552.704          20.500
        20.000
   -811545.562 4   -625563.917 5  25085480.509    25085487.337           6.250
         7.250
  12795197.573 6   9976796.108 6  23184339.306    23184345.208          15.500
        19.500
  16083103.955 6  12532293.900 6  24043961.899    24043968.720          12.500
        14.000
    701588.622 3    528946.421 5  25646856.673    25646864.263           6.000
         6.500
 99  3  3  2 30 45.0050000  0  7G17G 5G 6G26G30G10G24
  -4369304.706 6  -3397931.481 6  23727352.243    23727359.204          15.750
        18.500
  27762689.072 4  21594148.256 5  25380992.696    25381000.044           6.500
         9.250
  -2935394.812 7  -2286477.528 6  22019704.618    22019710.372          20.250
        20.000
   -832348.338 4   -641773.842 5  25081521.884    25081528.645           6.250
         7.250
  12853451.173 6  10022188.522 6  23195424.548    23195430.634          15.500
        19.500
  16146109.325 6  12581388.999 6  24055951.243    24055958.130          12.250
        13.250
    758422.993 3    573232.938 5  25657671.806    25657679.595           6.000
         6.500
 99  3  3  2 31  0.0050000  0  7G17G 5G 6G26G30G10G24
  -4375027.327 6  -3402390.646 6  23726263.196    23726270.333          15.750
        18.250
  27836565.229 4  21651714.104 5  25395050.767    25395058.341           6.750
         9.250
  -2929228.006 7  -2281672.215 6  22020878.173    22020883.841          20.250
        20.000
   -853106.663 4   -657949.140 5  25077571.532    25077578.372           6.500
         7.250
  12911807.257 6  10067660.787 6  23206529.415    23206535.493          15.500
        19.250
  16209198.215 6  12630549.177 6  24067956.681    24067963.603          12.250
        13.500
    815254.234 4    617517.032 5  25668486.767    25668494.353           6.250
         6.500
 99  3  3  2 31 15.0050000  0  7G17G 5G 6G26G30G10G24
  -4380703.783 6  -3406813.831 6  23725183.040    23725190.161          15.750
        18.500
  27910453.697 4  21709289.531 5  25409111.337    25409118.856           6.750
         9.500
  -2922974.317 7  -2276799.195 6  22022068.173    22022073.751          20.500
        19.750
   -873821.812 4   -674090.800 5  25073629.540    25073636.161           6.500
         7.250
  12970267.415 6  10113214.155 6  23217653.806    23217659.790          15.250
        19.250
  16272367.919 5  12679772.319 6  24079977.399    24079984.247          11.750
        13.250
    872085.168 3    661800.856 5  25679300.884    25679308.876           6.000
         6.750
 99  3  3  2 31 30.0050000  0  7G17G 5G 6G26G30G10G24
  -4386339.999 6  -3411205.660 6  23724110.485    23724117.454          15.750
        18.500
  27984352.568 4  21766873.085 5  25423173.821    25423181.310           6.750
         9.500
  -2916637.846 7  -2271861.670 6  22023273.845    22023279.462          20.500
        20.000
   -894501.641 4   -690204.905 5  25069694.556    25069701.204           6.750
         7.500
  13028824.927 6  10158843.393 6  23228796.907    23228803.005          15.500
        19.250
  16335612.184 6  12729053.575 6  24092012.478    24092019.364          12.000
        13.250
    928915.022 3    706083.870 5  25690115.517    25690122.997           6.000
         6.750
 99  3  3  2 31 45.0050000  0  7G17G 5G 6G26G30G10G24
  -4391934.424 6  -3415564.924 6  23723045.892    23723052.899          15.750
        18.500
  28058263.957 4  21824466.373 5  25437238.665    25437246.103           6.750
         9.500
  -2910217.507 7  -2266858.792 6  22024495.728    22024501.274          20.500
        19.750
   -915147.064 4   -706292.232 5  25065765.884    25065772.329           6.750
         7.250
  13087479.380 6  10204548.162 6  23239958.556    23239964.774          15.750
        19.250
  16398932.356 6  12778393.980 6  24104061.798    24104068.813          12.000
        13.000
    985746.585 3    750368.200 5  25700930.103    25700937.966           5.750
         6.750
 99  3  3  2 32  0.0050000  0  6G17G 5G 6G26G30G10
  -4397486.072 6  -3419890.862 6  23721989.368    23721996.520          15.750
        18.750
  28132186.739 4  21882068.537 5  25451305.524    25451313.282           6.750
         9.750
  -2903710.206 7  -2261788.158 6  22025733.946    22025739.610          20.500
        20.000
   -935755.946 4   -722351.075 5  25061844.353    25061850.177           7.000
         6.750
  13146231.337 6  10250328.909 6  23251138.806    23251144.841          15.750
        19.000
  16462328.998 5  12827793.974 6  24116125.821    24116132.751          11.750
        13.500
 99  3  3  2 32 15.0050000  0  6G17G 5G 6G26G30G10
  -4402990.974 6  -3424180.373 6  23720941.837    23720948.931          15.750
        18.500
  28206122.049 4  21939680.464 5  25465374.993    25465382.763           6.750
         9.750
  -2897110.175 7  -2256645.268 6  22026989.845    22026995.571          20.500
        20.000
   -956325.376 4   -738379.190 5  25057929.868    25057936.423           7.250
         7.250
  13205085.347 6  10296189.175 6  23262338.259    23262344.321          15.750
        19.250
  16525803.702 5  12877254.765 6  24128204.524    24128211.501          11.750
        13.500
 99  3  3  2 32 30.0050000  0  6G17G 5G 6G26G30G10
  -4408454.120 6  -3428437.344 6  23719902.259    23719909.263          15.750
        18.500
  28280066.656 4  21997299.644 5  25479446.313    25479453.993           6.500
         9.750
  -2890421.110 7  -2251433.000 6  22028262.923    22028268.470          20.500
        19.750
   -976860.066 4   -754380.204 5  25054022.423    25054028.567           7.250
         7.750
  13264036.485 6  10342125.118 6  23273556.462    23273562.317          16.000
        18.750
  16589353.120 5  12926773.792 6  24140297.478    24140304.696          11.500
        13.000
 99  3  3  2 32 45.0050000  0  6G17G 5G 6G26G30G10
  -4413872.343 6  -3432659.317 6  23718871.228    23718878.306          15.750
        18.250
  28354022.728 4  22054927.754 5  25493519.540    25493527.380           6.250
        10.000
  -2883637.205 7  -2246146.824 6  22029553.813    22029559.399          20.500
        19.750
   -997357.241 5   -770352.008 5  25050121.649    25050128.208           7.500
         7.750
  13323088.349 6  10388139.562 6  23284793.540    23284799.571          16.000
        18.750
  16652983.869 5  12976356.199 6  24152405.876    24152413.173          11.250
        13.000
 99  3  3  2 33  0.0050000  0  6G17G 5G 6G26G30G10
  -4419248.069 6  -3436848.167 6  23717848.157    23717855.231          15.750
        18.250
  28427987.622 4  22112562.730 5  25507594.673    25507602.356           6.250
        10.000
  -2876761.011 7  -2240788.741 6  22030862.360    22030868.013          20.500
        19.750
  -1017818.366 5   -786295.725 5  25046228.032    25046234.524           7.750
         8.000
  13382239.065 6  10434231.033 6  23296049.665    23296055.505          16.250
        18.500
  16716693.704 5  13026000.230 6  24164529.704    24164536.821          11.000
        13.250
 99  3  3  2 33 15.0050000  0  6G17G 5G 6G26G30G10
  -4424579.276 6  -3441002.332 6  23716833.657    23716840.661          15.750
        18.500
  28501965.415 3  22170207.760 5  25521672.032    25521679.806           6.000
        10.000
  -2869793.896 7  -2235359.810 6  22032188.024    22032193.622          20.750
        20.000
  -1038243.114 5   -802211.080 5  25042341.610    25042348.005           7.750
         7.750
  13441489.624 6  10480400.295 6  23307324.696    23307330.524          16.000
        18.750
  16780479.141 5  13075703.170 6  24176667.470    24176674.622          10.750
        13.000
 99  3  3  2 33 30.0050000  0  6G17G 5G 6G26G30G10
  -4429861.660 6  -3445118.453 6  23715828.399    23715835.435          15.750
        18.750
  28575960.999 4  22227866.642 5  25535752.931    25535760.763           6.250
        10.500
  -2862732.670 7  -2229857.535 6  22033531.720    22033537.403          20.500
        20.000
  -1058627.797 5   -818095.245 5  25038462.540    25038468.907           7.750
         7.750
  13500843.147 6  10526649.796 6  23318619.313    23318625.157          16.250
        18.500
  16844341.284 5  13125465.894 6  24188820.157    24188827.372          11.000
        13.500
 99  3  3  2 33 45.0050000  0  6G17G 5G 6G26G30G10
  -4435093.117 6  -3449194.881 6  23714832.923    23714839.880          15.750
        18.500
  28649971.094 4  22285536.842 5  25549836.423    25549844.395           6.250
        10.500
  -2855577.899 7  -2224282.379 6  22034893.196    22034898.774          20.750
        20.000
  -1078971.354 5   -833947.345 5  25034591.056    25034597.790           8.000
         7.750
  13560298.566 6  10572978.696 6  23329933.259    23329939.067          16.250
        18.500
  16908280.434 5  13175288.603 6  24200987.274    24200994.556          11.000
        13.500
 99  3  3  2 34  0.0050000  0  6G17G 5G 6G26G30G10
  -4440273.567 6  -3453231.578 6  23713847.063    23713853.970          15.250
        17.750
  28723990.247 4  22343214.108 5  25563921.892    25563929.794           6.250
        10.500
  -2848332.389 7  -2218636.518 6  22036271.790    22036277.458          20.250
        19.750
  -1099272.629 5   -849766.506 5  25030727.853    25030734.118           8.000
         7.250
  13619853.528 6  10619385.159 6  23341266.251    23341271.978          16.000
        18.500
  16972291.740 5  13225167.532 6  24213168.204    24213175.517          10.250
        13.000
 99  3  3  2 34 15.0050000  0  6G17G 5G 6G26G30G10
  -4445395.408 6  -3457222.602 6  23712872.423    23712879.329          15.250
        17.750
  28798024.586 4  22400903.198 5  25578010.173    25578017.915           6.250
        10.250
  -2840990.162 7  -2212915.292 6  22037669.134    22037674.724          20.500
        19.750
  -1119523.836 5   -865546.654 5  25026874.392    25026880.849           8.250
         7.750
  13679514.711 6  10665874.387 6  23352619.423    23352625.188          16.250
        18.500
  17036380.170 5  13275106.574 6  24225363.837    24225371.075          10.750
        13.000
 99  3  3  2 34 30.0050000  0  6G17G 5G 6G26G30G10
  -4450462.690 6  -3461171.115 6  23711907.993    23711914.974          15.750
        18.250
  28872068.865 4  22458600.038 5  25592100.321    25592108.353           6.250
        10.250
  -2833557.687 7  -2207123.738 6  22039083.532    22039089.142          20.500
        19.750
  -1139729.575 5   -881291.362 5  25023029.040    25023035.720           8.000
         8.000
  13739274.236 6  10712440.250 6  23363991.345    23363997.056          16.250
        18.500
  17100540.924 5  13325101.970 6  24237573.368    24237580.411          10.750
        13.000
 99  3  3  2 34 45.0050000  0  6G17G 5G 6G26G30G10
  -4455472.623 6  -3465074.937 6  23710954.649    23710961.610          15.500
        18.000
  28946126.509 4  22516307.293 5  25606192.993    25606200.813           6.500
        10.000
  -2826034.451 7  -2201261.471 6  22040515.181    22040520.708          20.500
        19.500
  -1159886.489 5   -896998.033 5  25019193.157    25019199.583           8.000
         7.750
  13799131.708 6  10759082.438 6  23375381.618    23375387.349          16.250
        18.250
  17164774.659 5  13375154.238 6  24249796.571    24249803.696          10.500
        12.750
 99  3  3  2 35  0.0050000  0  6G17G 5G 6G26G30G10
  -4460425.033 6  -3468933.936 6  23710012.321    23710019.306          15.500
        18.000
  29020196.386 4  22574024.075 5  25620288.274    25620296.009           6.750
        10.250
  -2818420.934 7  -2195328.842 6  22041963.907    22041969.493          20.250
        19.500
  -1179992.260 5   -912664.845 5  25015367.110    25015373.872           8.250
         8.250
  13859086.621 6  10805800.552 6  23386790.813    23386796.583          16.000
        18.250
  17229079.707 5  13425262.063 6  24262033.470    24262040.720          10.500
        13.000
 99  3  3  2 35 15.0050000  0  6G17G 5G 6G26G30G10
  -4465323.584 6  -3472750.964 6  23709080.071    23709087.060          15.250
        18.000
  29094274.673 4  22631747.415 5  25634384.907    25634392.552           6.500
        10.000
  -2810723.534 7  -2189330.858 6  22043428.728    22043434.196          20.250
        19.750
  -1200051.511 5   -928295.408 5  25011550.048    25011556.603           8.250
         8.250
  13919135.150 6  10852591.607 6  23398217.790    23398223.501          16.000
        18.250
  17293450.978 5  13475421.501 6  24274283.095    24274289.895          10.750
        12.750
 99  3  3  2 35 30.0050000  0  6G17G 5G 6G26G30G10
  -4470169.553 6  -3476527.022 6  23708157.821    23708164.845          15.250
        18.000
  29168360.079 4  22689476.299 5  25648482.751    25648490.337           6.500
         9.750
  -2802938.678 7  -2183264.721 6  22044909.978    22044915.493          20.250
        19.750
  -1220064.427 5   -943889.874 5  25007741.767    25007748.149           8.250
         8.250
  13979277.818 6  10899456.028 6  23409662.509    23409668.149          16.000
        18.250
  17357891.759 5  13525635.098 6  24286545.649    24286552.579          10.750
        12.750
 99  3  3  2 35 45.0050000  0  6G17G 5G 6G26G30G10
  -4474963.929 6  -3480262.880 6  23707245.399    23707252.356          15.250
        17.750
  29242448.274 4  22747207.357 5  25662581.407    25662589.052           6.250
         9.500
  -2795065.416 7  -2177129.700 6  22046408.306    22046413.927          20.250
        19.750
  -1240030.386 5   -959447.745 5  25003942.306    25003948.895           8.250
         8.250
  14039513.324 6  10946392.778 6  23421124.728    23421130.583          15.750
        18.250
  17422404.698 5  13575904.926 6  24298822.001    24298829.095          10.750
        12.500
 99  3  3  2 36  0.0050000  0  6G17G 5G 6G26G30G10
  -4479708.739 6  -3483960.112 6  23706342.595    23706349.704          15.000
        17.750
  29316538.602 4  22804940.083 5  25676680.267    25676687.915           6.250
         9.250
  -2787107.500 7  -2170928.714 6  22047922.649    22047928.173          20.250
        19.500
  -1259950.051 5   -974969.537 5  25000151.587    25000158.466           8.250
         8.250
  14099839.219 6  10993399.976 6  23432604.548    23432610.224          15.250
        18.250
  17486988.267 5  13626229.776 6  24311111.915    24311118.872          10.750
        12.500
 99  3  3  2 36 15.0050000  0  6G17G 5G 6G26G30G10
  -4484401.420 6  -3487616.726 6  23705449.563    23705456.536          15.250
        18.000
  29390637.207 4  22862679.259 5  25690780.626    25690788.259           6.250
         9.250
  -2779060.329 7  -2164658.183 6  22049453.962    22049459.524          20.000
        19.500
  -1279818.089 5   -990451.116 5  24996371.188    24996377.532           8.500
         8.250
  14160261.244 6  11040482.067 6  23444102.399    23444108.149          15.500
        18.250
  17551648.505 5  13676614.388 6  24323416.462    24323423.388          10.750
        12.750
 99  3  3  2 36 30.0050000  0  6G17G 5G 6G26G30G10
  -4489047.428 6  -3491236.971 6  23704565.407    23704572.392          15.000
        17.750
  29464739.854 3  22920421.569 5  25704882.017    25704889.751           6.000
         9.000
  -2770925.600 7  -2158319.426 6  22051001.853    22051007.501          20.250
        19.500
  -1299637.633 5  -1005894.894 5  24992599.548    24992606.020           8.500
         8.250
  14220774.507 6  11087635.260 6  23455617.681    23455623.446          15.000
        18.250
  17616385.902 5  13727059.117 6  24335735.485    24335742.431          10.750
        12.500
 99  3  3  2 36 45.0050000  0  6G17G 5G 6G26G30G10
  -4493650.719 6  -3494823.923 6  23703689.438    23703696.407          15.000
        17.750
  29538845.454 3  22978166.215 5  25718983.673    25718991.325           5.750
         8.750
  -2762702.857 7  -2151912.079 6  22052566.634    22052572.204          20.250
        19.500
  -1319409.518 5  -1021301.549 5  24988837.142    24988843.583           8.750
         8.250
  14281378.314 6  11134859.005 6  23467150.181    23467156.028          15.000
        18.250
  17681201.079 5  13777564.457 6  24348069.438    24348076.255          10.750
        12.250
 99  3  3  2 37  0.0050000  0  6G17G 5G 6G26G30G10
  -4498214.207 6  -3498379.875 6  23702821.017    23702828.083          15.000
        17.750
  29612950.670 3  23035910.546 5  25733085.603    25733093.247           5.500
         8.750
  -2754393.545 7  -2145437.278 6  22054147.813    22054153.442          20.000
        19.500
  -1339135.260 5  -1036672.242 5  24985083.438    24985090.079           8.750
         8.250
  14342071.833 6  11182152.659 6  23478699.759    23478705.681          15.000
        18.250
  17746093.802 5  13828130.217 6  24360417.985    24360424.966          10.500
        12.500
 99  3  3  2 37 15.0050000  0  6G17G 5G 6G26G30G10
  -4502737.259 6  -3501904.307 6  23701960.290    23701967.278          15.000
        17.750
  29687053.169 3  23093652.738 5  25747186.649    25747194.415           5.250
         8.250
  -2745998.074 7  -2138895.339 6  22055745.399    22055751.040          20.000
        19.500
  -1358816.015 5  -1052007.881 5  24981338.470    24981344.817           9.000
         8.500
  14402855.820 6  11229516.795 6  23490266.626    23490272.517          14.750
        18.250
  17811065.487 5  13878757.499 6  24372781.649    24372788.763          10.500
        12.500
 99  3  3  2 37 30.0050000  0  6G17G 5G 6G26G30G10
  -4507215.504 6  -3505393.828 6  23701108.056    23701115.056          15.000
        18.000
  29761156.378 2  23151395.497 5  25761287.774    25761295.774           4.750
         8.250
  -2737512.139 7  -2132282.912 6  22057360.220    22057365.837          20.000
        19.500
  -1378447.854 5  -1067305.403 5  24977602.556    24977608.950           9.000
         8.500
  14463733.167 6  11276953.697 6  23501850.993    23501857.087          14.500
        18.250
  17876119.109 5  13929448.634 6  24385160.938    24385168.040          10.750
        12.250
 99  3  3  2 37 45.0050000  0  6G17G 5G 6G26G30G10
  -4511651.415 6  -3508850.362 6  23700264.063    23700271.134          15.000
        18.000
  29835256.637 2  23209135.968 5  25775388.907    25775396.645           4.750
         8.250
  -2728937.804 7  -2125601.601 6  22058991.868    22058997.536          20.000
        19.500
  -1398031.010 5  -1082564.987 5  24973875.978    24973882.298           8.750
         8.500
  14524697.186 6  11324458.128 6  23513452.063    23513458.228          14.500
        18.250
  17941250.156 5  13980200.105 6  24397555.063    24397561.958          10.750
        12.250
 99  3  3  2 38  0.0050000  0  6G17G 5G 6G26G30G10
  -4516042.545 6  -3512271.999 6  23699428.274    23699435.251          15.000
        17.750
  29909355.803 2  23266875.561 5  25789489.220    25789497.310           4.500
         8.000
  -2720275.705 7  -2118851.898 6  22060640.181    22060645.798          20.000
        19.500
  -1417562.031 5  -1097783.943 5  24970159.009    24970165.622           8.500
         8.500
  14585747.138 6  11372029.518 6  23525069.532    23525075.579          14.500
        18.000
  18006455.202 5  14031009.229 6  24409963.228    24409970.259          10.750
        12.250
 99  3  3  2 38 15.0050000  0  6G17G 5G 6G26G30G10
  -4520388.487 6  -3515658.430 6  23698601.181    23698608.267          15.000
        17.750
  29983453.430 2  23324613.975 5  25803589.681    25803597.438           4.250
         8.000
  -2711524.067 7  -2112032.423 6  22062305.556    22062311.208          20.000
        19.500
  -1437041.148 5  -1112962.465 5  24966452.188    24966458.767           8.500
         8.500
  14646880.675 6  11419666.040 6  23536702.829    23536708.892          14.500
        18.250
  18071732.170 5  14081874.401 6  24422384.931    24422391.962          10.500
        12.500
 99  3  3  2 38 30.0050000  0  6G17G 5G 6G26G30G10
  -4524688.817 6  -3519009.319 6  23697782.954    23697789.864          15.000
        18.000
  30057545.413 2  23382347.962 5  25817688.845    25817696.560           4.250
         7.750
  -2702681.896 7  -2105142.407 6  22063988.142    22063993.747          20.000
        19.500
  -1456467.941 5  -1128100.214 5  24962755.618    24962761.974           8.250
         8.500
  14708094.796 6  11467365.357 6  23548351.634    23548357.571          14.500
        18.250
  18137078.409 5  14132793.544 6  24434819.876    24434827.001          10.500
        12.500
 99  3  3  2 38 45.0050000  0  6G17G 5G 6G26G30G10
  -4528939.736 6  -3522321.701 6  23696974.032    23696980.907          15.250
        17.750
  30131635.529 2  23440080.522 5  25831787.845    25831795.778           4.250
         7.750
  -2693745.743 7  -2098179.157 6  22065688.688    22065694.192          20.000
        19.500
  -1475839.681 5  -1143195.056 5  24959069.251    24959075.603           8.250
         8.250
  14769390.783 6  11515128.461 6  23560015.720    23560021.743          14.250
        18.250
  18202494.180 5  14183766.885 6  24447268.212    24447275.192          10.750
        12.750
 99  3  3  2 39  0.0050000  0  6G17G 5G 6G26G30G10
  -4533141.036 6  -3525595.420 6  23696174.485    23696181.509          15.000
        18.000
  30205724.294 2  23497812.023 5  25845886.454    25845894.267           4.250
         7.500
  -2684717.741 7  -2091144.336 6  22067406.485    22067412.024          20.250
        19.250
  -1495158.825 5  -1158248.914 5  24955392.931    24955399.013           8.000
         8.250
  14830768.347 6  11562955.129 6  23571695.563    23571701.540          14.250
        18.250
  18267973.428 5  14234789.674 6  24459728.571    24459735.575          10.750
        12.500
 99  3  3  2 39 15.0050000  0  6G17G 5G 6G26G30G10
  -4537286.856 6  -3528825.909 6  23695385.626    23695392.536          15.000
        17.750
  30279814.851 2  23555544.924 5  25859985.392    25859993.204           4.250
         7.500
  -2675596.543 7  -2084036.898 6  22069142.204    22069147.802          20.000
        19.500
  -1514422.289 5  -1173259.383 5  24951727.204    24951733.247           8.000
         8.000
  14892229.142 6  11610846.660 6  23583391.149    23583397.157          14.250
        18.500
  18333516.309 5  14285862.047 6  24472200.931    24472207.892          10.750
        12.500
 99  3  3  2 39 30.0050000  0  6G17G 5G 6G26G30G10
  -4541382.057 6  -3532016.951 6  23694606.220    23694613.181          15.250
        17.750
  30353906.166 2  23613278.401 5  25874084.220    25874092.087           4.250
         7.250
  -2666384.225 7  -2076858.455 6  22070895.259    22070900.903          20.000
        19.500
  -1533631.641 5  -1188227.689 5  24948071.462    24948077.489           7.750
         7.750
  14953770.176 6  11658800.718 6  23595101.931    23595108.114          14.250
        18.500
  18399118.022 5  14336980.275 6  24484684.360    24484691.505          10.750
        12.750
 99  3  3  2 39 45.0050000  0  6G17G 5G 6G26G30G10
  -4545424.546 6  -3535166.918 6  23693836.978    23693843.923          15.250
        17.750
  30428003.307 2  23671016.432 5  25888184.837    25888192.474           4.500
         7.250
  -2657074.712 7  -2069604.277 6  22072666.806    22072672.376          20.000
        19.250
  -1552782.657 5  -1203150.541 5  24944427.001    24944433.333           7.500
         8.000
  15015394.198 6  11706819.436 6  23606828.517    23606834.661          14.250
        18.500
  18464779.976 5  14388145.431 6  24497179.649    24497186.520          10.750
        12.750
 99  3  3  2 40  0.0050000  0  6G17G 5G 6G26G30G10
  -4549412.653 6  -3538274.507 6  23693078.063    23693084.974          15.250
        17.750
  30502108.131 2  23728760.451 5  25902286.454    25902294.177           4.500
         7.250
  -2647668.490 7  -2062274.741 6  22074456.649    22074462.310          20.000
        19.250
  -1571877.668 5  -1218029.763 5  24940793.782    24940799.747           7.750
         8.000
  15077102.099 6  11754903.515 6  23618571.337    23618577.380          14.250
        18.500
  18530501.965 5  14439357.372 6  24509686.017    24509692.954          10.750
        12.500
 99  3  3  2 40 15.0050000  0  5G17G 6G26G30G10
  -4553341.607 6  -3541336.010 6  23692330.329    23692337.403          15.250
        17.750
  -2638162.600 7  -2054867.546 6  22076265.587    22076271.224          20.000
        19.250
  -1590918.141 5  -1232866.460 5  24937170.157    24937176.661           7.750
         8.250
  15138899.374 6  11803057.236 6  23630330.821    23630336.962          14.250
        18.250
  18596288.995 5  14490619.990 6  24522205.024    24522211.892          10.750
        12.750
 99  3  3  2 40 30.0050000  0  5G17G 6G26G30G10
  -4557210.594 6  -3544350.782 6  23691594.087    23691600.958          15.250
        17.750
  -2628556.177 7  -2047382.007 6  22078093.649    22078099.302          20.250
        19.250
  -1609905.603 5  -1247661.875 5  24933556.946    24933563.103           7.500
         8.250
  15200789.110 6  11851283.001 6  23642108.204    23642114.325          14.000
        18.250
  18662146.319 5  14541937.388 6  24534737.118    24534744.048          11.000
        12.750
 99  3  3  2 40 45.0050000  0  5G17G 6G26G30G10
  -4561023.512 6  -3547321.864 6  23690868.532    23690875.517          15.250
        17.750
  -2618850.690 7  -2039819.275 6  22079940.665    22079946.278          20.000
        19.500
  -1628843.806 5  -1262418.893 5  24929953.196    24929959.743           7.750
         8.250
  15262772.952 6  11899582.099 6  23653903.228    23653909.419          14.250
        18.250
  18728073.230 5  14593309.009 6  24547282.642    24547289.876          10.750
        12.750
 99  3  3  2 41  0.0050000  0  5G17G 6G26G30G10
  -4564786.734 6  -3550254.227 6  23690152.360    23690159.247          15.000
        17.750
  -2609050.119 7  -2032182.450 6  22081805.603    22081811.251          20.000
        19.500
  -1647741.004 5  -1277143.952 5  24926357.251    24926363.454           7.750
         8.250
  15324847.267 6  11947951.695 6  23665715.517    23665721.751          14.000
        18.250
  18794067.379 5  14644733.017 6  24559840.860    24559848.017          10.750
        12.750
 99  3  3  2 41 15.0050000  0  5G17G 6G26G30G10
  -4568497.316 6  -3553145.570 6  23689446.251    23689453.157          15.250
        17.750
  -2599152.107 7  -2024469.703 6  22083689.040    22083694.622          20.250
        19.250
  -1666593.868 5  -1291834.476 5  24922769.493    24922776.048           7.500
         8.500
  15387012.939 6  11996392.473 6  23677545.204    23677551.544          14.000
        18.250
  18860132.533 5  14696212.366 6  24572412.548    24572419.786          10.750
        12.750
 99  3  3  2 41 30.0050000  0  5G17G 6G26G30G10
  -4572161.301 6  -3556000.598 6  23688748.868    23688755.782          15.250
        17.750
  -2589157.506 7  -2016681.685 6  22085590.938    22085596.567          20.250
        19.500
  -1685404.402 4  -1306492.013 5  24919189.806    24919196.325           7.250
         8.500
  15449266.710 6  12044901.909 6  23689391.751    23689397.911          14.000
        18.250
  18926268.020 5  14747746.516 6  24584997.806    24585004.892          10.500
        13.000
 99  3  3  2 41 45.0050000  0  5G17G 6G26G30G10
  -4575776.793 6  -3558817.847 6  23688060.985    23688067.853          15.250
        17.750
  -2579061.542 7  -2008814.694 6  22087512.157    22087517.798          20.000
        19.500
  -1704170.727 5  -1321115.099 5  24915618.899    24915625.497           7.500
         8.500
  15511612.595 6  12093483.114 6  23701255.946    23701262.212          14.000
        18.250
  18992476.771 5  14799337.739 6  24597596.923    24597604.161          10.500
        13.000
 99  3  3  2 42  0.0050000  0  5G17G 6G26G30G10
  -4579340.767 6  -3561594.943 6  23687382.759    23687389.614          15.250
        17.750
  -2568866.378 7  -2000870.398 6  22089452.196    22089457.806          20.250
        19.500
  -1722892.011 5  -1335703.090 5  24912056.368    24912062.892           7.500
         8.750
  15574051.094 6  12142136.495 6  23713137.454    23713143.700          14.000
        18.250
  19058760.981 5  14850987.768 6  24610210.321    24610217.579          10.750
        13.000
 99  3  3  2 42 15.0050000  0  5G17G 6G26G30G10
  -4582856.218 6  -3564334.239 6  23686713.868    23686720.645          15.250
        17.500
  -2558574.615 7  -1992850.823 6  22091410.649    22091416.247          20.250
        19.500
  -1741570.057 5  -1350257.374 5  24908501.774    24908508.310           7.500
         8.750
  15636579.709 6  12190860.093 6  23725036.313    23725042.505          14.000
        18.250
  19125121.014 5  14902696.896 6  24622838.212    24622845.462          10.500
        12.750
 99  3  3  2 42 30.0050000  0  5G17G 6G26G30G10
  -4586329.646 6  -3567040.776 6  23686052.821    23686059.575          15.250
        17.750
  -2548184.918 7  -1984754.942 6  22093387.563    22093393.224          20.000
        19.500
  -1760202.186 5  -1364775.891 5  24904956.665    24904963.251           7.750
         8.750
  15699195.971 6  12239651.981 6  23736951.892    23736958.048          14.000
        18.000
  19191555.172 5  14954463.759 6  24635480.095    24635487.720          10.500
        12.750
 99  3  3  2 42 45.0050000  0  5G17G 6G26G30G10
  -4589765.075 6  -3569717.718 6  23685399.048    23685405.915          15.250
        17.750
  -2537700.149 7  -1976584.982 6  22095382.938    22095388.524          20.250
        19.500
  -1778786.170 5  -1379256.880 5  24901420.212    24901426.497           8.000
         8.750
  15761896.100 6  12288509.229 6  23748883.188    23748889.524          14.000
        18.000
  19258057.269 5  15006283.570 6  24648135.032    24648142.458          10.500
        13.000
 99  3  3  2 43  0.0050000  0  5G17G 6G26G30G10
  -4593156.778 6  -3572360.580 6  23684753.618    23684760.485          15.750
        17.500
  -2527116.906 7  -1968338.288 6  22097396.821    22097402.501          20.250
        19.750
  -1797316.386 5  -1393695.988 5  24897893.618    24897900.220           7.750
         8.750
  15824681.005 6  12337432.524 6  23760830.884    23760836.903          14.250
        17.500
  19324626.776 5  15058155.918 6  24660802.837    24660810.052          10.500
        12.500
 99  3  3  2 43 15.0050000  0  5G17G 6G26G30G10
  -4596507.806 6  -3574971.747 6  23684115.931    23684122.645          15.250
        18.000
  -2516438.943 7  -1960017.786 6  22099428.774    22099434.364          20.000
        19.750
  -1815787.861 5  -1408089.323 5  24894378.673    24894385.458           8.000
         8.500
  15887547.440 6  12386419.354 6  23772794.040    23772800.048          14.500
        18.000
  19391260.769 5  15110078.506 6  24673482.899    24673490.337          10.500
        12.500
 99  3  3  2 43 30.0050000  0  5G17G 6G26G30G10
  -4599816.803 6  -3577550.164 6  23683486.290    23683493.013          15.750
        18.000
  -2505667.911 7  -1951624.763 6  22101478.306    22101483.974          20.000
        19.500
  -1834195.845 5  -1422433.186 5  24890875.884    24890882.079           8.000
         8.500
  15950497.862 6  12435471.635 6  23784772.993    23784779.169          14.250
        17.750
  19457958.749 5  15162050.961 6  24686174.978    24686182.286          10.000
        12.750
 99  3  3  2 43 45.0050000  0  5G17G 6G26G30G10
  -4603083.355 6  -3580095.508 6  23682864.735    23682871.556          15.750
        18.000
  -2494803.883 7  -1943159.267 6  22103545.720    22103551.337          20.000
        19.500
  -1852539.818 5  -1436727.140 5  24887384.790    24887391.673           7.750
         9.000
  16013534.163 6  12484590.827 6  23796768.353    23796774.552          14.000
        17.500
  19524720.372 5  15214073.004 6  24698879.384    24698886.767          10.000
        12.500
 99  3  3  2 44  0.0050000  0  5G17G 6G26G30G10
  -4606303.437 6  -3582604.644 6  23682251.876    23682258.618          15.750
        18.250
  -2483848.813 7  -1934622.841 6  22105630.540    22105636.099          20.500
        19.500
  -1870818.037 5  -1450969.902 5  24883906.876    24883913.302           8.250
         8.750
  16076655.034 6  12533775.913 6  23808779.931    23808786.056          14.250
        17.750
  19591546.752 5  15266145.502 6  24711596.017    24711603.415          10.000
        12.750
 99  3  3  2 44 15.0050000  0  5G17G 6G26G30G10
  -4609474.909 6  -3585075.893 6  23681648.368    23681655.204          15.750
        18.000
  -2472799.540 7  -1926013.000 6  22107732.978    22107738.653          20.250
        19.750
  -1889027.974 5  -1465159.437 5  24880441.673    24880448.173           8.250
         9.250
  16139860.582 6  12583026.998 6  23820807.548    23820813.747          14.500
        17.750
  19658439.402 5  15318269.643 6  24724325.188    24724332.778          10.000
        12.500
 99  3  3  2 44 30.0060000  0  5G17G 6G26G30G10
  -4612595.416 6  -3587507.441 6  23681054.482    23681061.283          16.000
        18.000
  -2461652.052 7  -1917326.642 6  22109854.271    22109860.068          20.250
        19.750
  -1907168.521 5  -1479294.899 5  24876989.592    24876996.186           8.250
         9.250
  16203155.754 6  12632347.912 6  23832852.084    23832858.295          14.000
        17.500
  19725399.360 5  15370446.238 6  24737067.217    24737074.826          10.000
        13.000
 99  3  3  2 44 45.0060000  0  5G17G 6G26G30G10
  -4615667.319 6  -3589901.110 6  23680470.061    23680476.775          16.000
        18.500
  -2450416.713 7  -1908571.822 6  22111992.326    22111997.994          20.500
        19.750
  -1925241.058 5  -1493377.372 5  24873550.467    24873556.967           8.250
         9.000
  16266523.572 6  12681725.430 6  23844910.646    23844916.752          14.000
        17.500
  19792407.582 5  15422660.437 6  24749818.467    24749826.072          10.000
        12.750
